[[{"header":{"parameterUnit":"m.s-1","parameterCategory":1,"la1":30.6,"la2":28.766,"lo1":-90.7593,"lo2":-88.6598,"dx":0.0162,"dy":0.0183,"nx":116,"ny":114,"refTime":"2022-11-09T18:00:00:Z","depth":0,"parameterNumber":2,"parameterNumberName":"U-component_of_WINDS"},"data":[0.0,0.0,0.0,0.0,0.0,0.0,0.0,0.0,0.0,0.0,0.0,0.0,0.0,0.0,0.0,0.0,0.0,0.0,0.0,0.0,0.0,0.0,0.0,0.0,0.0,0.0,0.0,0.0,0.0,0.0,0.0,0.0,0.0,0.0,0.0,0.0,0.0,0.0,0.0,0.0,0.0,0.0,0.0,0.0,0.0,0.0,0.0,0.0,0.0,0.0,0.0,0.0,0.0,0.0,0.0,0.0,0.0,0.0,0.0,0.0,0.0,0.0,0.0,0.0,0.0,0.0,0.0,0.0,0.0,0.0,0.0,0.0,0.0,0.0,0.0,0.0,0.0,0.0,0.0,0.0,0.0,0.0,0.0,0.0,0.0,0.0,0.0,0.0,0.0,0.0,0.0,0.0,0.0,0.0,0.0,0.0,0.0,0.0,0.0,0.0,0.0,0.0,0.0,0.0,0.0,0.0,0.0,0.0,0.0,0.0,0.0,0.0,0.0,0.0,0.0,0.0,0.0,0.0,0.0,0.0,0.0,0.0,0.0,0.0,0.0,0.0,0.0,0.0,0.0,0.0,0.0,0.0,0.0,0.0,0.0,0.0,0.0,0.0,0.0,0.0,0.0,0.0,0.0,0.0,0.0,0.0,0.0,0.0,0.0,0.0,0.0,0.0,0.0,0.0,0.0,0.0,0.0,0.0,0.0,0.0,0.0,0.0,0.0,0.0,0.0,0.0,0.0,0.0,0.0,0.0,0.0,0.0,0.0,0.0,0.0,0.0,0.0,0.0,0.0,0.0,0.0,0.0,0.0,0.0,0.0,0.0,0.0,0.0,0.0,0.0,0.0,0.0,0.0,0.0,0.0,0.0,0.0,0.0,0.0,0.0,0.0,0.0,0.0,0.0,0.0,0.0,0.0,0.0,0.0,0.0,0.0,0.0,0.0,0.0,0.0,0.0,0.0,0.0,0.0,0.0,0.0,0.0,0.0,0.0,0.0,0.0,0.0,0.0,0.0,0.0,0.0,0.0,0.0,0.0,0.0,0.0,0.0,0.0,0.0,0.0,0.0,0.0,0.0,0.0,0.0,0.0,0.0,0.0,0.0,0.0,0.0,0.0,0.0,0.0,0.0,0.0,0.0,0.0,0.0,0.0,0.0,0.0,0.0,0.0,0.0,0.0,0.0,0.0,0.0,0.0,0.0,0.0,0.0,0.0,0.0,0.0,0.0,0.0,0.0,0.0,0.0,0.0,0.0,0.0,0.0,0.0,0.0,0.0,0.0,0.0,0.0,0.0,0.0,0.0,0.0,0.0,0.0,0.0,0.0,0.0,0.0,0.0,0.0,0.0,0.0,0.0,0.0,0.0,0.0,0.0,0.0,0.0,0.0,0.0,0.0,0.0,0.0,0.0,0.0,0.0,0.0,0.0,0.0,0.0,0.0,0.0,0.0,0.0,0.0,0.0,0.0,0.0,0.0,0.0,0.0,0.0,0.0,0.0,0.0,0.0,0.0,0.0,0.0,0.0,0.0,0.0,0.0,0.0,0.0,0.0,0.0,0.0,0.0,0.0,0.0,0.0,0.0,0.0,0.0,0.0,0.0,0.0,0.0,0.0,0.0,0.0,0.0,0.0,0.0,0.0,0.0,0.0,0.0,0.0,0.0,0.0,0.0,0.0,0.0,0.0,0.0,0.0,0.0,0.0,0.0,0.0,0.0,0.0,0.0,0.0,0.0,0.0,0.0,0.0,0.0,0.0,0.0,0.0,0.0,0.0,0.0,0.0,0.0,0.0,0.0,0.0,0.0,0.0,0.0,0.0,0.0,0.0,0.0,0.0,0.0,0.0,0.0,0.0,0.0,0.0,0.0,0.0,0.0,0.0,0.0,0.0,0.0,0.0,0.0,0.0,0.0,0.0,0.0,0.0,0.0,0.0,0.0,0.0,0.0,0.0,0.0,0.0,0.0,0.0,0.0,0.0,0.0,0.0,0.0,0.0,0.0,0.0,0.0,0.0,0.0,0.0,0.0,0.0,0.0,0.0,0.0,0.0,0.0,0.0,0.0,0.0,0.0,0.0,0.0,0.0,0.0,0.0,0.0,0.0,0.0,0.0,0.0,0.0,0.0,0.0,0.0,0.0,0.0,0.0,0.0,0.0,0.0,0.0,0.0,0.0,0.0,0.0,0.0,0.0,0.0,0.0,0.0,0.0,0.0,0.0,0.0,0.0,0.0,0.0,0.0,0.0,0.0,0.0,0.0,0.0,0.0,0.0,0.0,0.0,0.0,0.0,0.0,0.0,0.0,0.0,0.0,0.0,0.0,0.0,0.0,0.0,0.0,0.0,0.0,0.0,0.0,0.0,0.0,0.0,0.0,0.0,0.0,0.0,0.0,0.0,0.0,0.0,0.0,0.0,0.0,0.0,0.0,0.0,0.0,0.0,0.0,0.0,0.0,0.0,0.0,0.0,0.0,0.0,0.0,0.0,0.0,0.0,0.0,0.0,0.0,0.0,0.0,0.0,0.0,0.0,0.0,0.0,0.0,0.0,0.0,0.0,0.0,0.0,0.0,0.0,0.0,0.0,0.0,0.0,0.0,0.0,0.0,0.0,0.0,0.0,0.0,0.0,0.0,0.0,0.0,0.0,0.0,0.0,0.0,0.0,0.0,0.0,0.0,0.0,0.0,0.0,0.0,0.0,0.0,0.0,0.0,0.0,0.0,0.0,0.0,0.0,0.0,0.0,0.0,0.0,0.0,0.0,0.0,0.0,0.0,0.0,0.0,0.0,0.0,0.0,0.0,0.0,0.0,0.0,0.0,0.0,0.0,0.0,0.0,0.0,0.0,0.0,0.0,0.0,0.0,0.0,0.0,0.0,0.0,0.0,0.0,0.0,0.0,0.0,0.0,0.0,0.0,0.0,0.0,0.0,0.0,0.0,0.0,0.0,0.0,0.0,0.0,0.0,0.0,0.0,0.0,0.0,0.0,0.0,0.0,0.0,0.0,0.0,0.0,0.0,0.0,0.0,0.0,0.0,0.0,0.0,0.0,0.0,0.0,0.0,0.0,0.0,0.0,0.0,0.0,0.0,0.0,0.0,0.0,0.0,0.0,0.0,0.0,0.0,0.0,0.0,0.0,0.0,0.0,0.0,0.0,0.0,0.0,0.0,0.0,0.0,0.0,0.0,0.0,0.0,0.0,0.0,0.0,0.0,0.0,0.0,0.0,0.0,0.0,0.0,0.0,0.0,0.0,0.0,0.0,0.0,0.0,0.0,0.0,0.0,0.0,0.0,0.0,0.0,0.0,0.0,0.0,0.0,0.0,0.0,0.0,0.0,0.0,0.0,0.0,0.0,0.0,0.0,0.0,0.0,0.0,0.0,0.0,0.0,0.0,0.0,0.0,0.0,0.0,0.0,0.0,0.0,0.0,0.0,0.0,0.0,0.0,0.0,0.0,0.0,0.0,0.0,0.0,0.0,0.0,0.0,0.0,0.0,0.0,0.0,0.0,0.0,0.0,0.0,0.0,0.0,0.0,0.0,0.0,0.0,0.0,0.0,0.0,0.0,0.0,0.0,0.0,0.0,0.0,0.0,0.0,0.0,0.0,0.0,0.0,0.0,0.0,0.0,0.0,0.0,0.0,0.0,0.0,0.0,0.0,0.0,0.0,0.0,0.0,0.0,0.0,0.0,0.0,0.0,0.0,0.0,0.0,0.0,0.0,0.0,0.0,0.0,0.0,0.0,0.0,0.0,0.0,0.0,0.0,0.0,0.0,0.0,0.0,0.0,0.0,0.0,0.0,0.0,0.0,0.0,0.0,0.0,0.0,0.0,0.0,0.0,0.0,0.0,0.0,0.0,0.0,0.0,0.0,0.0,0.0,0.0,0.0,0.0,0.0,0.0,0.0,0.0,0.0,0.0,0.0,0.0,0.0,0.0,0.0,0.0,0.0,0.0,0.0,0.0,0.0,0.0,0.0,0.0,0.0,0.0,0.0,0.0,0.0,0.0,0.0,0.0,0.0,0.0,0.0,0.0,0.0,0.0,0.0,0.0,0.0,0.0,0.0,0.0,0.0,0.0,0.0,0.0,0.0,0.0,0.0,0.0,0.0,0.0,0.0,0.0,0.0,0.0,0.0,0.0,0.0,0.0,0.0,0.0,0.0,0.0,0.0,0.0,0.0,0.0,0.0,0.0,0.0,0.0,0.0,0.0,0.0,0.0,0.0,0.0,0.0,0.0,0.0,0.0,0.0,0.0,0.0,0.0,0.0,0.0,0.0,0.0,0.0,0.0,0.0,0.0,0.0,0.0,0.0,0.0,0.0,0.0,0.0,0.0,0.0,0.0,0.0,0.0,0.0,0.0,0.0,0.0,0.0,0.0,0.0,0.0,0.0,0.0,0.0,0.0,0.0,0.0,0.0,0.0,0.0,0.0,0.0,0.0,0.0,0.0,0.0,0.0,0.0,0.0,0.0,0.0,0.0,0.0,0.0,0.0,0.0,0.0,0.0,0.0,0.0,0.0,0.0,0.0,0.0,0.0,0.0,0.0,0.0,0.0,0.0,0.0,0.0,0.0,0.0,0.0,0.0,0.0,0.0,0.0,0.0,0.0,0.0,0.0,0.0,0.0,0.0,0.0,0.0,0.0,0.0,0.0,0.0,0.0,0.0,0.0,0.0,0.0,0.0,0.0,0.0,0.0,0.0,0.0,0.0,0.0,0.0,0.0,0.0,0.0,0.0,0.0,0.0,0.0,0.0,0.0,0.0,0.0,0.0,0.0,0.0,0.0,0.0,0.0,0.0,0.0,0.0,0.0,0.0,0.0,0.0,0.0,0.0,0.0,0.0,0.0,0.0,0.0,0.0,0.0,0.0,0.0,0.0,0.0,0.0,0.0,0.0,0.0,0.0,0.0,0.0,0.0,0.0,0.0,0.0,0.0,0.0,0.0,0.0,0.0,0.0,0.0,0.0,0.0,0.0,0.0,0.0,0.0,0.0,0.0,0.0,0.0,0.0,0.0,0.0,0.0,0.0,0.0,0.0,0.0,0.0,0.0,0.0,0.0,0.0,0.0,0.0,0.0,0.0,0.0,0.0,0.0,0.0,0.0,0.0,0.0,0.0,0.0,0.0,0.0,0.0,0.0,0.0,0.0,0.0,0.0,0.0,0.0,0.0,0.0,0.0,0.0,0.0,0.0,0.0,0.0,0.0,0.0,0.0,0.0,0.0,0.0,0.0,0.0,0.0,0.0,0.0,0.0,0.0,0.0,0.0,0.0,0.0,0.0,0.0,0.0,0.0,0.0,0.0,0.0,0.0,0.0,0.0,0.0,0.0,0.0,0.0,0.0,0.0,0.0,0.0,0.0,0.0,0.0,0.0,0.0,0.0,0.0,0.0,0.0,0.0,0.0,0.0,0.0,0.0,0.0,0.0,0.0,0.0,0.0,0.0,0.0,0.0,0.0,0.0,0.0,0.0,0.0,0.0,0.0,0.0,0.0,0.0,0.0,0.0,0.0,0.0,0.0,0.0,0.0,0.0,0.0,0.0,0.0,0.0,0.0,0.0,0.0,0.0,0.0,0.0,0.0,0.0,0.0,0.0,0.0,0.0,0.0,0.0,0.0,0.0,0.0,0.0,0.0,0.0,0.0,0.0,0.0,0.0,0.0,0.0,0.0,0.0,0.0,0.0,0.0,0.0,0.0,0.0,0.0,0.0,0.0,0.0,0.0,0.0,0.0,0.0,0.0,0.0,0.0,0.0,0.0,0.0,0.0,0.0,0.0,0.0,0.0,0.0,0.0,0.0,0.0,0.0,0.0,0.0,0.0,0.0,0.0,0.0,0.0,0.0,0.0,0.0,0.0,0.0,0.0,0.0,0.0,0.0,0.0,0.0,0.0,0.0,0.0,0.0,0.0,0.0,0.0,0.0,0.0,0.0,0.0,0.0,0.0,0.0,0.0,0.0,0.0,0.0,0.0,0.0,0.0,0.0,0.0,0.0,0.0,0.0,0.0,0.0,0.0,0.0,0.0,0.0,0.0,0.0,0.0,0.0,0.0,0.0,0.0,0.0,0.0,0.0,0.0,0.0,0.0,0.0,0.0,0.0,0.0,0.0,0.0,1.5291,0.0,0.0,0.0,0.0,0.0,0.0,0.0,0.0,0.0,0.0,0.0,0.0,0.0,0.0,0.0,0.0,0.0,0.0,0.0,0.0,0.0,0.0,0.0,0.0,1.3288,1.3343,1.3059,1.3216,0.0,0.0,0.0,0.0,0.0,0.0,0.0,0.0,0.0,1.2537,1.3193,1.4008,1.4736,1.5364,1.5487,1.53,1.4912,0.0,0.0,0.0,0.0,0.0,0.0,0.0,0.0,0.0,0.0,0.0,0.0,0.0,0.0,0.0,0.0,0.0,0.0,0.0,0.0,0.0,0.0,0.0,0.0,0.0,0.0,0.0,0.0,0.0,0.0,0.0,0.0,0.0,0.0,0.0,0.0,0.0,0.0,0.0,0.0,0.0,0.0,0.0,0.0,0.0,0.0,0.0,0.0,0.0,0.0,0.0,0.0,0.0,0.0,0.0,0.0,0.0,0.0,0.0,0.0,0.0,0.0,0.0,0.0,0.0,0.0,0.0,0.0,0.0,0.0,0.0,1.4969,0.0,0.0,0.0,0.0,0.0,0.0,0.0,0.0,0.0,0.0,0.0,0.0,0.0,0.0,0.0,0.0,0.0,0.0,0.0,0.0,0.0,1.3062,1.2086,1.249,1.2534,1.1762,1.2173,1.2452,1.2244,1.2266,0.0,0.0,0.0,0.0,1.2004,1.2221,1.2902,1.3906,1.4562,1.5532,1.6963,1.7001,1.6613,1.5886,1.5772,0.0,0.0,0.0,0.0,0.0,0.0,0.0,0.0,0.0,0.0,0.0,0.0,0.0,0.0,0.0,0.0,0.0,0.0,0.0,0.0,0.0,0.0,0.0,0.0,0.0,0.0,0.0,0.0,0.0,0.0,0.0,0.0,0.0,0.0,0.0,0.0,0.0,0.0,0.0,0.0,0.0,0.0,0.0,0.0,0.0,0.0,0.0,0.0,0.0,0.0,0.0,0.0,0.0,0.0,0.0,0.0,0.0,0.0,0.0,0.0,0.0,0.0,0.0,1.5596,1.5552,1.4516,1.5444,1.5957,1.6086,1.4398,1.4579,1.5863,1.4458,0.0,0.0,0.0,0.0,0.0,0.0,0.0,0.0,0.0,0.0,0.0,0.0,0.0,0.0,0.0,0.0,0.0,0.0,0.0,1.1761,1.1132,1.1341,1.1382,1.1259,1.2008,1.2094,1.1168,1.1213,1.0846,0.99,1.0008,1.0116,1.0143,1.1277,1.2007,1.2491,1.4687,1.6335,1.7605,1.7794,1.7634,1.7152,1.6604,1.633,1.6254,0.0,0.0,0.0,0.0,0.0,0.0,0.0,0.0,0.0,0.0,0.0,0.0,0.0,0.0,0.0,0.0,0.0,0.0,0.0,0.0,0.0,0.0,0.0,0.0,0.0,0.0,0.0,0.0,0.0,0.0,0.0,0.0,0.0,0.0,0.0,0.0,0.0,0.0,0.0,0.0,0.0,1.3019,1.3206,0.0,0.0,0.0,0.0,0.0,0.0,0.0,0.0,0.0,0.0,0.0,0.0,0.0,1.4159,1.4107,1.5624,1.6449,1.6508,1.6721,1.6749,1.6699,1.5649,1.5134,1.5159,1.4933,0.0,1.6296,1.6125,0.0,0.0,0.0,0.0,0.0,0.0,0.0,0.0,0.0,0.0,0.0,0.0,0.0,0.0,0.0,0.0,0.0,0.0,0.0,0.0,0.0,1.1716,1.1925,1.0664,1.1719,1.1861,1.0568,1.0544,1.0315,0.9791,0.984,1.0196,1.094,1.1631,1.2862,1.4781,1.6854,1.8174,1.8777,1.9004,1.8938,1.8626,1.8239,1.7605,1.6821,1.6632,0.0,0.0,0.0,0.0,0.0,0.0,0.0,0.0,0.0,0.0,0.0,0.0,0.0,0.0,0.0,0.0,0.0,0.0,0.0,0.0,0.0,0.0,0.0,0.0,0.0,0.0,0.0,0.0,0.0,0.0,0.0,0.0,0.0,0.0,0.0,0.0,0.0,0.0,0.0,1.3165,1.3425,1.3912,1.3807,1.3701,0.0,0.0,0.0,0.0,0.0,0.0,0.0,0.0,0.0,1.4359,1.5432,1.5662,1.4773,1.6375,1.6892,1.6078,1.6078,1.6199,1.6199,1.5582,1.5277,1.5277,1.5277,1.5527,1.5878,1.5558,1.4948,1.4196,0.0,0.0,0.0,0.0,1.4196,1.4229,0.0,0.0,0.0,0.0,0.0,0.0,0.0,0.0,0.0,0.0,0.0,0.0,1.1154,1.2354,1.2594,1.0957,1.1813,1.1993,1.0856,1.0484,1.0297,1.021,1.0204,1.0832,1.2095,1.3061,1.4807,1.7557,1.8847,1.9533,1.9684,1.9902,1.9883,1.9675,1.9524,1.8758,1.7577,1.7473,1.7218,1.6859,0.0,0.0,0.0,0.0,0.0,0.0,0.0,0.0,0.0,0.0,0.0,0.0,0.0,0.0,0.0,0.0,0.0,0.0,0.0,0.0,0.0,0.0,0.0,0.0,0.0,0.0,0.0,0.0,0.0,0.0,0.0,0.0,0.0,0.0,0.0,0.0,0.0,1.3782,1.3977,1.4505,1.4416,1.4318,0.0,0.0,0.0,0.0,0.0,0.0,1.4521,1.4773,1.4935,1.4976,1.6389,1.6643,1.5447,1.6765,1.6862,1.5715,1.5715,1.574,1.5788,1.5788,1.5788,1.5788,1.5788,1.5764,1.5675,1.5139,1.483,1.4708,1.4708,1.4708,1.4708,1.4708,1.4708,1.4732,0.0,0.0,0.0,0.0,0.0,0.0,0.0,0.0,0.0,0.0,0.0,1.3312,1.2429,1.2649,1.2889,1.2961,1.2647,1.242,1.2413,1.1305,1.0704,1.0699,1.0699,1.1363,1.2847,1.5638,1.7859,1.9467,1.9692,1.9892,1.9911,2.011,2.01,1.9902,1.9892,1.9514,1.8853,1.8537,1.8163,1.7858,1.753,0.0,0.0,0.0,0.0,0.0,0.0,0.0,0.0,0.0,0.0,0.0,0.0,0.0,0.0,0.0,0.0,0.0,0.0,0.0,0.0,0.0,0.0,0.0,0.0,0.0,0.0,0.0,0.0,0.0,0.0,0.0,0.0,0.0,0.0,0.0,0.0,0.0,0.0,1.4935,1.4789,0.0,0.0,0.0,0.0,1.4911,1.5244,1.5447,1.5447,1.5463,1.5553,1.5715,1.582,1.591,1.5925,1.6016,1.6179,1.6259,1.6259,1.6357,1.6527,1.6527,1.6527,1.6527,1.6527,1.643,1.6219,1.5691,1.5472,1.5463,1.5463,1.5463,1.5463,1.5463,1.5463,1.5463,0.0,0.0,0.0,0.0,0.0,1.4755,1.4259,1.4339,1.4314,1.3686,1.3582,1.3612,1.361,1.4011,1.3877,1.3108,1.3004,1.2567,1.155,1.1159,1.09,1.0742,1.0737,1.1772,1.4194,1.7112,1.8967,1.9599,2.0081,2.0318,2.0327,2.0667,2.0715,2.0516,2.0516,2.0318,1.994,1.925,1.8843,1.8617,1.8343,1.7974,0.0,0.0,0.0,0.0,0.0,0.0,0.0,0.0,0.0,0.0,0.0,0.0,0.0,0.0,0.0,0.0,0.0,0.0,0.0,0.0,0.0,0.0,0.0,0.0,0.0,0.0,0.0,0.0,0.0,0.0,0.0,0.0,0.0,0.0,0.0,0.0,0.0,1.5114,1.5195,0.0,1.5382,1.5447,1.5536,1.565,1.578,1.5853,1.5853,1.5959,1.6048,1.6113,1.6227,1.6324,1.6389,1.6389,1.6479,1.6657,1.6657,1.6747,1.6925,1.6925,1.6925,1.6925,1.6925,1.6885,1.6812,1.6617,1.6276,1.5853,1.5853,1.5853,1.5845,1.5723,1.5683,1.5666,0.0,0.0,0.0,0.0,1.4802,1.478,1.4104,1.397,1.3944,1.4221,1.3964,1.4075,1.5077,1.4999,1.4575,1.3834,1.3474,1.2942,1.1854,1.1538,1.1275,1.1107,1.2042,1.3733,1.6223,1.8608,1.9921,2.0129,2.0544,2.0752,2.0762,2.1036,2.1093,2.0951,2.0875,2.0771,2.0601,1.9902,1.9524,1.9373,1.9099,1.8777,1.8418,0.0,0.0,0.0,0.0,0.0,0.0,0.0,0.0,0.0,0.0,0.0,0.0,0.0,0.0,0.0,0.0,0.0,0.0,0.0,0.0,0.0,0.0,0.0,0.0,0.0,0.0,0.0,0.0,0.0,0.0,0.0,0.0,0.0,0.0,1.4789,1.5065,1.5301,1.5545,1.574,1.5853,1.5918,1.5999,1.6121,1.6251,1.6232,1.6232,1.6479,1.6609,1.6665,1.6787,1.6877,1.6933,1.6942,1.6998,1.7032,1.7032,1.7177,1.7291,1.7291,1.7291,1.7291,1.7291,1.7291,1.7291,1.7291,1.7006,1.6568,1.6454,1.6332,1.6219,1.6162,1.6097,1.6016,0.0,0.0,0.0,1.4446,1.4316,1.4049,1.3501,1.3364,1.3915,1.5577,1.475,1.4731,1.666,1.5638,1.4854,1.5176,1.4035,1.3382,1.3521,1.2489,1.183,1.1824,1.4726,1.7068,1.8709,2.0089,2.0932,2.114,2.114,2.1149,2.1149,2.1159,2.1159,2.1159,2.0951,2.0866,2.0837,2.0431,2.0251,2.0214,1.9779,1.9486,1.924,0.0,0.0,0.0,0.0,0.0,0.0,0.0,0.0,0.0,0.0,0.0,0.0,0.0,0.0,0.0,0.0,0.0,0.0,0.0,0.0,0.0,0.0,0.0,0.0,0.0,0.0,0.0,0.0,0.0,0.0,0.0,0.0,0.0,1.4789,1.5195,1.5528,1.5536,1.5845,1.5974,1.599,1.6219,1.6324,1.6341,1.6665,1.6782,1.679,1.7039,1.721,1.7388,1.7396,1.7478,1.7648,1.7648,1.7656,1.7664,1.7664,1.7664,1.7672,1.7672,1.7672,1.7672,1.7672,1.7672,1.7672,1.7672,1.7672,1.7632,1.7266,1.6917,1.6633,1.6803,1.6755,1.6568,0.0,0.0,0.0,1.3678,1.3184,1.2387,1.1377,1.1848,1.2309,1.235,1.2848,1.3846,1.5506,1.4646,1.4067,1.4246,1.3132,1.2403,1.2437,1.219,1.2498,1.3512,1.6241,1.8018,1.8431,1.9743,2.0422,2.0478,2.0478,2.0563,2.0715,2.0866,2.1017,2.1178,2.1263,2.13,2.1291,2.1178,2.1045,2.0847,2.0119,1.9703,1.9495,0.0,0.0,0.0,0.0,0.0,0.0,0.0,0.0,0.0,0.0,0.0,0.0,0.0,0.0,0.0,0.0,0.0,0.0,0.0,0.0,0.0,0.0,0.0,0.0,0.0,0.0,0.0,0.0,0.0,0.0,0.0,1.574,1.574,1.5512,1.561,1.5796,1.6056,1.617,1.6341,1.6523,1.6588,1.6812,1.7071,1.7185,1.7299,1.7331,1.7469,1.7518,1.7567,1.7575,1.7656,1.7843,1.7843,1.7973,1.8233,1.8233,1.8298,1.8428,1.8428,1.8428,1.8428,1.8428,1.8428,1.8428,1.8428,1.8347,1.8184,1.7689,1.7437,1.7339,1.7266,1.712,1.6958,0.0,0.0,0.0,1.2757,1.1791,1.075,1.0272,1.012,1.0448,1.1607,1.1677,1.2319,1.4366,1.3566,1.2938,1.3058,1.2458,1.2085,1.214,1.2913,1.4103,1.5966,1.7684,1.8789,1.9275,1.9965,2.0355,2.0355,2.0355,2.0459,2.0667,2.079,2.096,2.1178,2.1291,2.1348,2.1348,2.1348,2.1225,2.0989,2.0497,2.0129,1.9845,1.976,1.9477,1.9089,1.8872,1.8607,1.8352,1.8191,0.0,0.0,0.0,0.0,0.0,0.0,0.0,0.0,0.0,0.0,0.0,0.0,0.0,0.0,0.0,0.0,0.0,0.0,0.0,0.0,0.0,0.0,0.0,0.0,1.6202,1.6284,1.6324,1.6202,1.6186,1.6397,1.6552,1.6722,1.6942,1.7031,1.7193,1.7469,1.7632,1.7794,1.7973,1.8054,1.8095,1.8095,1.8095,1.8144,1.8257,1.8257,1.8363,1.8566,1.8566,1.8623,1.8728,1.8728,1.868,1.8615,1.8615,1.8615,1.8615,1.8615,1.859,1.8533,0.0,0.0,0.0,0.0,1.7648,1.7559,1.2819,1.1364,1.0263,1.1491,1.0122,0.8962,0.9527,0.8379,0.8683,1.1907,1.0835,1.0665,1.3207,1.2489,1.1884,1.1998,1.2107,1.231,1.2611,1.4335,1.6306,1.8459,1.8971,1.9555,2.0492,2.0483,2.0483,2.0483,2.0554,2.0648,2.0837,2.0837,2.096,2.1168,2.1215,2.1215,2.1178,2.1244,2.1121,2.0885,2.0812,2.0558,2.0233,2.0053,1.9741,1.9373,1.9071,1.8742,1.8413,1.7927,0.0,0.0,0.0,0.0,0.0,0.0,0.0,0.0,0.0,0.0,0.0,0.0,0.0,0.0,0.0,0.0,0.0,0.0,0.0,0.0,0.0,0.0,0.0,0.0,1.6657,1.6795,1.7153,1.6893,1.6674,1.6674,1.695,1.7145,1.7145,1.7331,1.7518,1.7689,1.8014,1.829,1.8476,1.8639,0.0,0.0,0.0,1.8761,1.8785,1.8801,1.8826,1.8842,1.8826,1.8818,1.8809,1.8793,1.8696,1.8541,1.8541,1.8541,1.8541,1.8541,1.8639,1.8777,1.8736,1.8525,1.8233,1.8233,1.8233,1.8233,0.9826,0.8749,0.7824,0.873,0.7781,0.6878,0.6971,0.7287,0.789,0.8925,0.9488,1.0356,1.1988,1.2069,1.2004,1.2123,1.2156,1.265,1.3895,1.6341,1.8005,1.8459,1.9777,2.0491,2.0699,2.0781,2.0781,2.0781,2.062,2.0648,2.0837,2.0837,2.096,2.1187,2.1518,2.1489,2.1206,2.1707,2.1603,2.1121,2.0816,2.063,2.0478,2.044,2.0261,1.9928,1.9364,1.8971,1.877,1.8251,1.7949,1.7825,1.7891,1.755,0.0,0.0,0.0,0.0,0.0,0.0,0.0,0.0,0.0,0.0,0.0,0.0,0.0,0.0,0.0,0.0,0.0,0.0,0.0,1.7023,1.7136,1.7356,1.7713,1.7453,1.7234,1.7234,1.7291,1.7331,1.7331,1.7624,1.7884,1.8062,1.8273,1.8476,1.8663,1.8704,1.8728,1.8728,1.8858,1.9004,1.9151,1.9289,1.9435,1.9581,1.9435,0.0,1.9354,1.9216,1.9134,1.9102,1.9102,1.9102,1.9102,1.9102,1.9126,1.9126,1.8842,1.868,1.8623,1.8623,1.8623,1.8623,0.6917,0.6396,0.6227,0.7465,0.6553,0.5805,0.6196,0.6275,0.6698,0.8015,0.8222,0.9043,1.0846,1.1095,1.1506,1.2156,1.289,1.3963,1.537,1.7476,1.8834,1.9365,2.0178,2.0592,2.0384,2.0478,2.0526,2.0526,2.0535,2.0648,2.0837,2.0837,2.0767,2.0797,2.1002,2.089,2.0454,2.0955,2.0937,2.0497,2.0499,2.0346,2.0161,2.0053,1.9779,1.9417,1.9043,1.8819,1.8492,1.8052,1.7751,1.7519,1.7451,1.7094,1.6414,0.0,0.0,0.0,0.0,0.0,0.0,0.0,0.0,0.0,0.0,0.0,0.0,0.0,0.0,1.6967,1.5903,0.0,1.7413,1.7502,1.7591,1.7778,1.8135,1.7949,1.7746,1.7664,1.7575,1.751,1.751,1.7762,1.7989,1.816,1.8428,1.8704,1.898,1.9069,1.9159,1.9256,1.9337,1.9475,1.9662,1.9654,1.9743,1.9914,1.9646,1.9516,1.9508,1.9337,1.9207,1.9118,1.9118,1.9118,1.9126,1.9224,1.9256,1.924,1.9061,1.8996,1.8996,1.8996,1.8996,1.8996,0.4758,0.4812,0.524,0.6525,0.5755,0.5254,0.5962,0.5414,0.5658,0.7576,0.737,0.772,0.9657,1.0081,1.0601,1.1836,1.3423,1.4992,1.643,1.7933,1.9097,1.9888,2.0116,2.0051,1.9724,1.9911,2.0014,2.0014,2.0228,2.0405,2.0564,2.061,2.0437,2.0223,2.0304,2.0091,1.9648,2.0105,2.0036,1.9783,1.9906,1.9889,1.9689,1.9283,1.9071,1.8882,1.8757,1.8548,1.8183,1.767,1.7371,1.7074,1.6387,1.6027,1.5462,1.316,1.2466,0.0,0.0,0.0,0.0,0.0,0.0,0.0,0.0,1.4654,1.4606,1.4991,1.6423,1.7203,1.555,1.6566,1.7689,1.7973,1.7989,1.8095,1.8452,1.8314,1.816,1.8127,1.79,1.7762,1.7794,1.803,1.8249,1.842,1.8712,1.9004,1.9297,1.941,1.9549,1.9727,1.9768,1.9882,2.0068,1.9914,1.9914,2.0147,1.9687,1.9516,1.9508,1.9337,1.9175,1.9037,1.9037,1.9037,1.9045,1.9199,1.9256,1.9256,1.9256,1.9256,1.9256,1.9256,1.9256,1.9256,0.4812,0.4767,0.4864,0.5077,0.5062,0.5022,0.51,0.51,0.5484,0.667,0.6913,0.7439,0.8761,0.9039,0.9556,1.0693,1.2829,1.4566,1.5639,1.764,1.8857,1.8973,1.8991,1.8982,1.8938,1.9142,1.9239,1.9239,1.9426,1.9532,1.9559,1.9736,1.9834,1.9776,2.012,1.9894,1.9472,2.0202,2.0105,1.949,1.9372,1.9219,1.8955,1.8541,1.8862,1.9551,1.8918,1.8649,1.8564,1.7697,1.7404,1.7024,1.5223,1.4675,1.3879,1.0378,0.9382,0.894,0.6815,0.7755,0.9772,1.1587,1.2102,1.3139,0.0,1.6044,1.5308,1.7342,1.778,1.7832,1.7776,1.8123,1.8347,1.8387,1.8257,1.8273,1.8639,1.8395,1.8347,1.8809,1.842,1.8176,1.8347,1.8818,1.9183,1.9345,1.9402,1.9443,1.9484,1.9362,1.937,1.954,1.9703,1.9882,2.0068,2.0044,2.0044,2.006,1.9687,1.9516,1.9508,1.9337,1.9248,1.9224,1.9224,1.9224,1.9232,1.9248,1.9256,1.9256,1.9256,1.9256,1.9256,1.9256,1.9256,1.9256,0.4777,0.482,0.4788,0.4927,0.4984,0.5022,0.5022,0.5022,0.5232,0.5788,0.5894,0.6453,0.7629,0.8521,0.9183,0.9644,1.1367,1.2587,1.3093,1.4591,1.5416,1.5416,1.5416,1.5416,1.5416,1.5665,1.6301,1.7504,1.6457,1.7243,1.9625,1.8447,1.8404,1.9372,1.9535,1.9381,1.8913,1.9333,1.9238,1.8867,1.756,1.6962,1.6698,1.5187,1.4872,1.5414,1.6295,1.6512,0.0,1.4692,1.4081,1.3894,1.3078,1.2768,1.226,0.9529,0.8825,0.895,0.93,1.0055,1.0942,1.1776,1.2963,1.3963,1.4493,1.4899,1.5788,1.7922,1.8363,1.7994,1.6721,1.651,1.6292,1.5208,1.5916,1.6283,1.542,1.6251,1.6926,1.7319,1.7147,1.7472,1.8826,1.9126,1.9289,1.9362,1.9362,1.941,1.9508,1.9443,1.954,1.9825,1.9914,2.0133,2.0523,2.032,2.032,2.0523,2.0052,1.9833,1.9825,1.9646,1.9565,1.9565,1.9565,1.9565,1.9565,1.9565,1.9565,1.9565,1.9565,1.9565,1.954,1.9337,1.9256,1.9256,0.4818,0.479,0.4845,0.4924,0.497,0.5003,0.5019,0.5022,0.5057,0.5164,0.5232,0.5588,0.6464,0.7506,0.8247,0.8512,0.9732,1.0723,1.1053,1.208,1.2706,1.2741,1.2621,1.2597,1.2597,1.2776,1.3567,1.5046,1.379,1.4665,1.7616,1.6068,1.6024,1.7291,1.7383,1.7185,1.6737,1.6951,1.6958,1.673,1.5221,1.4495,1.4355,1.2739,1.2123,1.2278,1.3759,1.4219,1.3914,1.239,1.1819,1.165,1.1063,1.0943,1.0535,0.8632,0.8043,0.8444,1.0031,1.0904,1.1278,1.1345,1.2839,1.4052,1.2623,1.3905,1.5676,1.659,1.7303,1.7039,1.493,1.4527,1.4075,1.2869,1.375,1.4201,1.2974,1.4135,1.5055,1.5148,1.5308,1.5903,1.7558,1.8728,1.9427,1.9475,1.9435,1.9484,1.9654,1.9613,1.9735,2.006,2.0068,2.0271,2.0702,2.0401,2.0377,2.0629,2.0198,1.9987,1.9987,1.9849,1.9792,1.9792,1.9792,1.9792,1.9792,1.9792,1.9792,1.9792,1.9792,1.976,1.9678,1.9427,1.9329,1.9321,0.4818,0.4832,0.4796,0.4916,0.4937,0.4957,0.5011,0.5022,0.5044,0.5106,0.5166,0.5275,0.5543,0.5673,0.6216,0.7266,0.8328,0.9447,1.0478,1.131,1.1841,1.1949,1.1754,1.1603,1.1603,1.1609,1.17,1.17,1.1906,1.2058,1.2162,1.23,1.2319,1.2431,1.2661,1.2634,1.2436,1.277,1.2762,1.235,1.2472,1.2349,1.2145,1.2145,1.2069,1.2091,1.2227,1.2314,1.2292,1.2078,1.2021,1.1709,0.9612,0.8984,0.8672,0.6849,0.6196,0.6149,0.6421,0.7818,0.9254,0.9338,1.094,1.2396,1.2299,1.3855,1.4756,1.2864,1.4038,1.4734,1.2993,1.2661,1.2661,1.2814,1.2846,1.2703,1.2596,1.2682,1.2857,1.2962,1.3165,1.3357,1.3679,1.7398,1.9849,2.0028,1.9873,1.9857,2.0036,1.9882,1.9865,2.006,2.0068,2.015,2.0336,2.0166,2.0076,2.0085,1.989,1.98,1.98,1.9792,1.9792,1.9792,1.9792,1.9792,1.9792,1.9792,1.9792,1.9792,1.9792,1.9678,1.9516,1.9508,1.95,1.9484,0.4826,0.4788,0.4828,0.4793,0.4834,0.4957,0.5011,0.5022,0.5027,0.5049,0.5139,0.0,0.0,0.0,0.0,0.0,0.6538,0.6977,0.735,0.7653,0.7863,0.7888,0.7917,0.7931,0.7931,0.7885,0.8567,0.9969,0.8688,0.9483,1.2205,1.0782,1.095,1.2439,1.2444,1.2439,1.2439,1.2541,1.2469,1.2164,1.0797,1.0194,0.9964,0.859,0.8087,0.8076,0.0,0.894,0.9835,0.8546,0.8138,0.8114,0.7369,0.72,0.7122,0.6443,0.6164,0.6375,0.7825,0.8645,0.915,0.9177,1.0748,1.1945,1.0727,1.2097,1.3378,1.2815,1.3268,1.3071,1.1077,1.0627,1.0223,0.8895,0.9839,1.017,0.8799,0.9885,1.0857,1.0963,1.1136,1.1763,1.3187,1.6139,1.7342,1.5923,1.8403,1.9371,1.7967,1.9057,1.9873,2.006,2.0068,2.0206,2.0499,2.0328,2.0296,2.0418,2.0231,2.0141,2.0141,2.0141,2.0076,1.9971,1.9971,1.9906,1.9792,1.9792,1.9792,1.9792,1.9792,1.9752,1.9678,1.9557,1.9516,1.9484,0.4796,0.4755,0.4788,0.4809,0.4845,0.0,0.0,0.0,0.0,0.0,0.0,0.0,0.0,0.0,0.0,0.0,0.0,0.5711,0.5793,0.5837,0.5878,0.5921,0.5959,0.597,0.5948,0.6006,0.6679,0.7957,0.6704,0.7409,1.0117,0.8695,0.8833,1.0253,1.023,1.0212,1.0199,1.014,1.0113,1.0013,0.8504,0.7924,0.7851,0.6494,0.6,0.0,0.6046,0.687,0.767,0.6597,0.6204,0.6262,0.63,0.6311,0.6303,0.6259,0.6191,0.6424,0.7807,0.8071,0.8053,0.8131,0.914,0.987,0.8712,1.0042,1.1376,1.0749,1.123,1.1049,0.8967,0.8514,0.8103,0.6794,0.7677,0.8147,0.665,0.7728,0.8696,0.8799,0.8915,0.9495,1.0796,1.3079,1.4184,1.3515,1.6048,1.7369,1.6795,1.8063,1.9197,2.015,2.0158,2.0271,2.0491,2.0377,2.0377,2.0499,2.0312,2.0231,2.0231,2.0158,2.0068,1.9971,1.9971,1.9898,1.9792,1.9792,1.9792,1.9792,1.9792,1.9752,1.9678,1.9557,1.9475,1.941,0.467,0.467,0.476,0.0,0.0,0.0,0.0,0.0,0.0,0.0,0.0,0.0,0.0,0.0,0.0,0.0,0.0,0.0,0.5719,0.5733,0.5788,0.5905,0.5916,0.5891,0.5834,0.5891,0.5894,0.5837,0.5951,0.6008,0.6011,0.6123,0.6145,0.609,0.6145,0.6109,0.6003,0.6,0.6,0.5995,0.594,0.5954,0.6006,0.6006,0.597,0.5929,0.5989,0.5877,0.5864,0.6188,0.6308,0.6363,0.6363,0.6363,0.6338,0.6224,0.6185,0.6185,0.6188,0.6185,0.6199,0.6259,0.6319,0.6363,0.6365,0.8001,0.8955,0.6959,0.81,0.8795,0.6837,0.651,0.6491,0.6556,0.6608,0.6621,0.657,0.6608,0.664,0.664,0.6695,0.673,0.673,0.8675,1.0791,1.2782,1.3193,1.4284,1.6407,1.663,1.7789,2.0007,2.0111,2.0216,2.032,2.032,2.032,2.032,2.015,2.0068,2.006,1.9873,1.9784,1.9776,1.9776,1.9768,1.976,1.976,1.976,1.976,1.976,1.9654,1.95,1.95,1.9402,1.9256,0.0,0.0,0.0,0.0,0.0,0.0,0.0,0.0,0.0,0.0,0.0,0.0,0.0,0.0,0.0,0.0,0.0,0.0,0.5542,0.5624,0.5687,0.5717,0.5807,0.5848,0.5831,0.5891,0.5916,0.5899,0.5929,0.5946,0.5946,0.5976,0.5981,0.5965,0.5935,0.5905,0.5875,0.5828,0.5809,0.5812,0.5842,0.5864,0.5878,0.5878,0.5897,0.5831,0.5567,0.5379,0.5474,0.5952,0.615,0.6234,0.6234,0.6234,0.6132,0.5715,0.5582,0.5559,0.5601,0.5582,0.5658,0.61,0.6224,0.6245,0.6292,0.6841,0.7087,0.6492,0.6915,0.7178,0.6694,0.6602,0.6627,0.6733,0.6725,0.6698,0.6684,0.6695,0.6703,0.6703,0.6758,0.6796,0.6796,0.7337,0.7868,0.8378,1.1638,1.3016,1.1988,1.3575,1.5469,1.7685,1.7789,1.8626,2.032,2.032,2.032,2.032,2.015,2.0068,2.006,1.9873,1.9711,1.9581,1.9581,1.9508,1.9394,1.9394,1.9394,1.9394,1.9394,1.9362,1.9321,1.9321,1.9297,1.9256,0.0,0.0,0.0,0.0,0.0,0.0,0.0,0.0,0.0,0.0,0.0,0.0,0.0,0.0,0.0,0.0,0.0,0.0,0.0,0.5537,0.5583,0.5695,0.57,0.5739,0.5714,0.5798,0.5818,0.5763,0.5845,0.5869,0.5845,0.5897,0.5907,0.588,0.5848,0.5818,0.579,0.5755,0.5755,0.0,0.0,0.5807,0.5831,0.5831,0.5869,0.5829,0.5367,0.518,0.5184,0.5311,0.5707,0.6218,0.6166,0.6166,0.6078,0.5525,0.5308,0.5306,0.5313,0.5308,0.5405,0.6008,0.615,0.6213,0.63,0.6346,0.6384,0.6135,0.6354,0.6496,0.6306,0.6431,0.6668,0.6763,0.6749,0.6728,0.6728,0.6728,0.6736,0.6763,0.6796,0.6818,0.6818,0.6818,0.6818,0.6818,0.9144,1.0517,1.0196,1.1359,1.3153,1.5364,1.5469,1.6525,1.8843,1.8843,1.9268,2.032,2.0068,1.9946,1.9938,1.9678,1.95,1.9402,1.9402,1.9345,1.9256,1.9256,1.9256,1.9256,1.9256,1.9256,1.9256,1.9256,1.9256,1.9256,0.0,0.0,0.0,0.0,0.0,0.0,0.0,0.0,0.0,0.5022,0.5022,0.5044,0.0,0.0,0.0,0.0,0.0,0.0,0.0,0.0,0.5496,0.5545,0.5692,0.5701,0.5561,0.567,0.5679,0.5572,0.5739,0.5793,0.5744,0.585,0.5867,0.5807,0.5708,0.5676,0.5538,0.553,0.5562,0.561,0.5478,0.5581,0.5628,0.0,0.5678,0.5739,0.5282,0.5099,0.5004,0.4444,0.5119,0.6129,0.6033,0.6033,0.5942,0.5325,0.5125,0.5146,0.5009,0.5127,0.5354,0.5826,0.6096,0.6207,0.6319,0.6352,0.629,0.5893,0.6086,0.6293,0.5886,0.6218,0.6553,0.6612,0.6628,0.6739,0.6739,0.6739,0.6758,0.6812,0.6818,0.6818,0.6818,0.6818,0.6818,0.6818,0.6818,0.7662,0.9666,0.9772,1.083,1.3048,1.3469,1.4522,1.642,1.642,1.758,1.979,1.9545,1.9479,1.9776,1.9419,1.9256,1.9256,1.9256,1.9256,1.9256,1.9256,1.9256,1.9256,1.9256,1.9256,1.9256,1.9256,1.9256,1.9256,0.0,0.0,0.0,0.0,0.0,0.0,0.0,0.0,0.0,0.0,0.5022,0.5044,0.0,0.0,0.0,0.0,0.0,0.0,0.0,0.0,0.0,0.5491,0.5545,0.557,0.5559,0.563,0.5657,0.5723,0.5717,0.5752,0.5741,0.5763,0.5741,0.5679,0.5281,0.4993,0.4893,0.45,0.4424,0.4385,0.4417,0.4434,0.4444,0.4574,0.4917,0.0,0.4763,0.4589,0.4583,0.3991,0.4487,0.5401,0.5425,0.541,0.5282,0.4783,0.457,0.4453,0.4074,0.4287,0.4789,0.5261,0.5779,0.6131,0.6204,0.6259,0.6316,0.6287,0.6029,0.5772,0.5733,0.5884,0.5932,0.5986,0.6454,0.6801,0.6801,0.6801,0.6807,0.6818,0.6818,0.6818,0.6818,0.6818,0.6818,0.6818,0.6818,0.6924,0.7346,0.7346,0.8402,1.0725,1.2626,1.3785,1.4207,1.4207,1.5258,1.7468,1.716,1.7938,1.9776,1.9419,1.9256,1.9256,1.9256,0.0,1.9256,1.9256,1.9256,1.9256,1.9256,1.9256,1.9256,1.9256,1.9256,1.9256,0.0,0.0,0.0,0.0,0.0,0.0,0.0,0.5003,0.5022,0.5022,0.5022,0.5033,0.506,0.5147,0.5215,0.0,0.0,0.0,0.0,0.0,0.0,0.5428,0.5485,0.5515,0.5515,0.5572,0.5589,0.5559,0.0,0.5632,0.5602,0.5371,0.5281,0.5255,0.4792,0.4533,0.4558,0.4272,0.4201,0.4244,0.4267,0.4275,0.4277,0.4299,0.4363,0.0,0.4213,0.4132,0.4033,0.3529,0.3819,0.451,0.4789,0.4959,0.5027,0.4259,0.4224,0.4282,0.3736,0.4054,0.4661,0.5125,0.5677,0.6073,0.5966,0.5912,0.5757,0.5338,0.5251,0.5163,0.4904,0.5155,0.5514,0.5881,0.6145,0.6501,0.6711,0.6818,0.6818,0.6818,0.6818,0.6818,0.6818,0.6818,0.6818,0.6818,0.6818,0.6818,0.6818,0.6818,0.7346,0.8402,0.9462,1.0623,1.1781,1.1781,1.2911,1.5155,1.485,1.5329,1.6368,1.7256,1.765,1.765,1.8853,1.9256,1.9256,1.9256,1.9256,1.9256,1.9256,1.9256,1.9256,1.9256,1.9256,1.9256,0.0,0.0,0.0,0.0,0.0,0.0,0.5014,0.5022,0.5022,0.5022,0.5033,0.5041,0.5041,0.5136,0.5207,0.0,0.0,0.0,0.0,0.0,0.0,0.0,0.5431,0.5455,0.5455,0.0,0.0,0.5474,0.5531,0.0,0.0,0.0,0.0,0.0,0.4336,0.4096,0.4138,0.405,0.3987,0.0,0.0,0.4038,0.404,0.0,0.0,0.0,0.0,0.376,0.3742,0.3155,0.3349,0.3837,0.4002,0.4457,0.4726,0.3862,0.391,0.405,0.3592,0.3912,0.4434,0.4821,0.5488,0.5914,0.5547,0.5474,0.53,0.4475,0.4466,0.4554,0.4179,0.4532,0.4992,0.5448,0.5823,0.6177,0.6589,0.6703,0.6812,0.6799,0.6703,0.6605,0.6605,0.6498,0.6498,0.6605,0.6711,0.6818,0.6818,0.6818,0.6818,0.6818,0.6818,0.7662,0.9458,0.9458,1.0572,1.2771,1.2549,1.2737,1.3127,1.4713,1.5453,1.5552,1.7154,1.816,1.8457,1.8457,1.8762,1.9157,1.9157,1.9157,1.9256,1.9256,1.9256,1.9157,0.0,0.0,0.0,0.0,0.0,0.0,0.5019,0.5022,0.5022,0.5022,0.5068,0.5104,0.5104,0.5164,0.5226,0.0,0.0,0.0,0.0,0.0,0.0,0.0,0.0,0.0,0.0,0.0,0.0,0.5474,0.5531,0.0,0.0,0.0,0.0,0.0,0.0,0.3535,0.3571,0.3136,0.0,0.0,0.0,0.0,0.0,0.0,0.0,0.0,0.0,0.3766,0.3615,0.3147,0.3334,0.362,0.3276,0.3472,0.3847,0.375,0.3697,0.3542,0.3061,0.3349,0.376,0.3923,0.4734,0.5387,0.4947,0.5275,0.539,0.4843,0.4345,0.404,0.4043,0.4103,0.4258,0.4365,0.527,0.5952,0.601,0.6467,0.6799,0.6741,0.6361,0.6075,0.6075,0.5541,0.5434,0.6075,0.6498,0.6818,0.6818,0.6818,0.6818,0.6818,0.6818,0.6924,0.7134,0.7134,0.8259,1.037,1.0178,1.1209,1.3127,1.3212,1.3156,1.3256,1.3362,1.4358,0.0,1.5658,1.6857,1.8556,1.8556,1.8853,1.9256,1.9256,1.896,1.8556,0.0,0.0,0.0,0.0,0.0,0.0,0.5022,0.5022,0.5022,0.5022,0.5074,0.5125,0.5164,0.5221,0.5267,0.5292,0.0,0.0,0.0,0.0,0.0,0.0,0.0,0.0,0.0,0.0,0.542,0.542,0.5444,0.0,0.0,0.0,0.0,0.0,0.0,0.2983,0.3015,0.2843,0.0,0.0,0.0,0.0,0.0,0.0,0.0,0.0,0.0,0.0,0.3238,0.3053,0.3133,0.3222,0.3107,0.3115,0.3289,0.3289,0.3427,0.3456,0.3062,0.3271,0.3692,0.3747,0.4395,0.4874,0.4363,0.4498,0.4521,0.3934,0.3635,0.3534,0.3534,0.3587,0.3736,0.4152,0.4637,0.5109,0.5408,0.5955,0.6172,0.5832,0.5848,0.5862,0.5543,0.5221,0.5221,0.5434,0.5647,0.5754,0.5754,0.6392,0.6818,0.6818,0.6818,0.6818,0.6818,0.6782,0.7065,0.7561,0.7493,0.7626,0.8161,0.9447,1.0008,1.0053,1.1354,1.2253,0.0,1.2852,1.355,1.4744,1.5744,1.6453,1.6963,1.7962,1.8168,1.8061,0.0,0.0,0.0,0.0,0.0,0.5022,0.5022,0.5022,0.5022,0.5022,0.509,0.5155,0.5196,0.5273,0.5319,0.5319,0.536,0.0,0.0,0.0,0.0,0.0,0.0,0.0,0.0,0.0,0.5384,0.5384,0.5384,0.5384,0.0,0.0,0.4036,0.3952,0.0,0.0,0.0,0.0,0.0,0.0,0.0,0.0,0.0,0.0,0.0,0.0,0.0,0.0,0.0,0.0,0.0,0.2928,0.3002,0.3022,0.3024,0.3041,0.3178,0.3386,0.3007,0.3206,0.3518,0.3585,0.4043,0.4318,0.3786,0.3819,0.3836,0.3332,0.323,0.323,0.323,0.328,0.3425,0.3841,0.4108,0.4471,0.4778,0.5319,0.5536,0.5097,0.5426,0.5543,0.4902,0.4902,0.4902,0.4902,0.5009,0.5115,0.5115,0.586,0.6286,0.6286,0.6498,0.6498,0.6286,0.623,0.5993,0.5678,0.5627,0.5377,0.4931,0.6462,0.7152,0.7205,0.8694,0.9589,0.0,1.0062,1.0649,1.1749,1.2846,1.3649,1.4259,1.6056,1.6665,1.6566,0.0,0.0,0.0,0.0,0.0,0.0,0.5022,0.5022,0.5022,0.5022,0.5125,0.5202,0.5202,0.5311,0.5384,0.5384,0.5384,0.0,0.0,0.0,0.0,0.0,0.0,0.0,0.0,0.0,0.5384,0.5384,0.5384,0.5384,0.5384,0.4456,0.4036,0.3952,0.0,0.0,0.0,0.0,0.0,0.0,0.0,0.0,0.2881,0.0,0.0,0.0,0.0,0.0,0.0,0.0,0.0,0.0,0.0,0.3003,0.3063,0.3123,0.3055,0.2968,0.2998,0.2961,0.2945,0.3066,0.3483,0.3801,0.3309,0.3635,0.3836,0.3332,0.323,0.323,0.323,0.328,0.3321,0.3321,0.3898,0.4249,0.4214,0.4771,0.5099,0.5054,0.5086,0.4902,0.4368,0.4261,0.4261,0.4261,0.4796,0.5115,0.5115,0.5115,0.5115,0.5115,0.565,0.5756,0.5115,0.507,0.5048,0.5046,0.5001,0.4978,0.4874,0.4874,0.4978,0.4974,0.4929,0.5825,0.0,0.7282,0.8453,1.0449,1.0549,1.0849,1.1544,1.3749,1.4153,1.4059,0.0,0.0,0.0,0.0,0.0,0.0,0.5022,0.5022,0.5022,0.5022,0.5128,0.5202,0.5202,0.5311,0.5384,0.5384,0.5384,0.0,0.0,0.0,0.0,0.0,0.0,0.0,0.0,0.5384,0.5384,0.5384,0.5384,0.5363,0.5322,0.4738,0.4222,0.3946,0.3288,0.2878,0.0,0.0,0.0,0.0,0.0,0.2803,0.2821,0.0,0.0,0.0,0.0,0.0,0.0,0.0,0.0,0.0,0.0,0.0,0.0,0.3119,0.3086,0.3025,0.3035,0.3024,0.3024,0.3082,0.3226,0.3365,0.3195,0.3318,0.3433,0.323,0.323,0.323,0.323,0.328,0.3321,0.3321,0.3477,0.3728,0.3611,0.4128,0.4336,0.3926,0.3937,0.3837,0.373,0.373,0.373,0.373,0.3837,0.3944,0.3944,0.437,0.4687,0.5115,0.5328,0.5328,0.5115,0.507,0.4851,0.4561,0.4522,0.4295,0.3876,0.3876,0.3862,0.3838,0.3827,0.4132,0.4539,0.4498,0.5191,0.6202,0.7267,0.8052,0.8754,1.0558,1.1159,1.1059,0.0,0.0,0.0,0.0,0.0,0.0,0.5022,0.5022,0.5022,0.5022,0.5128,0.5202,0.5202,0.5311,0.5384,0.5384,0.5384,0.0,0.0,0.0,0.0,0.0,0.0,0.0,0.5384,0.5384,0.5384,0.5384,0.5363,0.533,0.5292,0.4612,0.4175,0.3905,0.3253,0.2852,0.0,0.0,0.0,0.0,0.2758,0.2773,0.2792,0.0,0.0,0.0,0.0,0.0,0.0,0.0,0.0,0.0,0.0,0.0,0.0,0.0,0.3107,0.3101,0.3089,0.307,0.3062,0.3104,0.3152,0.3191,0.3201,0.3217,0.323,0.323,0.323,0.323,0.323,0.328,0.3321,0.3321,0.3371,0.3408,0.3396,0.3695,0.3901,0.3711,0.3512,0.3517,0.373,0.3517,0.3412,0.3412,0.3412,0.3412,0.3412,0.373,0.4157,0.4476,0.4689,0.4689,0.4476,0.4437,0.4226,0.3942,0.3909,0.3689,0.3384,0.3384,0.3373,0.3355,0.3343,0.3339,0.0,0.3306,0.3498,0.3908,0.4902,0.5489,0.5979,0.7793,0.8482,0.8554,0.0,0.0,0.0,0.0,0.0,0.0,0.0,0.5022,0.5022,0.5022,0.5128,0.5202,0.5202,0.5311,0.5384,0.5384,0.0,0.0,0.0,0.0,0.0,0.0,0.0,0.0,0.5379,0.5379,0.5376,0.5371,0.5313,0.5286,0.5198,0.4327,0.3897,0.3813,0.3004,0.2616,0.0,0.0,0.0,0.0,0.2735,0.2752,0.0,0.0,0.0,0.0,0.0,0.0,0.0,0.0,0.0,0.0,0.0,0.0,0.0,0.0,0.0,0.0,0.0,0.3103,0.3076,0.3131,0.3168,0.3198,0.3224,0.323,0.0,0.323,0.323,0.323,0.323,0.328,0.3321,0.3321,0.3371,0.3401,0.337,0.3366,0.3578,0.4103,0.3711,0.3624,0.4155,0.373,0.3412,0.3412,0.3412,0.3412,0.3412,0.3412,0.3412,0.3412,0.3944,0.3944,0.3412,0.3384,0.3384,0.3411,0.3384,0.3385,0.3412,0.3412,0.3412,0.0,0.3382,0.337,0.3367,0.3337,0.3324,0.3324,0.3322,0.3303,0.3586,0.5524,0.6205,0.6461,0.0,0.0,0.0,0.0,0.0,0.0,0.0,0.0,0.0,0.0,0.5128,0.5202,0.5202,0.5311,0.5384,0.0,0.0,0.0,0.0,0.0,0.0,0.0,0.0,0.0,0.5316,0.5316,0.5127,0.4752,0.5068,0.4875,0.427,0.4339,0.3993,0.3247,0.3117,0.2921,0.0,0.0,0.0,0.0,0.2703,0.2721,0.0,0.0,0.0,0.0,0.2932,0.2961,0.0,0.0,0.0,0.0,0.0,0.0,0.0,0.0,0.3084,0.3122,0.3138,0.0,0.316,0.3174,0.32,0.3223,0.0,0.323,0.323,0.323,0.323,0.323,0.323,0.328,0.3321,0.3321,0.3371,0.3401,0.337,0.3366,0.3471,0.3578,0.3499,0.3411,0.3624,0.3517,0.3412,0.3412,0.3412,0.3412,0.3412,0.3412,0.3412,0.3412,0.3517,0.3517,0.3412,0.3405,0.3405,0.3412,0.3404,0.3405,0.3412,0.3412,0.3412,0.3411,0.3404,0.3401,0.3399,0.3369,0.3355,0.3354,0.333,0.3317,0.331,0.3825,0.4027,0.4122,0.0,0.0,0.0,0.0,0.0,0.0,0.0,0.0,0.0,0.0,0.5145,0.5213,0.524,0.533,0.0,0.0,0.0,0.0,0.0,0.0,0.0,0.0,0.0,0.5244,0.5044,0.5018,0.4744,0.4309,0.4529,0.4342,0.3915,0.3894,0.3565,0.3168,0.2982,0.278,0.0,0.0,0.0,0.2692,0.2692,0.0,0.0,0.0,0.0,0.0,0.2883,0.2909,0.0,0.2902,0.2908,0.2916,0.0,0.0,0.0,0.0,0.3084,0.3125,0.3156,0.3165,0.3167,0.3167,0.3189,0.3215,0.3227,0.323,0.323,0.323,0.323,0.3234,0.3249,0.3279,0.331,0.3337,0.3358,0.3365,0.3348,0.3358,0.3366,0.3366,0.3393,0.3412,0.3412,0.3412,0.3412,0.3412,0.3412,0.3412,0.3412,0.3412,0.3412,0.3412,0.3412,0.3412,0.3412,0.3412,0.3412,0.3412,0.3412,0.3412,0.3412,0.3412,0.3412,0.3412,0.3412,0.3412,0.3411,0.3395,0.3388,0.3385,0.3369,0.3354,0.3341,0.3341,0.3333,0.3321,0.0,0.0,0.0,0.0,0.0,0.0,0.0,0.0,0.0,0.0,0.0,0.0,0.0,0.0,0.0,0.0,0.0,0.0,0.0,0.0,0.0,0.0,0.5252,0.5054,0.4714,0.4586,0.4234,0.3823,0.3866,0.3848,0.3685,0.3331,0.3097,0.3055,0.2788,0.2566,0.2656,0.0,0.2692,0.2692,0.2692,0.0,0.0,0.0,0.0,0.0,0.0,0.0,0.0,0.2867,0.287,0.2874,0.2874,0.0,0.0,0.0,0.0,0.0,0.3172,0.3163,0.3145,0.3155,0.3172,0.3197,0.323,0.3234,0.323,0.323,0.323,0.3238,0.3264,0.3276,0.3299,0.3351,0.3337,0.3321,0.3321,0.3343,0.3362,0.3366,0.3393,0.3412,0.3412,0.3412,0.3412,0.3412,0.3412,0.3412,0.3412,0.3412,0.3412,0.3412,0.3412,0.3412,0.3412,0.3412,0.3412,0.3412,0.3412,0.3412,0.3412,0.3412,0.3412,0.3412,0.3412,0.0,0.3412,0.3412,0.3412,0.3412,0.3412,0.3396,0.3373,0.3373,0.3356,0.3335,0.0,0.0,0.0,0.0,0.0,0.0,0.0,0.0,0.0,0.0,0.0,0.0,0.0,0.0,0.0,0.0,0.0,0.0,0.0,0.0,0.0,0.5384,0.5038,0.476,0.4631,0.4212,0.3777,0.3334,0.3734,0.3487,0.2837,0.3076,0.3012,0.2716,0.2643,0.2661,0.2686,0.269,0.2692,0.2692,0.2692,0.0,0.0,0.0,0.0,0.0,0.0,0.0,0.0,0.2836,0.2853,0.2874,0.2874,0.0,0.0,0.0,0.0,0.0,0.3134,0.3146,0.3155,0.3204,0.3202,0.3202,0.3257,0.3249,0.323,0.323,0.323,0.3231,0.3236,0.328,0.3317,0.3326,0.3324,0.3321,0.3321,0.3325,0.3337,0.3363,0.3393,0.3412,0.3412,0.3412,0.3412,0.3412,0.3412,0.3412,0.3412,0.3412,0.3412,0.3412,0.3412,0.3412,0.3412,0.3412,0.3412,0.3412,0.3412,0.3412,0.3412,0.3412,0.3412,0.3412,0.0,0.3412,0.3412,0.3412,0.3412,0.3412,0.3412,0.341,0.3405,0.3405,0.3401,0.3397,0.0,0.0,0.0,0.0,0.0,0.0,0.0,0.0,0.0,0.0,0.0,0.0,0.0,0.0,0.0,0.0,0.0,0.0,0.0,0.0,0.4878,0.4626,0.4206,0.4101,0.4303,0.3783,0.327,0.2846,0.309,0.3009,0.2602,0.2782,0.2798,0.2565,0.2664,0.2679,0.2692,0.2692,0.2692,0.2692,0.0,0.0,0.0,0.0,0.0,0.0,0.0,0.0,0.0,0.0,0.2827,0.283,0.2864,0.0,0.0,0.0,0.0,0.0,0.3122,0.3131,0.3133,0.3193,0.3186,0.3179,0.3238,0.3228,0.3212,0.3227,0.323,0.3235,0.3251,0.3277,0.3291,0.3275,0.3299,0.3321,0.3321,0.3336,0.3356,0.3388,0.3403,0.3412,0.3412,0.3412,0.3412,0.3412,0.3412,0.3412,0.3412,0.3412,0.3412,0.3412,0.3412,0.3412,0.3412,0.3412,0.3412,0.3412,0.3412,0.3412,0.3412,0.3412,0.3412,0.3412,0.3412,0.3412,0.3412,0.3412,0.3412,0.3412,0.3412,0.3412,0.3412,0.3412,0.3412,0.3412,0.0,0.0,0.0,0.0,0.0,0.0,0.0,0.0,0.0,0.0,0.0,0.0,0.0,0.0,0.0,0.0,0.0,0.0,0.0,0.4626,0.4372,0.4036,0.3617,0.3521,0.3823,0.3376,0.2951,0.2623,0.2623,0.2623,0.2623,0.2646,0.2657,0.2658,0.2682,0.2692,0.2692,0.2692,0.2692,0.2692,0.0,0.0,0.0,0.0,0.0,0.0,0.0,0.0,0.0,0.0,0.0,0.0,0.0,0.0,0.0,0.2983,0.3011,0.3035,0.3111,0.312,0.3119,0.3165,0.316,0.3156,0.3209,0.3204,0.3194,0.3216,0.322,0.3231,0.3269,0.3281,0.3279,0.3255,0.3284,0.331,0.331,0.3337,0.3367,0.3397,0.3408,0.3412,0.3412,0.3412,0.3412,0.3412,0.3412,0.3412,0.3412,0.3412,0.3412,0.3412,0.3412,0.3412,0.3412,0.3412,0.3412,0.3412,0.3412,0.3412,0.3412,0.3412,0.3412,0.3412,0.3412,0.3412,0.3412,0.3412,0.3412,0.3412,0.3412,0.3412,0.3412,0.3412,0.3412,0.3412,0.0,0.0,0.0,0.0,0.0,0.0,0.0,0.0,0.0,0.0,0.0,0.0,0.0,0.0,0.0,0.0,0.0,0.0,0.471,0.4288,0.4036,0.4036,0.3617,0.3449,0.3446,0.2939,0.2686,0.2686,0.2686,0.2686,0.2686,0.2688,0.269,0.269,0.2691,0.2692,0.2692,0.2692,0.2692,0.2692,0.2692,0.0,0.0,0.0,0.0,0.0,0.0,0.0,0.0,0.0,0.0,0.0,0.0,0.0,0.2926,0.2988,0.3026,0.3056,0.3092,0.3119,0.3141,0.3145,0.3145,0.3152,0.3183,0.319,0.3189,0.3191,0.3191,0.3209,0.3265,0.3299,0.3317,0.3314,0.3295,0.3279,0.3279,0.3305,0.3336,0.3366,0.3395,0.3412,0.3412,0.3412,0.3412,0.3412,0.3412,0.3412,0.3412,0.3412,0.3412,0.3412,0.3412,0.3412,0.3412,0.3412,0.3412,0.3412,0.3412,0.3412,0.3412,0.3412,0.3412,0.3412,0.3412,0.3412,0.3412,0.3412,0.3412,0.3412,0.3412,0.3412,0.3412,0.3412,0.3412,0.3412,0.0,0.0,0.0,0.0,0.0,0.0,0.0,0.0,0.0,0.0,0.0,0.0,0.0,0.0,0.0,0.0,0.0,0.0,0.387,0.3701,0.3533,0.3195,0.3049,0.2966,0.2945,0.2777,0.2702,0.2721,0.2702,0.2692,0.2692,0.2692,0.2692,0.2692,0.2692,0.2692,0.2692,0.2692,0.2692,0.2692,0.2692,0.2686,0.0,0.0,0.0,0.0,0.0,0.0,0.0,0.0,0.2821,0.2819,0.286,0.2882,0.2901,0.2961,0.2987,0.3006,0.3056,0.3078,0.3096,0.3133,0.3142,0.315,0.3182,0.3174,0.3171,0.3206,0.3201,0.3212,0.329,0.3283,0.327,0.329,0.3268,0.3261,0.3299,0.3314,0.3339,0.3389,0.3405,0.3412,0.3412,0.3412,0.3412,0.3412,0.3412,0.3412,0.3412,0.3412,0.3412,0.3412,0.3412,0.3412,0.3412,0.3412,0.3412,0.3412,0.3412,0.3412,0.3412,0.3412,0.3412,0.3412,0.3412,0.3412,0.3412,0.3412,0.3412,0.3412,0.3412,0.3412,0.3412,0.3412,0.3412,0.3412,0.0,0.0,0.0,0.0,0.0,0.0,0.0,0.0,0.0,0.0,0.0,0.0,0.0,0.0,0.0,0.0,0.0,0.0,0.3367,0.3283,0.3029,0.2692,0.2713,0.2718,0.2707,0.2698,0.2702,0.2724,0.2702,0.2692,0.2692,0.2692,0.2692,0.2692,0.2692,0.2692,0.2692,0.2692,0.2692,0.2692,0.2692,0.2687,0.0,0.0,0.0,0.0,0.0,0.0,0.0,0.0,0.2859,0.2848,0.2878,0.2887,0.2897,0.2946,0.2968,0.2984,0.3026,0.3059,0.3086,0.3108,0.3135,0.3157,0.3159,0.3159,0.3165,0.3197,0.3217,0.3246,0.3298,0.328,0.3266,0.3287,0.3265,0.3266,0.3326,0.3336,0.3355,0.3405,0.3412,0.3412,0.3412,0.3412,0.3412,0.3412,0.3412,0.3412,0.3412,0.3412,0.3412,0.3412,0.3412,0.3412,0.3412,0.3412,0.3412,0.3412,0.3412,0.3412,0.3412,0.3412,0.3412,0.3412,0.3412,0.3412,0.3412,0.3412,0.3412,0.3412,0.3412,0.3412,0.3412,0.3412,0.3412,0.3412,0.0,0.0,0.0,0.0,0.0,0.0,0.0,0.0,0.0,0.0,0.0,0.0,0.0,0.0,0.0,0.0,0.0,0.0,0.3367,0.2945,0.2692,0.2692,0.2692,0.2706,0.2736,0.2707,0.2692,0.2692,0.2692,0.2692,0.2692,0.2692,0.2692,0.2692,0.2692,0.2692,0.2692,0.2692,0.2692,0.2692,0.2692,0.2675,0.2571,0.0,0.0,0.0,0.0,0.0,0.0,0.0,0.2923,0.2879,0.2906,0.2916,0.2921,0.2953,0.2983,0.3006,0.3007,0.3073,0.3127,0.3067,0.312,0.3171,0.3111,0.3145,0.318,0.3149,0.3238,0.3311,0.3281,0.33,0.3321,0.3321,0.3295,0.3296,0.3358,0.3366,0.3378,0.3408,0.3412,0.3412,0.3412,0.3412,0.3412,0.3412,0.3412,0.3412,0.3412,0.3412,0.3412,0.3412,0.3412,0.3412,0.3412,0.3412,0.3412,0.3412,0.3412,0.3412,0.3412,0.3412,0.3412,0.3412,0.3412,0.3412,0.3412,0.3412,0.3412,0.3412,0.3412,0.3412,0.3412,0.3412,0.3412,0.3412,0.0,0.0,0.0,0.0,0.0,0.0,0.0,0.0,0.0,0.0,0.0,0.0,0.0,0.0,0.0,0.0,0.0,0.0,0.2861,0.2777,0.2692,0.2692,0.2713,0.2718,0.2706,0.2697,0.2692,0.2692,0.2692,0.2692,0.2692,0.2692,0.2692,0.2692,0.2692,0.2692,0.2692,0.2692,0.2692,0.2692,0.2692,0.2687,0.2686,0.0,0.0,0.0,0.0,0.0,0.0,0.0,0.0,0.0,0.2913,0.2902,0.2897,0.2946,0.2968,0.2984,0.3026,0.3058,0.308,0.3084,0.3104,0.312,0.3101,0.3145,0.3191,0.3202,0.325,0.3292,0.3306,0.328,0.3279,0.3343,0.331,0.3296,0.3358,0.3366,0.3378,0.3408,0.3412,0.3412,0.3412,0.3412,0.3412,0.3412,0.3412,0.3412,0.3412,0.3412,0.3412,0.3412,0.3412,0.3412,0.3412,0.3412,0.3412,0.3412,0.3412,0.3412,0.3412,0.3412,0.3412,0.3412,0.3412,0.3412,0.3412,0.3412,0.3412,0.3412,0.3412,0.3412,0.3412,0.3412,0.3412,0.3412,0.0,0.0,0.0,0.0,0.0,0.0,0.0,0.0,0.0,0.0,0.3447,0.3365,0.0,0.0,0.0,0.0,0.0,0.0,0.2692,0.2692,0.2692,0.2692,0.2721,0.2729,0.2712,0.2699,0.2692,0.2692,0.2692,0.2692,0.2692,0.2692,0.2692,0.2692,0.2692,0.2692,0.2692,0.2692,0.2692,0.2692,0.2692,0.2699,0.2714,0.0,0.0,0.0,0.0,0.0,0.0,0.0,0.0,0.0,0.2934,0.2906,0.2886,0.2945,0.2961,0.2969,0.3006,0.3043,0.3066,0.3048,0.307,0.3107,0.3142,0.317,0.32,0.324,0.3283,0.3314,0.332,0.33,0.3302,0.3358,0.3336,0.3329,0.3378,0.3385,0.3392,0.341,0.3412,0.3412,0.3412,0.3412,0.3412,0.3412,0.3412,0.3412,0.3412,0.3412,0.3412,0.3412,0.3412,0.3412,0.3412,0.3412,0.3412,0.3412,0.3412,0.3412,0.3412,0.3412,0.3412,0.3412,0.3412,0.3412,0.3412,0.3412,0.3412,0.3412,0.3412,0.3412,0.3412,0.3412,0.3412,0.3412,0.0,0.0,0.1344,0.0,0.0,0.0,0.0,0.0,0.0,0.2692,0.2692,0.2692,0.0,0.0,0.0,0.2692,0.2692,0.2692,0.2692,0.2692,0.2692,0.2692,0.2721,0.2737,0.2737,0.271,0.2695,0.2692,0.2692,0.2692,0.2692,0.2692,0.2692,0.2692,0.2692,0.2692,0.2692,0.2692,0.2694,0.2697,0.2697,0.2714,0.2743,0.2748,0.0,0.0,0.0,0.0,0.0,0.0,0.0,0.0,0.2962,0.2923,0.2889,0.2945,0.2961,0.2962,0.2968,0.3031,0.3074,0.2994,0.3039,0.3125,0.321,0.3213,0.3213,0.3272,0.3325,0.3355,0.3329,0.3345,0.3365,0.337,0.3369,0.3377,0.3408,0.3412,0.3412,0.3412,0.3412,0.3412,0.3412,0.3412,0.3412,0.3412,0.3412,0.3412,0.3412,0.3412,0.3412,0.3412,0.3412,0.3412,0.3412,0.3412,0.3412,0.3412,0.3412,0.3412,0.3412,0.3412,0.3412,0.3412,0.3412,0.3412,0.3412,0.3412,0.3412,0.3412,0.3412,0.3412,0.3412,0.3412,0.3412,0.3412,0.0,0.0,0.1929,0.0914,0.0,0.0,0.0,0.0,0.2692,0.2692,0.2692,0.2692,0.2692,0.2692,0.0,0.2692,0.2692,0.2692,0.2692,0.2692,0.2692,0.2692,0.2721,0.2737,0.2737,0.2732,0.2717,0.2692,0.2692,0.2692,0.2692,0.2692,0.2692,0.2692,0.2692,0.2692,0.2692,0.2692,0.2706,0.2728,0.2728,0.2746,0.2778,0.2826,0.2871,0.0,0.0,0.0,0.0,0.0,0.0,0.0,0.2969,0.2936,0.2915,0.295,0.2961,0.2972,0.302,0.3047,0.3063,0.3067,0.3101,0.315,0.3216,0.3245,0.3273,0.3335,0.3339,0.3336,0.3354,0.3343,0.3347,0.3395,0.3382,0.3377,0.3408,0.3412,0.3412,0.3412,0.3412,0.3412,0.3412,0.3412,0.3412,0.3412,0.3412,0.3412,0.3412,0.3412,0.3412,0.3412,0.3412,0.3412,0.3412,0.3412,0.3412,0.3412,0.3412,0.3412,0.3412,0.3412,0.3412,0.3412,0.3412,0.3412,0.3412,0.3412,0.3412,0.3412,0.3412,0.3412,0.3412,0.3412,0.3412,0.3412,0.0,0.0,0.0,0.0,0.0,0.0,0.0,0.0,0.2709,0.2694,0.2692,0.2692,0.2692,0.2692,0.0,0.0,0.1429,0.1429,0.1429,0.1429,0.1774,0.2735,0.2737,0.2751,0.2781,0.2752,0.2731,0.2714,0.2699,0.2692,0.2692,0.2692,0.2692,0.2692,0.2692,0.2692,0.2694,0.2707,0.2732,0.2761,0.2776,0.2807,0.2849,0.2867,0.2901,0.2942,0.2973,0.0,0.0,0.0,0.0,0.0,0.0,0.0,0.2901,0.2931,0.295,0.2968,0.3001,0.302,0.3037,0.3069,0.312,0.318,0.3239,0.3276,0.3314,0.3375,0.3375,0.3369,0.3385,0.3375,0.3374,0.3407,0.3399,0.3393,0.341,0.3412,0.3412,0.3412,0.3412,0.3412,0.3412,0.3412,0.3412,0.3412,0.3412,0.3412,0.3412,0.3412,0.3412,0.3412,0.3412,0.3412,0.3412,0.3412,0.3412,0.3412,0.3412,0.3412,0.3412,0.3412,0.3412,0.3412,0.3412,0.3412,0.3412,0.3412,0.3412,0.3412,0.3412,0.3412,0.3412,0.3412,0.3412,0.3412,0.0,0.0,0.0,0.0,0.0,0.0,0.0,0.0,0.0,0.2695,0.2439,0.2355,0.2692,0.2439,0.1597,0.0,0.0,0.0,-0.0504,-0.0168,0.085,0.2694,0.2763,0.2774,0.2819,0.2772,0.274,0.2731,0.2705,0.2692,0.2692,0.2692,0.2692,0.2692,0.2692,0.2692,0.2695,0.2725,0.2755,0.2787,0.2816,0.286,0.2906,0.2889,0.2912,0.2954,0.296,0.2977,0.3003,0.3028,0.0,0.0,0.0,0.0,0.2887,0.2915,0.2942,0.2964,0.2975,0.2999,0.3028,0.3054,0.312,0.3195,0.3254,0.3291,0.333,0.3392,0.3408,0.3412,0.3412,0.3412,0.3412,0.3412,0.3412,0.3412,0.3412,0.3412,0.3412,0.3412,0.3412,0.3412,0.3412,0.3412,0.3412,0.3412,0.3412,0.3412,0.3412,0.3412,0.3412,0.3412,0.3412,0.3412,0.3412,0.3412,0.3412,0.3412,0.3412,0.3412,0.3412,0.3412,0.3412,0.3412,0.3412,0.3412,0.3412,0.3412,0.3412,0.3412,0.3412,0.3412,0.3412,0.3412,0.3412,0.3412,0.0,0.0,0.0,0.0,0.0,0.0,0.0,0.0,0.0,0.0,0.1345,0.0924,0.2524,0.1261,0.0252,0.0,-0.1427,-0.235,-0.235,0.0,0.0,0.2694,0.2804,0.2808,0.2789,0.2781,0.2751,0.2698,0.2695,0.2692,0.2692,0.2692,0.2692,0.2692,0.2692,0.2692,0.2695,0.2725,0.2755,0.2787,0.2816,0.2849,0.2882,0.2902,0.2915,0.2926,0.2951,0.2964,0.2968,0.2972,0.2968,0.0,0.0,0.0,0.2916,0.2946,0.2958,0.2973,0.3025,0.3062,0.3086,0.3091,0.312,0.3164,0.3223,0.326,0.3299,0.336,0.3393,0.3412,0.3412,0.3412,0.3412,0.3412,0.3412,0.3412,0.3412,0.3412,0.3412,0.3412,0.3412,0.3412,0.3412,0.3412,0.3412,0.3412,0.3412,0.3412,0.3412,0.3412,0.3412,0.3412,0.3412,0.3412,0.3412,0.3412,0.3412,0.3412,0.3412,0.3412,0.3412,0.3412,0.3412,0.3412,0.3412,0.3412,0.3412,0.3412,0.3412,0.3412,0.3412,0.3412,0.3412,0.3412,0.3412,0.3412,0.0,0.0,0.0,0.0,0.0,0.0,0.0,0.0,0.0,0.0,0.0,0.1015,-0.0168,-0.0168,-0.084,-0.2853,-0.3776,-0.3776,-0.277,-0.1018,0.0859,0.2694,0.2812,0.283,0.2834,0.28,0.277,0.2743,0.2727,0.2709,0.2692,0.1618,0.1702,0.2692,0.2692,0.2692,0.2695,0.2743,0.2781,0.2812,0.2859,0.2906,0.2946,0.2924,0.2938,0.2964,0.2943,0.2947,0.2961,0.2961,0.295,0.2934,0.292,0.0,0.0,0.0,0.2935,0.2971,0.3014,0.3061,0.3093,0.3077,0.3108,0.3159,0.3217,0.324,0.3272,0.3351,0.3377,0.3392,0.3408,0.3412,0.3412,0.3412,0.3412,0.3412,0.3412,0.3412,0.3412,0.3412,0.3412,0.3412,0.3412,0.3412,0.3412,0.3412,0.3412,0.3412,0.3412,0.3412,0.3412,0.3412,0.3412,0.3412,0.3412,0.3412,0.3412,0.3412,0.3412,0.3412,0.3412,0.3412,0.3412,0.3412,0.3412,0.3412,0.3412,0.3412,0.3412,0.3412,0.3412,0.3412,0.3412,0.3412,0.3412,0.3412,0.0,0.0,0.0,0.0,0.0,0.0,0.0,0.0,0.0,0.0,0.0,0.1197,-0.1097,0.0,0.0,0.0,-0.4446,-0.395,-0.2107,-0.0767,0.0862,0.2706,0.2825,0.2846,0.2861,0.2818,0.2791,0.2784,0.2242,0.1967,0.1951,0.0086,-0.0086,0.1271,0.1268,0.1266,0.1268,0.1379,0.1399,0.1415,0.1987,0.2207,0.2326,0.2757,0.2956,0.299,0.2943,0.2942,0.2961,0.2961,0.2941,0.2916,0.2916,0.2897,0.0,0.0,0.0,0.2977,0.3001,0.3046,0.3081,0.3058,0.3086,0.3135,0.3194,0.3215,0.3243,0.3326,0.3355,0.3373,0.3396,0.3407,0.3412,0.3412,0.3412,0.3412,0.3412,0.3412,0.3412,0.3412,0.3412,0.3412,0.3412,0.3412,0.3412,0.3412,0.3412,0.3412,0.3412,0.3412,0.3412,0.3412,0.3412,0.3412,0.3412,0.3412,0.3412,0.3412,0.3412,0.3412,0.3412,0.3412,0.3412,0.3412,0.3412,0.3412,0.3412,0.3412,0.3412,0.3412,0.3412,0.3412,0.3412,0.3412,0.3412,0.3412,0.0,0.0,0.0,0.0,0.0,0.0,0.0,0.0,0.0,0.0,0.0,0.0778,0.2224,0.0939,-0.0085,-0.0252,-0.1847,-0.2108,-0.0256,0.0,0.0872,0.2736,0.2856,0.0,0.2831,0.2827,0.2812,0.2784,0.0955,0.0087,0.0,-0.1908,-0.2774,-0.2684,-0.257,-0.2472,-0.2475,-0.2503,-0.2532,-0.2474,-0.0631,0.0182,0.0365,0.2303,0.2961,0.2964,0.296,0.296,0.2961,0.2961,0.2941,0.2916,0.2916,0.2897,0.2879,0.0,0.0,0.0,0.3006,0.3031,0.3054,0.3052,0.3055,0.3073,0.3133,0.317,0.3208,0.3268,0.3326,0.3367,0.3369,0.3392,0.3412,0.3412,0.3412,0.3412,0.3412,0.3412,0.3412,0.3412,0.3412,0.3412,0.3412,0.3412,0.3412,0.3412,0.3412,0.3412,0.3412,0.3412,0.3412,0.3412,0.3412,0.3412,0.3412,0.3412,0.3412,0.3412,0.3412,0.3412,0.3412,0.3412,0.3412,0.3412,0.3412,0.3412,0.3412,0.3412,0.3412,0.3412,0.3412,0.3412,0.3412,0.3412,0.3412,0.3412,0.0,0.0,0.0,0.0,0.0,0.0,0.0,0.0,0.0,0.0,0.0,0.0,0.0,-0.0259,-0.043,-0.1529,-0.3392,-0.3229,-0.0171,-0.1042,-0.0351,0.2651,0.2857,0.2868,0.2857,0.2819,0.219,0.0966,0.0261,-0.0781,-0.1997,-0.3987,-0.4795,-0.473,-0.3467,-0.2945,-0.2966,-0.291,-0.303,-0.2882,-0.0914,0.0,0.0186,0.2222,0.2973,0.2988,0.2968,0.2961,0.2961,0.2961,0.2954,0.2945,0.2945,0.2924,0.2902,0.2913,0.2931,0.2957,0.2996,0.3014,0.3028,0.3047,0.3148,0.3063,0.3104,0.3137,0.3171,0.3212,0.3266,0.3314,0.3333,0.3378,0.3412,0.3412,0.3412,0.3412,0.3412,0.3412,0.3412,0.3412,0.3412,0.3412,0.3412,0.3412,0.3412,0.3412,0.3412,0.3412,0.3412,0.3412,0.3412,0.3412,0.3412,0.3412,0.3412,0.3412,0.3412,0.3412,0.3412,0.3412,0.3412,0.3412,0.3412,0.3412,0.3412,0.3412,0.3412,0.3412,0.3412,0.3412,0.3412,0.3412,0.3412,0.3412,0.3412,0.3412,0.0,0.0,0.0,0.0,0.0,-0.1445,-0.278,-0.0806,-0.0089,-0.256,0.0,0.0,0.0,0.0,-0.139,-0.2662,-0.3948,-0.361,-0.1122,-0.2099,-0.1678,0.0799,0.0894,0.0987,0.0987,0.0885,0.0264,-0.0975,-0.1673,-0.2635,-0.4058,-0.5943,-0.6874,-0.6806,-0.5689,-0.5159,-0.5015,-0.4928,-0.4977,-0.4963,-0.3053,-0.177,-0.075,0.1032,0.2263,0.3035,0.2826,0.2913,0.3005,0.2808,0.2892,0.2976,0.2976,0.2956,0.293,0.2919,0.2923,0.2941,0.298,0.3006,0.3026,0.3047,0.3059,0.3076,0.3106,0.3129,0.3152,0.3182,0.3235,0.3279,0.3288,0.334,0.3388,0.3408,0.3412,0.3412,0.3412,0.3412,0.3412,0.3412,0.3412,0.3412,0.3412,0.3412,0.3412,0.3412,0.3412,0.0,0.3412,0.3412,0.3412,0.3412,0.3412,0.3412,0.3412,0.3412,0.3412,0.3412,0.3412,0.3412,0.3412,0.3412,0.3412,0.3412,0.3412,0.3412,0.3412,0.3412,0.3412,0.3412,0.3412,0.3412,0.3412,0.3412,0.3412,0.3412,0.0,0.0,0.0,0.0,-0.431,-0.3139,-0.3136,-0.3136,-0.3032,-0.3001,0.0,0.0,0.0,0.0,0.0,-0.2956,-0.304,-0.3054,-0.2909,-0.2911,-0.2924,-0.2866,-0.2867,-0.2867,-0.2867,-0.2866,-0.2956,-0.2958,-0.4838,-0.5853,-0.6093,-0.7918,-0.8787,-0.8965,-0.9429,-0.9337,-0.8961,-0.8783,-0.8775,-0.8922,-0.7313,-0.5251,-0.2915,-0.1342,0.0773,0.2806,0.2321,0.2418,0.0,0.2296,0.0,0.0,0.0,0.0,0.2957,0.2926,0.2938,0.2961,0.0,0.0,0.0,0.3054,0.3076,0.3106,0.3134,0.3142,0.315,0.3179,0.3232,0.3264,0.3234,0.3279,0.3339,0.3397,0.3408,0.3411,0.3412,0.3412,0.3412,0.3412,0.3412,0.3412,0.3412,0.3412,0.3412,0.3412,0.3412,0.3412,0.3412,0.3412,0.3412,0.3412,0.3412,0.3412,0.3412,0.3412,0.3412,0.3412,0.3412,0.3412,0.3306,0.3412,0.3412,0.3306,0.3306,0.3306,0.3306,0.3412,0.3412,0.3412,0.3412,0.3412,0.3412,0.3412,0.3412,0.3412,0.0,0.0,0.0,-0.3861,-0.3409,-0.3124,-0.3079,-0.3072,-0.2971,0.0,0.0,0.0,-0.2942,-0.2944,-0.3039,-0.314,-0.437,-0.4535,-0.3033,-0.4192,-0.4287,-0.2956,-0.2867,-0.2867,-0.2867,-0.2934,-0.3568,-0.507,-0.6021,-0.7141,-0.8553,-0.9543,-1.0018,-0.9885,-1.0222,-1.0287,-1.009,-1.0055,-1.0174,-1.0244,-0.7809,-0.6684,-0.6276,-0.383,-0.2781,-0.2602,-0.2679,-0.2577,-0.248,0.0,-0.1335,0.067,0.0,0.0,0.2988,0.2958,0.2954,0.2966,0.2988,0.0,0.0,0.0,0.0,0.0,0.3108,0.3127,0.314,0.3126,0.3171,0.321,0.3201,0.3249,0.3287,0.3281,0.3336,0.3386,0.3408,0.3412,0.3412,0.3412,0.3412,0.3412,0.3412,0.3412,0.3412,0.0,0.3412,0.3412,0.3412,0.3412,0.3412,0.3412,0.3412,0.3412,0.3412,0.3412,0.3198,0.2878,0.3198,0.2985,0.2132,0.2665,0.2558,0.2132,0.2132,0.2132,0.2239,0.3091,0.3412,0.3412,0.3412,0.3412,0.3412,0.3412,0.3412,0.3306,0.0,0.0,-0.5575,-0.5575,-0.5595,-0.5582,-0.5493,-0.548,-0.5449,0.0,0.0,0.0,-0.5286,-0.5286,-0.5388,-0.5419,-0.6383,-0.6553,-0.5406,-0.6401,-0.6504,-0.5442,-0.5444,-0.5535,-0.5713,-0.5681,-0.6419,-0.7776,-0.8095,-0.887,-0.9944,-1.0375,-1.0487,-1.0478,-1.079,-1.0992,-1.1065,-1.1242,-1.1141,-1.0852,-0.9436,-0.8473,-0.7773,-0.6268,-0.5296,-0.4626,0.0,0.0,-0.3172,-0.4478,-0.3062,0.0,0.0,0.0,0.0,0.2992,0.2971,0.2968,0.2998,0.3006,0.3018,0.3066,0.0,0.0,0.31,0.312,0.3134,0.3104,0.3146,0.3185,0.3171,0.3217,0.3255,0.325,0.3283,0.3321,0.3351,0.3377,0.3393,0.3393,0.3393,0.3393,0.3393,0.3381,0.338,0.3392,0.3393,0.3399,0.3411,0.3412,0.3412,0.3412,0.3198,0.3091,0.3091,0.2772,0.2558,0.2239,0.2558,0.2345,0.1706,0.2025,0.2025,0.1705,0.1705,0.1705,0.1706,0.2452,0.2665,0.2665,0.2665,0.2665,0.2665,0.2665,0.2665,0.2665,0.0,0.0,-0.9024,-0.9024,-0.9089,-0.9114,-0.902,-0.9007,-0.8946,0.0,-0.8742,-0.8709,-0.8644,-0.8636,-0.864,-0.8652,-0.8652,-0.8681,-0.8746,-0.8738,-0.8771,-0.8852,-0.8948,-0.9136,-0.9605,-0.9697,-0.9885,-1.0446,-1.0451,-1.0504,-1.0609,-1.0703,-1.0756,-1.0848,-1.1347,-1.1649,-1.1916,-1.2245,-1.1982,-1.1168,-1.1539,-1.0244,-0.8421,-0.8659,-0.7375,-0.55,-0.6029,-0.4389,-0.2336,-0.4785,-0.3827,0.0,0.0,0.0,0.0,0.0,0.2808,0.2698,0.2911,0.3011,0.3018,0.305,0.3097,0.0,0.3104,0.3118,0.313,0.3103,0.3141,0.317,0.3142,0.3183,0.3228,0.3251,0.3239,0.3239,0.3276,0.3325,0.3356,0.3356,0.3359,0.336,0.3356,0.3335,0.3333,0.3365,0.337,0.3384,0.3304,0.3306,0.3306,0.3198,0.2772,0.2452,0.2452,0.1919,0.1705,0.1598,0.1705,0.1598,0.1492,0.1598,0.1598,0.1492,0.1492,0.1492,0.1492,0.1492,0.1598,0.1705,0.1705,0.1705,0.1705,0.1705,0.1705,0.1705,-0.9081,-0.9105,-0.9118,-0.9118,-0.9134,-0.9114,-0.902,-0.9007,-0.8967,-0.8856,-0.8779,-0.8754,-0.8811,-0.882,-0.8848,-0.8922,-0.893,-0.8905,-0.8848,-0.8775,-0.8742,-0.8758,-0.9122,-0.9434,-0.9605,-1.0064,-1.029,-1.0468,-1.0933,-1.1175,-1.1192,-1.1663,-1.1867,-1.1894,-1.2187,-1.224,-1.231,-1.2672,-1.2639,-1.2356,-1.1762,-1.1691,-1.1716,-1.1089,-1.0845,-1.0893,-1.0921,-1.0511,-0.975,-0.8255,-0.737,-0.6207,0.0,0.0,0.0,0.2017,0.0,0.0948,0.2661,0.3043,0.3051,0.0,0.0,0.0,0.3099,0.3101,0.3104,0.3099,0.3107,0.3114,0.3108,0.3135,0.3153,0.3135,0.3168,0.3224,0.33,0.3302,0.3294,0.3294,0.3315,0.0,0.3296,0.331,0.3333,0.3365,0.3389,0.3193,0.2772,0.2772,0.2558,0.2025,0.1919,0.1919,0.1919,0.1812,0.1492,0.1066,0.1492,0.1172,0.032,0.0853,0.0746,0.032,0.032,0.032,0.032,0.032,0.0853,0.1705,0.1705,0.1705,0.1705,0.1705,0.1705,0.1598,-0.9134,-0.9142,-0.9142,-0.9142,-0.9142,-0.9114,-0.902,-0.9007,-0.8975,-0.8881,-0.8873,-0.8889,-0.8934,-0.8979,-0.9024,-0.9073,-0.9077,-0.9171,-0.9454,-0.9407,-0.9492,-0.9821,-1.0058,-1.0334,-1.0578,-1.0806,-1.1086,-1.1329,-1.1611,-1.1736,-1.1794,-1.2137,-1.2232,-1.2183,-1.2428,-1.2504,-1.246,-1.2694,-1.283,-1.2863,-1.2271,-1.2223,-1.2596,-1.2064,-1.2112,-1.2357,-1.2352,-1.2352,-1.1984,-0.9359,-0.8604,0.0,0.0,-0.4467,-0.3784,0.0,-0.1147,-0.142,0.0,0.0,0.0,0.2876,0.0,0.0,0.0,0.3086,0.3093,0.3078,0.3086,0.3097,0.3097,0.3122,0.3138,0.3123,0.3133,0.3164,0.3224,0.3245,0.0,0.0,0.0,0.0,0.3253,0.3254,0.3176,0.2921,0.2962,0.2772,0.2132,0.2132,0.2025,0.1706,0.1492,0.1279,0.1279,0.0959,0.0746,0.0426,0.0746,0.0533,0.0,0.032,0.032,0.0,0.0,0.0,0.0,0.0,0.032,0.0853,0.0853,0.0853,0.0853,0.0853,0.0853,0.0853,-0.9146,-0.9142,-0.9142,-0.9142,-0.9142,-0.9118,-0.9044,-0.9032,-0.902,-0.8979,-0.9101,-0.9232,-0.9269,-0.9307,-0.9427,-0.9427,-0.9427,-0.9651,-1.0208,-1.0212,-1.0441,-1.0902,-1.0946,-1.12,-1.1584,-1.1613,-1.1857,-1.2243,-1.2265,-1.2275,-1.2275,-1.2401,-1.2406,-1.2319,-1.2493,-1.2596,-1.2645,-1.271,-1.2868,-1.3042,-1.2732,-1.2629,-1.2651,-1.2487,-1.2439,-1.2466,-1.2515,-1.2536,-1.2158,-1.0183,-0.9567,-0.9496,-0.8825,-0.7554,0.0,0.0,0.0,0.0,0.0,0.0,0.0,0.0,0.0,0.2503,0.0,0.0,0.0,0.0,0.0,0.0,0.0,0.0,0.0,0.0,0.0,0.0,0.0,0.0,0.0,0.0,0.0,0.0,0.3212,0.3208,0.3033,0.248,0.253,0.2345,0.1598,0.1598,0.1492,0.1385,0.0959,0.0746,0.0746,0.0213,0.0,0.0,0.0,0.0,0.0,0.0,0.0,0.0,0.0,0.0,0.0,0.0,0.0,0.0,0.0,0.0,0.0,0.0,0.0,0.0,-0.9158,-0.9142,-0.9142,-0.9142,-0.9142,-0.9142,-0.913,-0.913,-0.9179,-0.9326,-0.9602,-0.9854,-1.0021,-1.0376,-1.0564,-1.0564,-1.0564,-1.0569,-1.0673,-1.0678,-1.0683,-1.0692,-1.1251,-1.1584,-1.1584,-1.2154,-1.2396,-1.2493,-1.2596,-1.2645,-1.2645,-1.277,-1.2819,-1.2803,-1.2721,-1.2808,-1.3004,-1.2906,-1.2944,-1.3058,-1.2906,-1.2971,-1.3124,-1.2792,-1.2732,-1.2803,-1.2607,-1.2536,-1.2455,0.0,-1.2217,-1.1857,0.0,-0.9881,-1.0219,-0.618,0.0,0.0,0.0,0.0,0.0,0.0,-0.1333,0.0,0.0,0.0,0.3048,0.3018,0.0,0.0,0.0,0.0,0.0,0.0,0.0,0.0,0.0,0.0,0.0,0.0,0.0,0.0,0.0,0.3221,0.3065,0.2459,0.2522,0.2132,0.1066,0.0959,0.0746,0.0213,0.0107,0.0107,0.0107,0.0,0.0,0.0,0.0,0.0,0.0,0.0,0.0,0.0,0.0,0.0,0.0,0.0,0.0,0.0,0.0,0.0,0.0,0.0,0.0,0.0,-0.9191,-0.9142,-0.9142,-0.9142,-0.9142,-0.9163,-0.9216,-0.9599,-1.0006,-1.0537,-1.0734,-1.0852,-1.0935,-1.1116,-1.1201,-1.1201,-1.1149,-1.1337,-1.1694,-1.158,-1.1663,-1.2086,-1.2247,-1.2329,-1.2467,-1.2579,-1.2667,-1.2738,-1.2786,-1.2808,-1.2814,-1.2863,-1.2852,-1.2781,-1.2803,-1.283,-1.2863,-1.2955,-1.3058,-1.3172,-1.3189,-1.3298,0.0,-1.2825,-1.2678,-1.2776,-1.2748,-1.2738,-1.2748,0.0,-1.2901,0.0,0.0,0.0,0.0,-0.9703,0.0,0.0,0.0,0.0,0.0,0.0,0.0,0.0,-0.1903,0.0,0.0951,0.0,0.0,0.0,0.0,0.0,0.0,0.0,0.0,0.0,0.0,0.0,0.0,0.0,0.0,0.0,0.0,0.0,0.0,0.0,0.1776,0.1272,0.0426,0.0426,0.0213,0.0,0.0,0.0,0.0,0.0,0.0,0.0,0.0,0.0,0.0,0.0,0.0,0.0,0.0,0.0,0.0,0.0,0.0,0.0,0.0,0.0,0.0,0.0,0.0,0.0,-0.9346,-0.9289,-0.9281,-0.9256,-0.9348,-0.9574,-0.9861,-1.0286,-1.094,-1.1532,-1.1652,-1.1783,-1.1871,-1.1945,-1.1915,-1.1915,-1.1797,-1.1964,-1.2476,-1.2362,-1.2547,-1.3086,-1.2939,-1.289,-1.2966,-1.289,-1.2879,-1.2939,-1.3004,-1.3031,-1.3037,-1.3069,-1.3004,-1.2857,-1.2944,-1.2917,-1.2819,-1.2993,-1.3134,-1.3249,-1.3336,-1.3385,-1.3357,-1.2901,-1.2738,-1.2765,-1.2857,-1.289,-1.2895,-1.2928,-1.3053,0.0,-1.2922,0.0,-1.2995,0.0,0.0,0.0,-0.9921,0.0,0.0,0.0,0.0,0.0,0.0,0.0,0.0,0.0,0.0,0.0,0.0,0.0,0.0,0.0,0.0,0.0,0.0,0.0,0.0,0.0,0.0,0.0,0.0,0.0,0.0,0.0,0.0,0.0633,0.0,0.0,0.0,0.0,0.0,0.0,0.0,0.0,0.0,0.0,0.0,0.0,0.0,0.0,0.0,0.0,0.0,0.0,0.0,0.0,0.0,0.0,0.0,0.0,0.0,0.0,0.0,0.0,-0.9681,-0.9665,-0.9636,-0.9546,-0.9926,-1.0451,-1.1254,-1.1378,-1.1532,-1.1945,-1.2146,-1.238,-1.2706,-1.2866,-1.2901,-1.2901,-1.259,-1.2504,-1.2716,-1.2825,-1.2841,-1.2727,-1.3042,-1.3064,-1.2727,-1.3047,-1.3167,-1.3064,-1.3292,-1.3406,-1.3406,-1.3526,-1.345,-1.3221,-1.3227,-1.3162,-1.3058,-1.3069,-1.3134,-1.3238,-1.3243,-1.3113,-1.2933,0.0,-1.3075,-1.2884,-1.2884,0.0,0.0,-1.3026,-1.3069,0.0,0.0,0.0,0.0,0.0,0.0,0.0,0.0,0.0,0.0,-1.1568,0.0,0.0,0.0,0.0,-0.441,0.0,0.0,0.0,0.0,0.0,0.0,0.0,0.0,0.0,0.0,0.0,0.0,0.0,0.0,0.0,0.0,0.0,0.0,0.0,0.0,0.0,0.0,0.0,0.0,0.0,0.0,0.0,0.0,0.0,0.0,0.0,0.0,0.0,0.0,0.0,0.0,0.0,0.0,0.0,0.0,0.0,0.0,0.0,0.0,0.0,0.0,0.0,0.0,0.0,-1.0656,-1.0809,-1.0739,-1.0392,-1.073,-1.1397,-1.2184,-1.2275,-1.2454,-1.2844,-1.2964,-1.3009,-1.3046,-1.3113,-1.3118,-1.3118,-1.2977,-1.2939,-1.3053,-1.3096,-1.3102,-1.3058,-1.3249,-1.3341,-1.3303,-1.3341,-1.3379,-1.3423,-1.3504,-1.3504,-1.3417,-1.3379,-1.3363,-1.3357,-1.3276,-1.3178,-1.3086,-1.3325,-1.3352,-1.3238,-1.3238,-1.3287,-1.333,0.0,-1.2835,-1.2765,-1.2765,-1.2873,0.0,-1.3058,-1.3118,-1.3178,-1.314,-1.3124,-1.3096,-1.2982,-1.295,-1.2928,0.0,0.0,-1.2398,-1.2066,0.0,0.0,0.0,0.0,0.0,0.0,0.0,0.0,0.0,0.0,0.0,0.0,0.0,0.0,0.0,0.0,0.0,0.0,0.0,0.0,0.0,0.0,0.0,0.0,0.0,0.0,0.0,0.0,0.0,0.0,0.0,0.0,0.0,0.0,0.0,0.0,0.0,0.0,0.0,0.0,0.0,0.0,0.0,0.0,0.0,0.0,0.0,0.0,0.0,0.0,0.0,0.0,0.0,0.0,-1.1469,-1.1825,-1.1742,-1.1308,-1.1635,-1.229,-1.2996,-1.3053,-1.3185,-1.3613,-1.3537,-1.3455,-1.3379,-1.3292,-1.3221,-1.3183,-1.3075,-1.3069,-1.3227,-1.32,0.0,-1.3178,-1.3292,-1.3336,0.0,-1.3417,-1.3504,-1.3542,-1.3629,-1.3651,-1.3607,-1.3488,-1.3477,-1.3548,-1.3471,-1.3346,-1.3211,-1.3439,-1.345,-1.3298,-1.3254,-1.3281,0.0,0.0,-1.2846,-1.295,0.0,-1.2912,-1.3004,-1.3004,-1.3086,-1.3167,-1.3091,-1.3124,-1.3151,-1.2999,-1.2977,-1.2988,-1.2912,-1.283,0.0,-1.2374,-1.2572,0.0,-1.1731,0.0,0.0,0.0,0.0,0.0,0.0,0.0,0.0,0.0,0.0,0.0,0.0,0.0,0.0,0.0,0.0,0.0,0.0,0.0,0.0,0.0,0.0,0.0,0.0,0.0,0.0,0.0,0.0,0.0,0.0,-0.0852,-0.1172,-0.1172,-0.2023,-0.2448,-0.2448,-0.2448,-0.2448,-0.2448,-0.2448,-0.2448,-0.2341,-0.1491,-0.1172,-0.1171,-0.032,0.0,0.0,0.0,0.0,0.0,-1.2314,-1.2693,-1.2843,-1.2307,-1.2539,-1.303,-1.368,-1.3694,-1.3689,-1.3901,-1.3722,-1.3575,-1.3569,-1.3363,-1.3178,-1.3069,-1.296,-1.2993,-1.3216,-1.3145,0.0,0.0,-1.3194,-1.3091,-1.2738,0.0,0.0,-1.3423,-1.3673,-1.3847,-1.3944,-1.3836,-1.3787,-1.3787,-1.3787,-1.3651,-1.3423,-1.3433,-1.3428,-1.3401,-1.3287,-1.3107,-1.2912,-1.2906,-1.3124,-1.3401,-1.3156,-1.3004,-1.2917,-1.2917,-1.2993,-1.3086,-1.3086,-1.3086,-1.308,-1.308,-1.2999,-1.2906,-1.2906,-1.2901,-1.2895,-1.2895,-1.2895,0.0,0.0,0.0,-1.2579,0.0,0.0,0.0,0.0,0.0,0.0,0.0,0.0,0.0,0.0,0.0,0.0,0.0,0.0,0.0,0.0,0.0,0.0,0.0,0.0,0.0,0.0,0.0,-0.0106,0.0,0.0,-0.0107,-0.0213,-0.2341,-0.3405,-0.3617,-0.5742,-0.6804,-0.6804,-0.6804,-0.6804,-0.6804,-0.6804,-0.6804,-0.6592,-0.4467,-0.3617,-0.3404,-0.1172,-0.032,-0.0107,0.0,0.0,0.0,-1.2997,-1.3481,-1.3859,-1.3743,-1.3747,-1.3792,-1.4042,-1.3874,-1.37,-1.3575,-1.3352,-1.3172,-1.308,-1.3015,-1.2966,-1.2939,-1.2988,-1.3047,0.0,0.0,0.0,-1.3205,-1.3395,-1.3385,-1.3107,-1.3433,0.0,-1.3423,-1.3754,-1.3885,-1.383,-1.3803,-1.3787,-1.3787,-1.3787,-1.3651,-1.3433,-1.3613,-1.3537,-1.3281,-1.3249,-1.3254,-1.3276,0.0,-1.3319,-1.3515,-1.3189,-1.3162,-1.3281,-1.3281,-1.3303,-1.333,-1.333,-1.327,-1.3194,-1.3194,-1.3172,-1.3151,-1.3151,-1.3086,-1.3026,-1.3026,-1.3026,-1.2993,0.0,0.0,0.0,0.0,0.0,0.0,0.0,0.0,0.0,0.0,0.0,0.0,0.0,0.0,0.0,0.0,0.0,0.0,0.0,0.0,0.0,0.0,0.0,0.0,0.0,0.0,0.0,0.0,0.0,-0.0852,-0.2554,-0.3086,-0.4255,-0.5955,-0.6486,-0.6804,-0.6804,-0.6804,-0.6804,-0.6804,-0.6804,-0.6804,-0.6804,-0.6167,-0.5955,-0.5848,-0.5317,-0.4042,-0.2341,-0.0639,0.0,0.0,-1.3659,-1.4012,-1.4265,-1.4309,-1.4178,-1.4053,-1.4053,-1.3993,-1.3874,-1.3678,-1.3542,-1.339,-1.3221,-1.3107,-1.2999,-1.2895,-1.295,-1.3037,-1.314,0.0,0.0,-1.3243,-1.3368,-1.333,-1.3091,-1.3428,0.0,-1.3423,-1.3732,-1.3874,-1.3863,-1.3809,-1.3814,-1.3863,-1.3863,-1.3787,-1.3662,-1.3749,-1.3607,-1.3314,-1.3259,-1.3249,0.0,-1.3243,-1.3357,-1.3504,-1.3357,-1.3319,-1.3341,-1.3341,-1.3374,-1.3423,-1.3423,-1.3374,-1.3319,-1.3319,-1.3281,-1.3238,-1.3238,-1.3194,-1.3145,-1.3145,-1.3145,-1.3113,-1.2993,-1.2966,-1.2933,0.0,-1.2694,0.0,0.0,0.0,0.0,0.0,0.0,0.0,0.0,0.0,0.0,0.0,0.0,0.0,0.0,0.0,0.0,0.0,0.0,0.0,0.0,0.0,0.0,-0.1472,-0.1484,-0.2554,-0.4892,-0.5846,-0.7013,-0.8289,-0.9243,-0.9776,-0.9776,-0.9776,-0.9776,-0.9776,-0.9776,-0.9776,-0.967,-0.8713,-0.8289,-0.8183,-0.7228,-0.6061,-0.468,-0.3405,-0.1704,0.0,-1.4309,-1.4249,-1.4222,-1.4347,-1.4167,-1.4004,-1.4004,-1.4042,-1.4031,-1.3923,-1.3879,-1.3787,-1.358,-1.3368,-1.3156,-1.295,-1.295,-1.3047,-1.3249,-1.3172,-1.3162,-1.3259,-1.3249,-1.3129,-1.2895,-1.3341,0.0,0.0,0.0,-1.3874,-1.4004,-1.3906,-1.3901,-1.3983,-1.3983,-1.3961,-1.3928,-1.383,-1.3645,-1.3412,-1.3303,-1.3194,-1.3107,-1.3221,-1.333,-1.3439,-1.3558,-1.3466,-1.3287,-1.3287,-1.3357,-1.3444,-1.3444,-1.3444,-1.3444,-1.3444,-1.3368,-1.3287,-1.3287,-1.3276,-1.3259,-1.3259,-1.3249,-1.3211,-1.3118,-1.3091,-1.3058,-1.2939,-1.2825,-1.2748,0.0,0.0,0.0,0.0,0.0,0.0,0.0,0.0,0.0,0.0,0.0,0.0,0.0,0.0,0.0,0.0,0.0,0.0,0.0,0.0,0.0,-0.3457,-0.3699,-0.4886,-0.7228,0.0,-1.0301,-1.0619,-1.2646,-1.3602,-1.3602,-1.3602,-1.3602,-1.3602,-1.3602,-1.3602,-1.3496,-1.1474,-1.0619,-1.0407,-0.8501,-0.7547,-0.7228,-0.7228,-0.4573,-0.0852,-1.432,-1.439,-1.4477,-1.4586,-1.4417,-1.4249,-1.4249,-1.3939,-1.3689,-1.3667,-1.3488,-1.3346,-1.3308,-1.3265,-1.3221,-1.3183,-1.327,-1.3346,0.0,0.0,0.0,-1.339,-1.3292,-1.3129,-1.2895,-1.3259,-1.3444,0.0,0.0,-1.4042,-1.4249,-1.4238,-1.4178,-1.4108,-1.4108,-1.3999,-1.3814,-1.3798,-1.3645,-1.3417,-1.3395,-1.3319,-1.3221,-1.3341,-1.3401,-1.3439,-1.3558,-1.3575,-1.3542,-1.3542,-1.3553,-1.3569,-1.3569,-1.3569,-1.3569,-1.3569,-1.3558,-1.3542,-1.3542,-1.3466,-1.339,-1.339,-1.3314,-1.3232,-1.3211,-1.3211,-1.3178,-1.3064,-1.302,-1.2977,-1.2873,0.0,0.0,0.0,0.0,0.0,0.0,0.0,0.0,0.0,0.0,0.0,0.0,0.0,0.0,0.0,0.0,0.0,0.0,0.0,0.0,0.0,-0.513,0.0,0.0,0.0,-1.1152,-1.2963,-1.3391,-1.3602,-1.3602,-1.3602,-1.3602,-1.3602,-1.3602,-1.3602,-1.3602,-1.318,-1.2963,-1.2963,-1.254,-1.1262,-0.956,-0.956,-0.7862,-0.5317,-1.4504,-1.4548,-1.4586,-1.4586,-1.439,-1.4205,-1.414,-1.383,-1.3645,-1.377,-1.3684,-1.3591,-1.3531,-1.3412,-1.3308,-1.3243,-1.3292,-1.3325,-1.3325,-1.3385,-1.3423,-1.3423,-1.3428,-1.3314,-1.3075,-1.3303,-1.3423,-1.3423,0.0,-1.3896,-1.414,-1.414,-1.4097,-1.4042,-1.4042,-1.4015,-1.3961,-1.3841,-1.3684,-1.351,-1.3444,-1.3385,-1.3341,-1.3401,-1.3461,-1.3526,-1.3586,-1.3602,-1.3602,-1.3602,-1.3602,-1.3602,-1.3602,-1.3602,-1.3602,-1.3602,-1.3602,-1.3602,-1.3602,-1.3558,-1.3515,-1.3515,-1.3471,-1.3412,-1.3346,-1.333,-1.3298,-1.3183,-1.3156,-1.3124,-1.3004,-1.2982,0.0,0.0,0.0,0.0,0.0,0.0,0.0,0.0,0.0,0.0,0.0,0.0,0.0,0.0,0.0,0.0,0.0,0.0,0.0,0.0,0.0,0.0,0.0,0.0,0.0,-1.3602,-1.3602,-1.3602,-1.3602,-1.3602,-1.3602,-1.3602,-1.3602,-1.3602,-1.3602,-1.3602,-1.3602,-1.3602,-1.3602,-1.2963,-1.2002,-1.2002,-1.0517,-0.8074,-1.4657,-1.4657,-1.4629,-1.4488,-1.4265,-1.408,-1.4004,-1.377,-1.3673,-1.3857,-1.3879,-1.3847,-1.376,-1.3575,-1.3423,-1.3325,-1.3314,-1.3314,-1.3314,-1.3385,-1.3423,-1.3423,-1.3515,-1.3461,-1.3243,-1.3357,-1.3433,0.0,0.0,-1.3749,-1.3955,-1.401,-1.4021,-1.3993,-1.4021,-1.4053,-1.408,-1.3928,-1.3776,-1.3635,-1.3537,-1.3482,-1.3461,-1.3461,-1.352,-1.3602,-1.3602,-1.3602,-1.3602,-1.3602,-1.3602,-1.3602,-1.3602,-1.3602,-1.3602,-1.3602,-1.3602,-1.3602,-1.3602,-1.3602,-1.3602,-1.3602,-1.3602,-1.358,-1.3482,-1.3461,-1.3428,-1.3303,-1.3254,-1.3205,-1.3091,-1.3069,0.0,0.0,0.0,0.0,0.0,0.0,0.0,0.0,0.0,0.0,0.0,0.0,0.0,0.0,0.0,0.0,0.0,0.0,0.0,0.0,0.0,-1.1678,-1.364,0.0,-1.3602,-1.3602,-1.3602,-1.3602,-1.3602,-1.3602,-1.3602,-1.3602,-1.3602,-1.3602,-1.3602,-1.3602,-1.3602,-1.3602,-1.3602,-1.3602,-1.3602,-1.3602,-1.243,-1.0301,-1.4586,-1.4602,-1.4602,-1.4379,-1.414,-1.4004,-1.4108,-1.3825,-1.3613,-1.3635,-1.3635,-1.3635,-1.3624,-1.3602,-1.3586,-1.3569,-1.3569,-1.3569,-1.3569,-1.3477,-1.3423,-1.3423,-1.3433,-1.3374,-1.3243,-1.3357,-1.3477,0.0,0.0,-1.3836,-1.3961,-1.4178,-1.4222,-1.4124,-1.4238,-1.4167,-1.3977,-1.4069,-1.3977,-1.377,-1.376,-1.3684,-1.3586,-1.3586,-1.3597,-1.3602,-1.3602,-1.3602,-1.3602,-1.3602,-1.3602,-1.3602,-1.3602,-1.3602,-1.3602,-1.3602,-1.3602,-1.3602,-1.3602,-1.3602,-1.3602,-1.3602,-1.3602,-1.3602,-1.3591,-1.3586,-1.3553,-1.3428,-1.3314,-1.3205,-1.3091,-1.3069,-1.3031,0.0,0.0,0.0,0.0,0.0,0.0,0.0,0.0,0.0,0.0,0.0,0.0,0.0,-1.2935,0.0,0.0,0.0,0.0,-1.0253,0.0,-1.3209,-1.3765,-1.3662,-1.3602,-1.3602,-1.3602,-1.3602,-1.3602,-1.3602,-1.3602,-1.3602,-1.3602,-1.3602,-1.3602,-1.3602,-1.3602,-1.3602,-1.3602,-1.3602,-1.3602,-1.3602,-1.3496,-1.2963,-1.4629,-1.4646,-1.4602,-1.4363,-1.4178,-1.4037,-1.3939,-1.3743,-1.3602,-1.3602,-1.3602,-1.3602,-1.3602,-1.3602,-1.3602,-1.3602,-1.3602,-1.3602,-1.3602,-1.3558,-1.3531,-1.3531,-1.3461,-1.3401,-1.3352,-1.3325,-1.3406,0.0,0.0,0.0,-1.4178,-1.4276,-1.4222,-1.4031,-1.408,-1.4048,-1.3955,-1.3934,-1.3874,-1.3781,-1.3705,-1.3645,-1.3602,-1.3602,-1.3602,-1.3613,-1.3689,-1.3716,-1.3716,-1.3716,-1.3667,-1.3602,-1.3602,-1.3602,-1.3602,-1.3602,-1.3602,-1.3602,-1.3602,-1.3602,-1.3602,-1.3602,-1.3602,-1.3602,-1.3602,-1.3602,-1.3591,-1.3542,-1.3433,-1.3336,-1.3292,-1.3221,-1.3134,-1.3015,0.0,0.0,0.0,0.0,0.0,0.0,0.0,0.0,0.0,0.0,0.0,0.0,0.0,0.0,0.0,0.0,0.0,-1.2058,0.0,-1.3379,-1.3673,-1.3629,-1.3602,-1.3602,-1.3602,-1.3602,-1.3602,-1.3602,-1.3602,-1.3602,-1.3602,-1.3602,-1.3602,-1.3602,-1.3602,-1.3602,-1.3602,-1.3602,-1.3602,-1.3602,-1.3602,-1.3496,-1.4646,-1.4619,-1.4532,-1.4265,-1.414,-1.4015,-1.3819,-1.3716,-1.3751,-1.3819,-1.3819,-1.3819,-1.3602,-1.3602,-1.3602,-1.3602,-1.3602,-1.3602,-1.3602,-1.3846,-1.3974,-1.3974,-1.403,0.0,-1.3841,-1.3647,-1.3675,-1.3602,-1.3809,0.0,-1.4108,-1.4151,-1.4069,-1.3906,-1.3939,-1.3939,-1.3906,-1.3857,-1.3819,-1.3781,-1.3694,-1.3635,-1.3602,-1.3602,-1.3629,-1.3667,-1.3754,-1.3787,-1.3787,-1.3787,-1.3705,-1.3602,-1.3602,-1.3602,-1.3602,-1.3602,-1.3602,-1.3602,-1.3602,-1.3602,-1.3602,-1.3602,-1.3602,-1.3602,-1.3602,-1.3602,-1.3602,-1.3602,-1.3537,-1.3466,-1.3428,-1.3352,-1.3254,-1.314,0.0,0.0,0.0,0.0,0.0,0.0,0.0,0.0,0.0,0.0,0.0,0.0,0.0,0.0,0.0,0.0,0.0,0.0,0.0,0.0,0.0,-1.3624,-1.3602,-1.3602,-1.3602,-1.3602,-1.3602,-1.3602,-1.3602,-1.3602,-1.3602,-1.3602,-1.3602,-1.3602,-1.3602,-1.3602,-1.3602,-1.3602,-1.3602,-1.3602,-1.3602,-1.3602,-1.4575,-1.4504,-1.439,-1.4026,-1.3961,-1.3917,-1.3803,-1.3787,-1.3957,-1.4364,-1.4346,-1.4241,-1.3708,-1.3602,-1.3602,-1.3602,-1.3602,-1.3602,-1.3602,-1.4243,-1.4738,0.0,0.0,-1.541,-1.4738,-1.4732,-1.4355,-1.3602,0.0,0.0,-1.3613,-1.3738,-1.3792,-1.3792,-1.3906,-1.3896,-1.3798,-1.3906,-1.389,-1.3787,-1.3787,-1.3711,-1.3602,-1.3602,-1.3678,-1.3787,-1.3787,-1.3787,-1.3787,-1.3787,-1.3705,-1.3602,-1.3602,-1.3602,-1.3602,-1.3602,-1.3602,-1.3602,-1.3602,-1.3602,-1.3602,-1.3602,-1.3602,-1.3602,-1.3602,-1.3602,-1.3602,-1.3602,-1.3602,-1.3564,-1.3444,-1.3417,-1.3379,-1.3254,0.0,0.0,0.0,0.0,0.0,0.0,0.0,0.0,0.0,0.0,0.0,0.0,0.0,0.0,0.0,0.0,0.0,-1.3417,-1.3417,0.0,-1.3781,-1.3667,-1.3602,-1.3602,-1.3602,-1.3602,-1.3602,-1.3602,-1.3602,-1.3602,-1.3602,-1.3602,-1.3602,-1.3602,-1.3602,-1.3602,-1.3602,-1.3602,-1.3602,-1.3602,-1.3602,-1.3602,-1.4407,-1.4379,-1.4347,-1.4222,-1.4458,-1.4719,-1.4581,-1.486,-1.5052,-1.5117,-1.5027,-1.4973,-1.4756,-1.4762,-1.4762,-1.4762,-1.4762,-1.4762,-1.4762,-1.5093,-1.5277,-1.5277,-1.5335,-1.5335,-1.5271,-1.5102,-1.4925,-1.4762,0.0,-1.4316,-1.3847,-1.3885,-1.3819,-1.3667,-1.3787,-1.3819,-1.3792,-1.3825,-1.3819,-1.3781,-1.3694,-1.364,-1.3613,-1.37,-1.3754,-1.3809,-1.3966,-1.4026,-1.4015,-1.3928,-1.3874,-1.3814,-1.3656,-1.3602,-1.3602,-1.3602,-1.3602,-1.3602,-1.3602,-1.3602,-1.3602,-1.3602,-1.3602,-1.3602,-1.3602,-1.3602,-1.3602,-1.3602,-1.3602,-1.3591,-1.3553,-1.3477,-1.3406,-1.3368,-1.3265,0.0,0.0,0.0,0.0,0.0,0.0,0.0,0.0,-1.2977,0.0,0.0,0.0,0.0,0.0,0.0,0.0,0.0,-1.3379,0.0,-1.3662,-1.3624,-1.3602,-1.3602,-1.3602,-1.3602,-1.3602,-1.3602,-1.3602,-1.3602,-1.3602,-1.3602,-1.3602,-1.3602,-1.3602,-1.3602,-1.3602,-1.3602,-1.3602,-1.3602,-1.3602,-1.3602,-1.4986,-1.4986,-1.4986,-1.4986,-1.5249,-1.5399,-1.5358,-1.553,-1.5727,-1.5892,-1.5811,-1.5861,-1.6073,-1.6073,-1.5948,-1.5474,-1.5362,-1.5387,-1.5436,-1.5778,-1.5967,-1.5967,-1.6093,-1.6068,-1.5885,-1.5673,-1.5469,-1.5283,-1.5135,-1.479,-1.4463,-1.4463,-1.4383,-1.4235,-1.432,-1.4355,-1.4355,-1.4355,-1.4355,-1.4349,-1.4058,-1.4024,-1.4246,-1.4164,-1.4136,-1.4202,-1.461,-1.4458,-1.4124,-1.4216,-1.4144,-1.3857,-1.3667,-1.3602,-1.3602,-1.3602,-1.3602,-1.3602,-1.3602,-1.3602,-1.3602,-1.3602,-1.3602,-1.3602,-1.3602,-1.3602,-1.3602,-1.3602,-1.3602,-1.3602,-1.3602,-1.3542,-1.3477,-1.3428,-1.3357,-1.3292,-1.3243,0.0,0.0,0.0,0.0,0.0,0.0,-1.302,0.0,0.0,0.0,0.0,0.0,0.0,0.0,-1.3238,-1.3357,0.0,-1.3537,-1.358,-1.3602,-1.3602,-1.3602,-1.3602,-1.3602,-1.3602,-1.3602,-1.3602,-1.3602,-1.3602,-1.3602,-1.3602,-1.3602,-1.3602,-1.3602,-1.3602,-1.3602,-1.3602,-1.3602,-1.3602,-1.6089,-1.6089,-1.6089,-1.6089,-1.6096,-1.6157,-1.6028,-1.5997,-1.6166,-1.6582,-1.6664,-1.688,-1.7311,-1.7419,-1.6935,-1.5741,-1.5616,-1.5665,-1.5794,-1.6474,-1.6878,-1.6865,-1.7295,-1.7344,-1.6645,-1.6508,-1.6054,-1.5388,-1.5388,-1.5388,-1.5283,-1.5283,-1.5283,-1.5283,-1.5283,-1.5283,-1.5283,-1.5283,-1.5283,-1.5283,-1.4657,-1.4762,-1.5301,-1.4916,-1.4831,-1.4953,-1.5633,-1.5243,-1.4349,-1.4765,-1.4429,-1.3883,-1.3751,-1.3708,-1.3713,-1.3613,-1.3618,-1.3618,-1.3618,-1.3618,-1.3613,-1.3607,-1.3602,-1.3602,-1.3602,-1.3602,-1.3602,-1.3602,-1.3602,-1.3602,-1.3602,-1.3602,-1.3564,-1.345,-1.3433,-1.3395,-1.3281,0.0,0.0,0.0,0.0,0.0,0.0,-1.3238,-1.3151,0.0,0.0,0.0,0.0,0.0,-1.3368,-1.3254,-1.3368,-1.3433,-1.3433,-1.3548,-1.3602,-1.3602,-1.3602,-1.3602,-1.3602,-1.3602,-1.3602,-1.3602,-1.3602,-1.3602,-1.3602,-1.3602,-1.3602,-1.3602,-1.3602,-1.3602,-1.3602,-1.3602,-1.3602,-1.3602,-1.6089,-1.6089,-1.6089,-1.6089,-1.6434,-1.676,-1.6709,-1.695,-1.72,-1.7378,-1.7277,-1.7311,-1.7419,-1.7419,-1.7345,-1.71,-1.7001,-1.6948,-1.6988,-1.7235,-1.7378,-1.7264,-1.7365,-1.7298,-1.7036,-1.6895,-1.6591,-1.592,-1.592,-1.571,-1.5283,-1.5283,-1.5283,-1.5283,-1.5283,-1.5283,-1.5283,-1.5283,-1.5283,-1.5283,-1.5178,-1.5178,-1.5313,-1.5445,-1.5452,-1.5506,-1.5961,-1.582,-1.5563,-1.5554,-1.535,-1.5177,-1.4939,-1.4862,-1.478,-1.3929,-1.3743,-1.3743,-1.3743,-1.3743,-1.3722,-1.3629,-1.3602,-1.3602,-1.3602,-1.3602,-1.3602,-1.3602,-1.3602,-1.3602,-1.3602,-1.3602,-1.3597,-1.3564,-1.3558,-1.3553,-1.352,-1.3439,0.0,0.0,-1.3336,-1.327,-1.3243,-1.3238,-1.3254,0.0,0.0,0.0,-1.3471,-1.3444,-1.3406,-1.3379,-1.3499,-1.3558,-1.3558,-1.3591,-1.3602,-1.3602,-1.3602,-1.3602,-1.3602,-1.3602,-1.3602,-1.3602,-1.3602,-1.3602,-1.3602,-1.3602,-1.3602,-1.3602,-1.3602,-1.3602,-1.3602,-1.3602,-1.3602,-1.3602,-1.8508,-1.7632,-1.7197,-1.8281,-1.786,-1.7424,-1.7424,-1.7585,-1.7738,-1.7738,-1.767,-1.7623,-1.7623,-1.7623,-1.765,-1.7738,-1.7609,-1.7555,-1.7616,-1.7704,-1.7704,-1.7623,-1.7494,-1.7385,-1.7297,-1.7087,-1.6873,-1.6558,-1.6558,-1.6341,-1.6131,-1.6131,-1.6131,-1.6131,-1.6131,-1.6131,-1.6131,-1.6131,-1.6131,-1.6026,-1.5815,-1.5815,-1.6058,-1.6125,-1.6124,-1.6156,-1.6769,-1.6533,-1.6047,-1.611,-1.5908,-1.565,-1.5368,-1.5283,-1.522,-1.4778,-1.4468,-1.422,-1.4282,-1.4045,-1.376,-1.3635,-1.3602,-1.3602,-1.3602,-1.3602,-1.3602,-1.3602,-1.3602,-1.3602,-1.3602,-1.3602,-1.3602,-1.3602,-1.3602,-1.3602,-1.3602,-1.3548,-1.3504,-1.3504,-1.3444,-1.3385,-1.3325,-1.3319,-1.3325,-1.3336,-1.339,0.0,-1.3515,-1.351,-1.3477,-1.3423,-1.3488,-1.352,-1.352,-1.3575,-1.3602,-1.3602,-1.3602,-1.3602,-1.3602,-1.3602,-1.3602,-1.3602,-1.3602,-1.3602,-1.3602,-1.3602,-1.3602,-1.3602,-1.3602,-1.3602,-1.3602,-1.3602,-1.3602,-1.3602,-2.1798,-2.0262,-1.95,-2.1453,-1.9933,-1.8412,-1.8412,-1.8074,-1.786,-1.786,-1.786,-1.786,-1.786,-1.786,-1.786,-1.786,-1.7758,-1.7738,-1.786,-1.786,-1.7846,-1.7826,-1.7568,-1.7412,-1.7385,-1.7121,-1.6978,-1.6978,-1.6978,-1.6978,-1.6978,-1.6978,-1.6978,-1.6978,-1.6978,-1.6978,-1.6978,-1.6978,-1.6978,-1.6978,-1.6446,-1.6558,-1.7012,-1.6768,-1.6658,-1.6697,-1.7642,-1.7197,-1.6384,-1.6672,-1.636,-1.5865,-1.5605,-1.5617,-1.5655,-1.5828,-1.5499,-1.4903,-1.4924,-1.4531,-1.3973,-1.3846,-1.3813,-1.3813,-1.3708,-1.3708,-1.3713,-1.3602,-1.3602,-1.3602,-1.3602,-1.3602,-1.3607,-1.3629,-1.3618,-1.3613,-1.3629,-1.3613,-1.3602,-1.3602,-1.3602,-1.3564,-1.3461,-1.345,-1.3406,-1.3303,-1.339,-1.345,-1.345,-1.3548,-1.3558,-1.345,-1.345,-1.345,-1.345,-1.3553,-1.3602,-1.3602,-1.3602,-1.3602,-1.3602,-1.3602,-1.3602,-1.3602,-1.3602,-1.3602,-1.3602,-1.3602,-1.3602,-1.3602,-1.3602,-1.3602,-1.3602,-1.3602,-1.3602,-1.3602,-2.4291,-2.3965,-2.3856,-2.4182,-2.2328,-2.0811,-2.0811,-1.9177,-1.786,-1.786,-1.786,-1.786,-1.786,-1.786,-1.786,-1.786,-1.7846,-1.7846,-1.786,-1.786,-1.7812,-1.7684,-1.7514,-1.7358,-1.7229,-1.7066,-1.6978,-1.6978,-1.6978,-1.6978,-1.6978,-1.6978,-1.6978,-1.6978,-1.6978,-1.6978,-1.6978,-1.6978,-1.6978,-1.6978,-1.6873,-1.6873,-1.7012,-1.7197,-1.7311,-1.7352,-1.7758,-1.7749,-1.7619,-1.7445,-1.7311,-1.7069,-1.6996,-1.6862,-1.6828,-1.7009,-1.6645,-1.6118,-1.5821,-1.5458,-1.5247,-1.5108,-1.5072,-1.4868,-1.4346,-1.4241,-1.4135,-1.3708,-1.3602,-1.3602,-1.3602,-1.3602,-1.364,-1.3743,-1.3673,-1.364,-1.3743,-1.3667,-1.3602,-1.3602,-1.3602,-1.3597,-1.3575,-1.3575,-1.3569,-1.3548,-1.3564,-1.3575,-1.3575,-1.3597,-1.3597,-1.3575,-1.3575,-1.3575,-1.3575,-1.3597,-1.3602,-1.3602,-1.3602,-1.3602,-1.3602,-1.3602,-1.3602,-1.3602,-1.3602,-1.3602,-1.3602,-1.3602,-1.3602,-1.3602,-1.3602,-1.3602,-1.3602,-1.3602,-1.3602,-1.3602,-2.6677,-2.5703,-2.4835,-2.4835,-2.2883,-2.0921,-1.9618,-1.8626,-1.786,-1.786,-1.786,-1.786,-1.786,-1.786,-1.786,-1.786,-1.786,-1.786,-1.786,-1.786,-1.7826,-1.7772,-1.7541,-1.7311,-1.708,-1.7012,-1.6978,-1.6978,-1.6978,-1.6978,-1.6978,-1.6978,-1.6978,-1.6978,-1.6978,-1.6978,-1.6978,-1.6978,-1.6978,-1.6978,-1.6978,-1.6978,-1.7012,-1.7311,-1.7419,-1.746,-1.7758,-1.786,-1.7846,-1.7704,-1.7548,-1.7392,-1.7243,-1.7148,-1.7141,-1.7358,-1.71,-1.6673,-1.6107,-1.5747,-1.557,-1.543,-1.5338,-1.5178,-1.4973,-1.4868,-1.4762,-1.413,-1.403,-1.3924,-1.3602,-1.3602,-1.3624,-1.3678,-1.364,-1.3624,-1.3678,-1.364,-1.3602,-1.3602,-1.3602,-1.3602,-1.3602,-1.3602,-1.3602,-1.3602,-1.3602,-1.3602,-1.3602,-1.3602,-1.3602,-1.3602,-1.3602,-1.3602,-1.3602,-1.3602,-1.3602,-1.3602,-1.3602,-1.3602,-1.3602,-1.3602,-1.3602,-1.3602,-1.3602,-1.3602,-1.3602,-1.3602,-1.3602,-1.3602,-1.3602,-1.3602,-1.3602,-1.3602,-1.3602,-1.3602,-2.8982,-2.7618,-2.6245,-2.5703,-2.3638,-2.136,-1.906,-1.8184,-1.786,-1.786,-1.786,-1.786,-1.786,-1.786,-1.786,-1.786,-1.786,-1.7846,-1.7812,-1.7812,-1.7812,-1.7812,-1.7528,-1.7249,-1.6985,-1.6978,-1.6978,-1.6978,-1.6978,-1.6978,-1.6978,-1.6978,-1.6978,-1.6978,-1.6978,-1.6978,-1.6978,-1.6978,-1.6978,-1.6978,-1.6978,-1.6978,-1.7012,-1.7311,-1.7419,-1.746,-1.7758,-1.786,-1.7846,-1.7738,-1.7575,-1.7399,-1.7283,-1.7195,-1.7182,-1.7365,-1.7315,-1.7067,-1.6479,-1.6231,-1.6093,-1.5949,-1.5811,-1.571,-1.5493,-1.55,-1.5289,-1.4762,-1.4657,-1.4446,-1.4024,-1.3919,-1.3824,-1.3852,-1.3729,-1.3613,-1.364,-1.3624,-1.3602,-1.3602,-1.3602,-1.3602,-1.3602,-1.3602,-1.3602,-1.3602,-1.3602,-1.3602,-1.3602,-1.3602,-1.3602,-1.3602,-1.3602,-1.3602,-1.3602,-1.3602,-1.3602,-1.3602,-1.3602,-1.3602,-1.3602,-1.3602,-1.3602,-1.3602,-1.3602,-1.3602,-1.3602,-1.3602,-1.3602,-1.3602,-1.3602,-1.3602,-1.3602,-1.3602,-1.3602,-1.3602,-3.1198,-3.1189,-3.0607,-2.8414,-2.6136,-2.3747,-2.1368,-1.9287,-1.786,-1.786,-1.786,-1.786,-1.786,-1.786,-1.786,-1.786,-1.786,-1.7812,-1.767,-1.7663,-1.7663,-1.7663,-1.7372,-1.7141,-1.6985,-1.6978,-1.6978,-1.6978,-1.6978,-1.6978,-1.6978,-1.6978,-1.6978,-1.6978,-1.6978,-1.6978,-1.6978,-1.6978,-1.6978,-1.6978,-1.6978,-1.6978,-1.7012,-1.7311,-1.7419,-1.746,-1.7758,-1.786,-1.786,-1.7846,-1.765,-1.7419,-1.7405,-1.7216,-1.7053,-1.7338,-1.7629,-1.7826,-1.7574,-1.7426,-1.7278,-1.7123,-1.6981,-1.6768,-1.6131,-1.6026,-1.592,-1.5388,-1.5178,-1.5178,-1.5178,-1.4762,-1.4381,-1.4495,-1.3991,-1.3645,-1.376,-1.3678,-1.3602,-1.3602,-1.3602,-1.3602,-1.3602,-1.3602,-1.3602,-1.3602,-1.3602,-1.3602,-1.3602,-1.3602,-1.3602,-1.3602,-1.3602,-1.3602,-1.3602,-1.3602,-1.3602,-1.3602,-1.3602,-1.3602,-1.3602,-1.3602,-1.3602,-1.3602,-1.3602,-1.3602,-1.3602,-1.3602,-1.3602,-1.3602,-1.3602,-1.3602,-1.3602,-1.3602,-1.3602,-1.3602,-3.136,-3.1481,-3.0409,-2.6755,-2.5378,-2.3529,-1.9728,-1.8412,-1.786,-1.786,-1.786,-1.786,-1.786,-1.7792,-1.7772,-1.786,-1.7684,-1.7609,-1.765,-1.7473,-1.7365,-1.7365,-1.7256,-1.7127,-1.6985,-1.6978,-1.6978,-1.6978,-1.6978,-1.6978,-1.6978,-1.6978,-1.6978,-1.6978,-1.6978,-1.6978,-1.6978,-1.6978,-1.6978,-1.6978,-1.6978,-1.6978,-1.7005,-1.7202,-1.7338,-1.7446,-1.765,-1.7792,-1.786,-1.786,-1.767,-1.7419,-1.7419,-1.7277,-1.7168,-1.7473,-1.7704,-1.7846,-1.7792,-1.7602,-1.7405,-1.7351,-1.7154,-1.6978,-1.6663,-1.6663,-1.6453,-1.592,-1.5815,-1.571,-1.5388,-1.5078,-1.4991,-1.5033,-1.4481,-1.4152,-1.4197,-1.3846,-1.3602,-1.3602,-1.3602,-1.3602,-1.3602,-1.3602,-1.3602,-1.3602,-1.3602,-1.3602,-1.3602,-1.3602,-1.3602,-1.3602,-1.3602,-1.3602,-1.3602,-1.3602,-1.3602,-1.3602,-1.3602,-1.3602,-1.3602,-1.3602,-1.3602,-1.3602,-1.3602,-1.3602,-1.3602,-1.3602,-1.3602,-1.3602,-1.3602,-1.3602,-1.3602,-1.3602,-1.3602,-1.3602,-3.1107,-3.1276,-2.994,-2.5468,-2.4731,-2.324,-1.8626,-1.7826,-1.7792,-1.7792,-1.7792,-1.7792,-1.7792,-1.767,-1.7629,-1.7792,-1.7568,-1.7446,-1.75,-1.727,-1.7127,-1.7127,-1.7127,-1.708,-1.6985,-1.6978,-1.6978,-1.6978,-1.6978,-1.6978,-1.6978,-1.6978,-1.6978,-1.6978,-1.6978,-1.6978,-1.6978,-1.6978,-1.6978,-1.6978,-1.6978,-1.6978,-1.6998,-1.7141,-1.729,-1.7439,-1.7595,-1.7738,-1.786,-1.786,-1.767,-1.7419,-1.7419,-1.7351,-1.7304,-1.7514,-1.7717,-1.786,-1.786,-1.765,-1.7419,-1.7419,-1.7202,-1.6978,-1.6978,-1.6978,-1.6873,-1.6453,-1.6341,-1.6236,-1.592,-1.571,-1.5605,-1.5605,-1.5078,-1.4657,-1.4452,-1.403,-1.3819,-1.3602,-1.3602,-1.3602,-1.3602,-1.3602,-1.3602,-1.3602,-1.3602,-1.3602,-1.3602,-1.3602,-1.3602,-1.3602,-1.3602,-1.3602,-1.3602,-1.3602,-1.3602,-1.3602,-1.3602,-1.3602,-1.3602,-1.3602,-1.3602,-1.3602,-1.3602,-1.3602,-1.3602,-1.3602,-1.3602,-1.3602,-1.3602,-1.3602,-1.3602,-1.3602,-1.3602,-1.3602,-3.0612,-3.1022,-2.9883,-2.5273,-2.4523,-2.308,-1.8605,-1.7738,-1.765,-1.765,-1.765,-1.765,-1.765,-1.7507,-1.748,-1.7629,-1.7507,-1.7351,-1.7202,-1.706,-1.6978,-1.6978,-1.6978,-1.6978,-1.6978,-1.6978,-1.6978,-1.6978,-1.6978,-1.6978,-1.6978,-1.6978,-1.6978,-1.6978,-1.6978,-1.6978,-1.6978,-1.6978,-1.6978,-1.6978,-1.6978,-1.6978,-1.6998,-1.7141,-1.7283,-1.7439,-1.7595,-1.7738,-1.786,-1.786,-1.767,-1.7419,-1.7419,-1.7419,-1.7419,-1.7419,-1.7629,-1.786,-1.786,-1.765,-1.7419,-1.7419,-1.7202,-1.6978,-1.6978,-1.6978,-1.6978,-1.6978,-1.6978,-1.6978,-1.6978,-1.6558,-1.6131,-1.6131,-1.571,-1.5078,-1.4452,-1.4452,-1.4241,-1.3708,-1.3602,-1.3602,-1.3602,-1.3602,-1.3602,-1.3602,-1.3602,-1.3602,-1.3602,-1.3602,-1.3602,-1.3602,-1.3602,-1.3602,-1.3602,-1.3602,-1.3602,-1.3602,-1.3602,-1.3602,-1.3602,-1.3602,-1.3602,-1.3602,-1.3602,-1.3602,-1.3602,-1.3602,-1.3602,-1.3602,-1.3602,-1.3602,-1.3602,-1.3602,-1.3602,-1.3602,-3.0576,-3.0877,-3.0154,-2.7071,-2.5496,-2.352,-2.0347,-1.8481,-1.7487,-1.7487,-1.7487,-1.7487,-1.7487,-1.7351,-1.7324,-1.7473,-1.7256,-1.7093,-1.7046,-1.7005,-1.6978,-1.6978,-1.6978,-1.6978,-1.6978,-1.6978,-1.6978,-1.6978,-1.6978,-1.6978,-1.6978,-1.6978,-1.6978,-1.6978,-1.6978,-1.6978,-1.6978,-1.6978,-1.6978,-1.6978,-1.6978,-1.6978,-1.6985,-1.7026,-1.7134,-1.7283,-1.7433,-1.7589,-1.7717,-1.7717,-1.7582,-1.7385,-1.7175,-1.7182,-1.7283,-1.7392,-1.7561,-1.7738,-1.7826,-1.765,-1.7419,-1.7419,-1.7202,-1.6978,-1.6978,-1.6978,-1.6978,-1.6978,-1.6978,-1.6978,-1.6978,-1.6873,-1.6768,-1.6768,-1.6236,-1.571,-1.5078,-1.4657,-1.4241,-1.3708,-1.3602,-1.3602,-1.3602,-1.3602,-1.3602,-1.3602,-1.3602,-1.3602,-1.3602,-1.3602,-1.3602,-1.3602,-1.3602,-1.3602,-1.3602,-1.3602,-1.3602,-1.3602,-1.3602,-1.3602,-1.3602,-1.3602,-1.3602,-1.3602,-1.3602,-1.3602,-1.3602,-1.3602,-1.3602,-1.3602,-1.3602,-1.3602,-1.3602,-1.3602,-1.3602,-1.3602,-3.0419,-3.066,-3.0104,-2.778,-2.6419,-2.4577,-2.1251,-1.9494,-1.8281,-1.7438,-1.7331,-1.7331,-1.7331,-1.7195,-1.7168,-1.7317,-1.7114,-1.6978,-1.6978,-1.6978,-1.6978,-1.6978,-1.6978,-1.6978,-1.6978,-1.6978,-1.6978,-1.6978,-1.6978,-1.6978,-1.6978,-1.6978,-1.6978,-1.6978,-1.6978,-1.6978,-1.6978,-1.6978,-1.6978,-1.6978,-1.6978,-1.6978,-1.6978,-1.6978,-1.7066,-1.7209,-1.7365,-1.7521,-1.765,-1.765,-1.7507,-1.729,-1.7053,-1.708,-1.7222,-1.7372,-1.7528,-1.7684,-1.7826,-1.7684,-1.7494,-1.7439,-1.7202,-1.6978,-1.6978,-1.6978,-1.6978,-1.6978,-1.6978,-1.6978,-1.6978,-1.6978,-1.6978,-1.6978,-1.6663,-1.6236,-1.571,-1.5289,-1.4868,-1.4341,-1.4024,-1.3924,-1.3924,-1.3708,-1.3602,-1.3602,-1.3602,-1.3602,-1.3602,-1.3602,-1.3602,-1.3602,-1.3602,-1.3602,-1.3602,-1.3602,-1.3602,-1.3602,-1.3602,-1.3602,-1.3602,-1.3602,-1.3602,-1.3602,-1.3602,-1.3602,-1.3602,-1.3602,-1.3602,-1.3602,-1.3602,-1.3602,-1.3602,-1.3602,-1.3602,-1.3602,-3.0214,-3.0431,-2.9971,-2.7747,-2.7344,-2.5952,-2.192,-2.0946,-2.0004,-1.7805,-1.7487,-1.738,-1.7175,-1.706,-1.7032,-1.7161,-1.7053,-1.6978,-1.6978,-1.6978,-1.6978,-1.6978,-1.6978,-1.6978,-1.6978,-1.6978,-1.6978,-1.6978,-1.6978,-1.6978,-1.6978,-1.6978,-1.6978,-1.6978,-1.6978,-1.6978,-1.6978,-1.6978,-1.6978,-1.6978,-1.6978,-1.6978,-1.6978,-1.6978,-1.706,-1.7195,-1.7344,-1.75,-1.7629,-1.7629,-1.7433,-1.7168,-1.7026,-1.7066,-1.7209,-1.7372,-1.7521,-1.767,-1.7826,-1.7758,-1.7609,-1.746,-1.7209,-1.6998,-1.6985,-1.6978,-1.6978,-1.6978,-1.6978,-1.6978,-1.6978,-1.6978,-1.6978,-1.6978,-1.6978,-1.6768,-1.6131,-1.6131,-1.592,-1.5388,-1.4762,-1.4452,-1.4452,-1.3924,-1.3602,-1.3602,-1.3602,-1.3602,-1.3602,-1.3602,-1.3602,-1.3602,-1.3602,-1.3602,-1.3602,-1.3602,-1.3602,-1.3602,-1.3602,-1.3602,-1.3602,-1.3602,-1.3602,-1.3602,-1.3602,-1.3602,-1.3602,-1.3602,-1.3602,-1.3602,-1.3602,-1.3602,-1.3602,-1.3602,-1.3602,-1.3602,-3.0214,-3.0431,-3.0334,-2.9609,-2.8278,-2.6887,-2.5717,-2.4106,-2.2098,-1.9927,-1.9613,-1.8993,-1.7236,-1.6998,-1.6992,-1.7026,-1.6998,-1.6978,-1.6978,-1.6978,-1.6978,-1.6978,-1.6978,-1.6978,-1.6978,-1.6978,-1.6978,-1.6978,-1.6978,-1.6978,-1.6978,-1.6978,-1.6978,-1.6978,-1.6978,-1.6978,-1.6978,-1.6978,-1.6978,-1.6978,-1.6978,-1.6978,-1.6978,-1.6978,-1.6998,-1.7046,-1.7188,-1.7338,-1.7467,-1.7467,-1.7344,-1.7168,-1.7026,-1.7005,-1.708,-1.7344,-1.7446,-1.7528,-1.7792,-1.7758,-1.7609,-1.746,-1.7283,-1.7114,-1.7005,-1.6978,-1.6978,-1.6978,-1.6978,-1.6978,-1.6978,-1.6978,-1.6978,-1.6978,-1.6978,-1.6768,-1.6131,-1.6131,-1.592,-1.5388,-1.4762,-1.4452,-1.4452,-1.3924,-1.3602,-1.3602,-1.3602,-1.3602,-1.3602,-1.3602,-1.3602,-1.3602,-1.3602,-1.3602,-1.3602,-1.3602,-1.3602,-1.3602,-1.3602,-1.3602,-1.3602,-1.3602,-1.3602,-1.3602,-1.3602,-1.3602,-1.3602,-1.3602,-1.3602,-1.3602,-1.3602,-1.3602,-1.3602,-1.3602,-1.3602,-1.3602,-3.0214,-3.0322,-3.0371,-3.0238,-2.9393,-2.829,-2.7122,-2.5964,-2.4412,-2.214,-2.1829,-2.1007,-1.8843,-1.8529,-1.8118,-1.7083,-1.6978,-1.6978,-1.6978,-1.6978,-1.6978,-1.6978,-1.6978,-1.6978,-1.6978,-1.6978,-1.6978,-1.6978,-1.6978,-1.6978,-1.6978,-1.6978,-1.6978,-1.6978,-1.6978,-1.6978,-1.6978,-1.6978,-1.6978,-1.6978,-1.6978,-1.6978,-1.6978,-1.6978,-1.6978,-1.6998,-1.7141,-1.7243,-1.7324,-1.7399,-1.7277,-1.708,-1.7005,-1.6978,-1.7026,-1.7249,-1.7365,-1.7467,-1.7704,-1.7758,-1.7704,-1.7473,-1.7358,-1.7243,-1.7032,-1.6978,-1.6978,-1.6978,-1.6978,-1.6978,-1.6978,-1.6978,-1.6978,-1.6978,-1.6978,-1.6873,-1.6558,-1.6558,-1.6453,-1.6131,-1.5605,-1.4973,-1.4452,-1.4135,-1.3924,-1.3602,-1.3602,-1.3602,-1.3602,-1.3602,-1.3602,-1.3602,-1.3602,-1.3602,-1.3602,-1.3602,-1.3602,-1.3602,-1.3602,-1.3602,-1.3602,-1.3602,-1.3602,-1.3602,-1.3602,-1.3602,-1.3602,-1.3602,-1.3602,-1.3602,-1.3602,-1.3602,-1.3602,-1.3602,-1.3602,-1.3602,-3.0214,-3.0214,-3.0214,-3.0214,-3.0214,-2.9593,-2.7725,-2.7418,-2.6691,-2.4412,-2.4206,-2.3278,-2.1103,-2.0488,-1.9454,-1.7188,-1.6978,-1.6978,-1.6978,-1.6978,-1.6978,-1.6978,-1.6978,-1.6978,-1.6978,-1.6978,-1.6978,-1.6978,-1.6978,-1.6978,-1.6978,-1.6978,-1.6978,-1.6978,-1.6978,-1.6978,-1.6978,-1.6978,-1.6978,-1.6978,-1.6978,-1.6978,-1.6978,-1.6978,-1.6978,-1.6998,-1.7114,-1.7168,-1.7216,-1.7372,-1.7243,-1.7012,-1.6985,-1.6978,-1.7012,-1.7148,-1.7304,-1.7453,-1.7609,-1.7758,-1.7792,-1.7494,-1.7419,-1.7344,-1.7046,-1.6978,-1.6978,-1.6978,-1.6978,-1.6978,-1.6978,-1.6978,-1.6978,-1.6978,-1.6978,-1.6978,-1.6978,-1.6978,-1.6978,-1.6978,-1.6453,-1.571,-1.4663,-1.4452,-1.4241,-1.3819,-1.3602,-1.3602,-1.3602,-1.3602,-1.3602,-1.3602,-1.3602,-1.3602,-1.3602,-1.3602,-1.3602,-1.3602,-1.3602,-1.3602,-1.3602,-1.3602,-1.3602,-1.3602,-1.3602,-1.3602,-1.3602,-1.3602,-1.3602,-1.3602,-1.3602,-1.3602,-1.3602,-1.3602,-1.3602,-1.3602,-3.0214,-3.0214,-3.0214,-3.0214,-3.0214,-3.0112,-2.9796,-2.9796,-2.8971,-2.6691,-2.6487,-2.5656,-2.3381,-2.1414,-1.9454,-1.7188,-1.6978,-1.6978,-1.6978,-1.6978,-1.6978,-1.6978,-1.6978,-1.6978,-1.6978,-1.6978,-1.6978,-1.6978,-1.6978,-1.6978,-1.6978,-1.6978,-1.6978,-1.6978,-1.6978,-1.6978,-1.6978,-1.6978,-1.6978,-1.6978,-1.6978,-1.6978,-1.6978,-1.6978,-1.6978,-1.6985,-1.7005,-1.7087,-1.7216,-1.7372,-1.7304,-1.7141,-1.7019,-1.6978,-1.7012,-1.7148,-1.7304,-1.7453,-1.7609,-1.7758,-1.7792,-1.7494,-1.7419,-1.7344,-1.7046,-1.6978,-1.6978,-1.6978,-1.6978,-1.6978,-1.6978,-1.6978,-1.6978,-1.6978,-1.6978,-1.6978,-1.6978,-1.6978,-1.6978,-1.6978,-1.6453,-1.5815,-1.5289,-1.4657,-1.4346,-1.4346,-1.3819,-1.3602,-1.3602,-1.3602,-1.3602,-1.3602,-1.3602,-1.3602,-1.3602,-1.3602,-1.3602,-1.3602,-1.3602,-1.3602,-1.3602,-1.3602,-1.3602,-1.3602,-1.3602,-1.3602,-1.3602,-1.3602,-1.3602,-1.3602,-1.3602,-1.3602,-1.3602,-1.3602,-1.3602,-1.3602,-3.0214,-3.0214,-3.0214,-3.0214,-3.0214,-3.0214,-3.0214,-3.0214,-2.9796,-2.8869,-2.8756,-2.7929,-2.5656,-2.3484,-2.1215,-1.9044,-1.8835,-1.832,-1.7083,-1.6978,-1.6978,-1.6978,-1.6978,-1.6978,-1.6978,-1.6978,-1.6978,-1.6978,-1.6978,-1.6978,-1.6978,-1.6978,-1.6978,-1.6978,-1.6978,-1.6978,-1.6978,-1.6978,-1.6978,-1.6978,-1.6978,-1.6978,-1.6978,-1.6978,-1.6978,-1.6992,-1.7073,-1.7087,-1.71,-1.7243,-1.7195,-1.7066,-1.6998,-1.6978,-1.6992,-1.706,-1.7243,-1.7433,-1.75,-1.7684,-1.7812,-1.7602,-1.7487,-1.7365,-1.7148,-1.7039,-1.6978,-1.6978,-1.6978,-1.6978,-1.6978,-1.6978,-1.6978,-1.6978,-1.6978,-1.6978,-1.6978,-1.6978,-1.6978,-1.6978,-1.6768,-1.6341,-1.5815,-1.55,-1.5078,-1.4452,-1.4135,-1.3924,-1.3602,-1.3602,-1.3602,-1.3602,-1.3602,-1.3602,-1.3602,-1.3602,-1.3602,-1.3602,-1.3602,-1.3602,-1.3602,-1.3602,-1.3602,-1.3602,-1.3602,-1.3602,-1.3602,-1.3602,-1.3602,-1.3602,-1.3602,-1.3602,-1.3602,-1.3602,-1.3602,-1.3602]},{"header":{"parameterUnit":"m.s-1","parameterCategory":1,"la1":30.6,"la2":28.766,"lo1":-90.7593,"lo2":-88.6598,"dx":0.0162,"dy":0.0183,"nx":116,"ny":114,"refTime":"2022-11-09T18:00:00:Z","depth":0,"parameterNumber":3,"parameterNumberName":"V-component_of_WINDS"},"data":[0.0,0.0,0.0,0.0,0.0,0.0,0.0,0.0,0.0,0.0,0.0,0.0,0.0,0.0,0.0,0.0,0.0,0.0,0.0,0.0,0.0,0.0,0.0,0.0,0.0,0.0,0.0,0.0,0.0,0.0,0.0,0.0,0.0,0.0,0.0,0.0,0.0,0.0,0.0,0.0,0.0,0.0,0.0,0.0,0.0,0.0,0.0,0.0,0.0,0.0,0.0,0.0,0.0,0.0,0.0,0.0,0.0,0.0,0.0,0.0,0.0,0.0,0.0,0.0,0.0,0.0,0.0,0.0,0.0,0.0,0.0,0.0,0.0,0.0,0.0,0.0,0.0,0.0,0.0,0.0,0.0,0.0,0.0,0.0,0.0,0.0,0.0,0.0,0.0,0.0,0.0,0.0,0.0,0.0,0.0,0.0,0.0,0.0,0.0,0.0,0.0,0.0,0.0,0.0,0.0,0.0,0.0,0.0,0.0,0.0,0.0,0.0,0.0,0.0,0.0,0.0,0.0,0.0,0.0,0.0,0.0,0.0,0.0,0.0,0.0,0.0,0.0,0.0,0.0,0.0,0.0,0.0,0.0,0.0,0.0,0.0,0.0,0.0,0.0,0.0,0.0,0.0,0.0,0.0,0.0,0.0,0.0,0.0,0.0,0.0,0.0,0.0,0.0,0.0,0.0,0.0,0.0,0.0,0.0,0.0,0.0,0.0,0.0,0.0,0.0,0.0,0.0,0.0,0.0,0.0,0.0,0.0,0.0,0.0,0.0,0.0,0.0,0.0,0.0,0.0,0.0,0.0,0.0,0.0,0.0,0.0,0.0,0.0,0.0,0.0,0.0,0.0,0.0,0.0,0.0,0.0,0.0,0.0,0.0,0.0,0.0,0.0,0.0,0.0,0.0,0.0,0.0,0.0,0.0,0.0,0.0,0.0,0.0,0.0,0.0,0.0,0.0,0.0,0.0,0.0,0.0,0.0,0.0,0.0,0.0,0.0,0.0,0.0,0.0,0.0,0.0,0.0,0.0,0.0,0.0,0.0,0.0,0.0,0.0,0.0,0.0,0.0,0.0,0.0,0.0,0.0,0.0,0.0,0.0,0.0,0.0,0.0,0.0,0.0,0.0,0.0,0.0,0.0,0.0,0.0,0.0,0.0,0.0,0.0,0.0,0.0,0.0,0.0,0.0,0.0,0.0,0.0,0.0,0.0,0.0,0.0,0.0,0.0,0.0,0.0,0.0,0.0,0.0,0.0,0.0,0.0,0.0,0.0,0.0,0.0,0.0,0.0,0.0,0.0,0.0,0.0,0.0,0.0,0.0,0.0,0.0,0.0,0.0,0.0,0.0,0.0,0.0,0.0,0.0,0.0,0.0,0.0,0.0,0.0,0.0,0.0,0.0,0.0,0.0,0.0,0.0,0.0,0.0,0.0,0.0,0.0,0.0,0.0,0.0,0.0,0.0,0.0,0.0,0.0,0.0,0.0,0.0,0.0,0.0,0.0,0.0,0.0,0.0,0.0,0.0,0.0,0.0,0.0,0.0,0.0,0.0,0.0,0.0,0.0,0.0,0.0,0.0,0.0,0.0,0.0,0.0,0.0,0.0,0.0,0.0,0.0,0.0,0.0,0.0,0.0,0.0,0.0,0.0,0.0,0.0,0.0,0.0,0.0,0.0,0.0,0.0,0.0,0.0,0.0,0.0,0.0,0.0,0.0,0.0,0.0,0.0,0.0,0.0,0.0,0.0,0.0,0.0,0.0,0.0,0.0,0.0,0.0,0.0,0.0,0.0,0.0,0.0,0.0,0.0,0.0,0.0,0.0,0.0,0.0,0.0,0.0,0.0,0.0,0.0,0.0,0.0,0.0,0.0,0.0,0.0,0.0,0.0,0.0,0.0,0.0,0.0,0.0,0.0,0.0,0.0,0.0,0.0,0.0,0.0,0.0,0.0,0.0,0.0,0.0,0.0,0.0,0.0,0.0,0.0,0.0,0.0,0.0,0.0,0.0,0.0,0.0,0.0,0.0,0.0,0.0,0.0,0.0,0.0,0.0,0.0,0.0,0.0,0.0,0.0,0.0,0.0,0.0,0.0,0.0,0.0,0.0,0.0,0.0,0.0,0.0,0.0,0.0,0.0,0.0,0.0,0.0,0.0,0.0,0.0,0.0,0.0,0.0,0.0,0.0,0.0,0.0,0.0,0.0,0.0,0.0,0.0,0.0,0.0,0.0,0.0,0.0,0.0,0.0,0.0,0.0,0.0,0.0,0.0,0.0,0.0,0.0,0.0,0.0,0.0,0.0,0.0,0.0,0.0,0.0,0.0,0.0,0.0,0.0,0.0,0.0,0.0,0.0,0.0,0.0,0.0,0.0,0.0,0.0,0.0,0.0,0.0,0.0,0.0,0.0,0.0,0.0,0.0,0.0,0.0,0.0,0.0,0.0,0.0,0.0,0.0,0.0,0.0,0.0,0.0,0.0,0.0,0.0,0.0,0.0,0.0,0.0,0.0,0.0,0.0,0.0,0.0,0.0,0.0,0.0,0.0,0.0,0.0,0.0,0.0,0.0,0.0,0.0,0.0,0.0,0.0,0.0,0.0,0.0,0.0,0.0,0.0,0.0,0.0,0.0,0.0,0.0,0.0,0.0,0.0,0.0,0.0,0.0,0.0,0.0,0.0,0.0,0.0,0.0,0.0,0.0,0.0,0.0,0.0,0.0,0.0,0.0,0.0,0.0,0.0,0.0,0.0,0.0,0.0,0.0,0.0,0.0,0.0,0.0,0.0,0.0,0.0,0.0,0.0,0.0,0.0,0.0,0.0,0.0,0.0,0.0,0.0,0.0,0.0,0.0,0.0,0.0,0.0,0.0,0.0,0.0,0.0,0.0,0.0,0.0,0.0,0.0,0.0,0.0,0.0,0.0,0.0,0.0,0.0,0.0,0.0,0.0,0.0,0.0,0.0,0.0,0.0,0.0,0.0,0.0,0.0,0.0,0.0,0.0,0.0,0.0,0.0,0.0,0.0,0.0,0.0,0.0,0.0,0.0,0.0,0.0,0.0,0.0,0.0,0.0,0.0,0.0,0.0,0.0,0.0,0.0,0.0,0.0,0.0,0.0,0.0,0.0,0.0,0.0,0.0,0.0,0.0,0.0,0.0,0.0,0.0,0.0,0.0,0.0,0.0,0.0,0.0,0.0,0.0,0.0,0.0,0.0,0.0,0.0,0.0,0.0,0.0,0.0,0.0,0.0,0.0,0.0,0.0,0.0,0.0,0.0,0.0,0.0,0.0,0.0,0.0,0.0,0.0,0.0,0.0,0.0,0.0,0.0,0.0,0.0,0.0,0.0,0.0,0.0,0.0,0.0,0.0,0.0,0.0,0.0,0.0,0.0,0.0,0.0,0.0,0.0,0.0,0.0,0.0,0.0,0.0,0.0,0.0,0.0,0.0,0.0,0.0,0.0,0.0,0.0,0.0,0.0,0.0,0.0,0.0,0.0,0.0,0.0,0.0,0.0,0.0,0.0,0.0,0.0,0.0,0.0,0.0,0.0,0.0,0.0,0.0,0.0,0.0,0.0,0.0,0.0,0.0,0.0,0.0,0.0,0.0,0.0,0.0,0.0,0.0,0.0,0.0,0.0,0.0,0.0,0.0,0.0,0.0,0.0,0.0,0.0,0.0,0.0,0.0,0.0,0.0,0.0,0.0,0.0,0.0,0.0,0.0,0.0,0.0,0.0,0.0,0.0,0.0,0.0,0.0,0.0,0.0,0.0,0.0,0.0,0.0,0.0,0.0,0.0,0.0,0.0,0.0,0.0,0.0,0.0,0.0,0.0,0.0,0.0,0.0,0.0,0.0,0.0,0.0,0.0,0.0,0.0,0.0,0.0,0.0,0.0,0.0,0.0,0.0,0.0,0.0,0.0,0.0,0.0,0.0,0.0,0.0,0.0,0.0,0.0,0.0,0.0,0.0,0.0,0.0,0.0,0.0,0.0,0.0,0.0,0.0,0.0,0.0,0.0,0.0,0.0,0.0,0.0,0.0,0.0,0.0,0.0,0.0,0.0,0.0,0.0,0.0,0.0,0.0,0.0,0.0,0.0,0.0,0.0,0.0,0.0,0.0,0.0,0.0,0.0,0.0,0.0,0.0,0.0,0.0,0.0,0.0,0.0,0.0,0.0,0.0,0.0,0.0,0.0,0.0,0.0,0.0,0.0,0.0,0.0,0.0,0.0,0.0,0.0,0.0,0.0,0.0,0.0,0.0,0.0,0.0,0.0,0.0,0.0,0.0,0.0,0.0,0.0,0.0,0.0,0.0,0.0,0.0,0.0,0.0,0.0,0.0,0.0,0.0,0.0,0.0,0.0,0.0,0.0,0.0,0.0,0.0,0.0,0.0,0.0,0.0,0.0,0.0,0.0,0.0,0.0,0.0,0.0,0.0,0.0,0.0,0.0,0.0,0.0,0.0,0.0,0.0,0.0,0.0,0.0,0.0,0.0,0.0,0.0,0.0,0.0,0.0,0.0,0.0,0.0,0.0,0.0,0.0,0.0,0.0,0.0,0.0,0.0,0.0,0.0,0.0,0.0,0.0,0.0,0.0,0.0,0.0,0.0,0.0,0.0,0.0,0.0,0.0,0.0,0.0,0.0,0.0,0.0,0.0,0.0,0.0,0.0,0.0,0.0,0.0,0.0,0.0,0.0,0.0,0.0,0.0,0.0,0.0,0.0,0.0,0.0,0.0,0.0,0.0,0.0,0.0,0.0,0.0,0.0,0.0,0.0,0.0,0.0,0.0,0.0,0.0,0.0,0.0,0.0,0.0,0.0,0.0,0.0,0.0,0.0,0.0,0.0,0.0,0.0,0.0,0.0,0.0,0.0,0.0,0.0,0.0,0.0,0.0,0.0,0.0,0.0,0.0,0.0,0.0,0.0,0.0,0.0,0.0,0.0,0.0,0.0,0.0,0.0,0.0,0.0,0.0,0.0,0.0,0.0,0.0,0.0,0.0,0.0,0.0,0.0,0.0,0.0,0.0,0.0,0.0,0.0,0.0,0.0,0.0,0.0,0.0,0.0,0.0,0.0,0.0,0.0,0.0,0.0,0.0,0.0,0.0,0.0,0.0,0.0,0.0,0.0,0.0,0.0,0.0,0.0,0.0,0.0,0.0,0.0,0.0,0.0,0.0,0.0,0.0,0.0,0.0,0.0,0.0,0.0,0.0,0.0,0.0,0.0,0.0,0.0,0.0,0.0,0.0,0.0,0.0,0.0,0.0,0.0,0.0,0.0,0.0,0.0,0.0,0.0,0.0,0.0,0.0,0.0,0.0,0.0,0.0,0.0,0.0,0.0,0.0,0.0,0.0,0.0,0.0,0.0,0.0,0.0,0.0,0.0,0.0,0.0,0.0,0.0,0.0,0.0,0.0,0.0,0.0,0.0,0.0,0.0,0.0,0.0,0.0,0.0,0.0,0.0,0.0,0.0,0.0,0.0,0.0,0.0,0.0,0.0,0.0,0.0,0.0,0.0,0.0,0.0,0.0,0.0,0.0,0.0,0.0,0.0,0.0,0.0,0.0,0.0,0.0,0.0,0.0,0.0,0.0,0.0,0.0,0.0,0.0,0.0,0.0,0.0,0.0,0.0,0.0,0.0,0.0,0.0,0.0,0.0,0.0,0.0,0.0,0.0,0.0,0.0,0.0,0.0,0.0,0.0,0.0,0.0,0.0,0.0,0.0,0.0,0.0,0.0,0.0,0.0,0.0,0.0,0.0,0.0,0.0,0.0,0.0,0.0,0.0,0.0,0.0,0.0,0.0,0.0,0.0,0.0,0.0,0.0,0.0,0.0,0.0,0.0,0.0,0.0,0.0,0.0,0.0,0.0,0.0,0.0,0.0,0.0,0.0,0.0,0.0,0.0,0.0,0.0,0.0,0.0,0.0,0.0,0.0,0.0,0.0,0.0,0.0,0.0,0.0,0.0,0.0,0.0,0.0,0.0,0.0,0.0,0.0,0.0,0.0,0.0,0.0,0.0,0.0,0.0,0.0,0.0,0.0,0.0,0.0,0.0,0.0,0.0,0.0,0.0,0.0,0.0,0.0,0.0,0.0,0.0,5.9391,0.0,0.0,0.0,0.0,0.0,0.0,0.0,0.0,0.0,0.0,0.0,0.0,0.0,0.0,0.0,0.0,0.0,0.0,0.0,0.0,0.0,0.0,0.0,0.0,5.9631,6.0499,6.144,6.1846,0.0,0.0,0.0,0.0,0.0,0.0,0.0,0.0,0.0,6.4496,6.4843,6.5551,6.5792,6.5568,6.3289,6.1363,5.9809,0.0,0.0,0.0,0.0,0.0,0.0,0.0,0.0,0.0,0.0,0.0,0.0,0.0,0.0,0.0,0.0,0.0,0.0,0.0,0.0,0.0,0.0,0.0,0.0,0.0,0.0,0.0,0.0,0.0,0.0,0.0,0.0,0.0,0.0,0.0,0.0,0.0,0.0,0.0,0.0,0.0,0.0,0.0,0.0,0.0,0.0,0.0,0.0,0.0,0.0,0.0,0.0,0.0,0.0,0.0,0.0,0.0,0.0,0.0,0.0,0.0,0.0,0.0,0.0,0.0,0.0,0.0,0.0,0.0,0.0,0.0,6.06,0.0,0.0,0.0,0.0,0.0,0.0,0.0,0.0,0.0,0.0,0.0,0.0,0.0,0.0,0.0,0.0,0.0,0.0,0.0,0.0,0.0,5.8921,6.0763,6.2435,6.374,6.4642,6.5281,6.5586,6.5665,6.578,0.0,0.0,0.0,0.0,6.6384,6.6345,6.6375,6.6491,6.707,6.7614,6.8034,6.8186,6.6632,6.3713,6.3259,0.0,0.0,0.0,0.0,0.0,0.0,0.0,0.0,0.0,0.0,0.0,0.0,0.0,0.0,0.0,0.0,0.0,0.0,0.0,0.0,0.0,0.0,0.0,0.0,0.0,0.0,0.0,0.0,0.0,0.0,0.0,0.0,0.0,0.0,0.0,0.0,0.0,0.0,0.0,0.0,0.0,0.0,0.0,0.0,0.0,0.0,0.0,0.0,0.0,0.0,0.0,0.0,0.0,0.0,0.0,0.0,0.0,0.0,0.0,0.0,0.0,0.0,0.0,6.5593,6.5724,6.616,6.591,6.6149,6.6681,6.4946,6.4105,6.392,6.3572,0.0,0.0,0.0,0.0,0.0,0.0,0.0,0.0,0.0,0.0,0.0,0.0,0.0,0.0,0.0,0.0,0.0,0.0,0.0,6.1582,6.2731,6.432,6.5384,6.5524,6.5589,6.5653,6.5856,6.6562,6.7058,6.7244,6.7978,6.8712,6.9419,6.9244,6.9874,7.1297,7.0997,7.0756,7.0612,7.137,7.0725,6.8792,6.6594,6.5495,6.5192,0.0,0.0,0.0,0.0,0.0,0.0,0.0,0.0,0.0,0.0,0.0,0.0,0.0,0.0,0.0,0.0,0.0,0.0,0.0,0.0,0.0,0.0,0.0,0.0,0.0,0.0,0.0,0.0,0.0,0.0,0.0,0.0,0.0,0.0,0.0,0.0,0.0,0.0,0.0,0.0,0.0,6.1249,6.2128,0.0,0.0,0.0,0.0,0.0,0.0,0.0,0.0,0.0,0.0,0.0,0.0,0.0,6.5559,6.6369,6.6028,6.6592,6.8106,6.8014,6.8449,6.9225,6.951,6.9704,6.9818,6.9508,0.0,6.5664,6.5586,0.0,0.0,0.0,0.0,0.0,0.0,0.0,0.0,0.0,0.0,0.0,0.0,0.0,0.0,0.0,0.0,0.0,0.0,0.0,0.0,0.0,6.6872,6.8065,6.8787,6.9566,6.9939,6.9672,7.0031,7.0065,6.9667,7.0015,7.0319,7.0563,7.0928,7.2024,7.3887,7.4484,7.4977,7.5311,7.6221,7.5956,7.4705,7.3151,7.0612,6.7466,6.6708,0.0,0.0,0.0,0.0,0.0,0.0,0.0,0.0,0.0,0.0,0.0,0.0,0.0,0.0,0.0,0.0,0.0,0.0,0.0,0.0,0.0,0.0,0.0,0.0,0.0,0.0,0.0,0.0,0.0,0.0,0.0,0.0,0.0,0.0,0.0,0.0,0.0,0.0,0.0,6.1936,6.3159,6.5452,6.4955,6.4458,0.0,0.0,0.0,0.0,0.0,0.0,0.0,0.0,0.0,6.7553,6.8198,6.8866,6.9502,6.9543,7.0022,7.1055,7.1055,7.1228,7.1588,7.1765,7.1871,7.1871,7.1871,7.1138,6.9819,6.8409,6.7425,6.6789,0.0,0.0,0.0,0.0,6.6789,6.6942,0.0,0.0,0.0,0.0,0.0,0.0,0.0,0.0,0.0,0.0,0.0,0.0,6.7562,6.9179,7.0525,7.1707,7.3035,7.3639,7.3183,7.3435,7.3264,7.2645,7.2607,7.2476,7.2276,7.314,7.444,7.6046,7.7386,7.8344,7.895,7.9822,7.9746,7.8912,7.8306,7.5236,7.0498,7.0081,6.9058,6.7617,0.0,0.0,0.0,0.0,0.0,0.0,0.0,0.0,0.0,0.0,0.0,0.0,0.0,0.0,0.0,0.0,0.0,0.0,0.0,0.0,0.0,0.0,0.0,0.0,0.0,0.0,0.0,0.0,0.0,0.0,0.0,0.0,0.0,0.0,0.0,0.0,0.0,6.484,6.5757,6.8241,6.7821,6.7362,0.0,0.0,0.0,0.0,0.0,0.0,6.8317,6.9502,7.0266,7.0457,7.1345,7.2088,7.2673,7.2982,7.3401,7.3934,7.3934,7.4049,7.4278,7.4278,7.4278,7.4278,7.4278,7.4163,7.3743,7.1221,6.9769,6.9196,6.9196,6.9196,6.9196,6.9196,6.9196,6.9311,0.0,0.0,0.0,0.0,0.0,0.0,0.0,0.0,0.0,0.0,0.0,6.8086,6.9165,7.0832,7.2178,7.3038,7.4084,7.4717,7.4678,7.5644,7.6165,7.6127,7.6127,7.603,7.5754,7.6863,7.7741,7.8441,7.9351,7.9784,7.986,8.0656,8.0618,7.9822,7.9784,7.8268,7.5615,7.4003,7.2848,7.1958,7.0308,0.0,0.0,0.0,0.0,0.0,0.0,0.0,0.0,0.0,0.0,0.0,0.0,0.0,0.0,0.0,0.0,0.0,0.0,0.0,0.0,0.0,0.0,0.0,0.0,0.0,0.0,0.0,0.0,0.0,0.0,0.0,0.0,0.0,0.0,0.0,0.0,0.0,0.0,7.0266,6.9578,0.0,0.0,0.0,0.0,7.0151,7.1718,7.2673,7.2673,7.275,7.317,7.3934,7.4031,7.4452,7.5327,7.5348,7.5712,7.6494,7.6494,7.6953,7.7755,7.7755,7.7755,7.7755,7.7755,7.7296,7.6303,7.3819,7.2788,7.275,7.275,7.275,7.275,7.275,7.275,7.275,0.0,0.0,0.0,0.0,0.0,6.2661,6.3336,6.4679,6.5925,6.6895,6.9068,7.0853,7.1688,7.3799,7.5334,7.5789,7.7193,7.7701,7.6713,7.7561,7.7558,7.6436,7.6397,7.6482,7.6586,7.7188,7.788,7.8609,8.0542,8.1489,8.1527,8.2892,8.3081,8.2285,8.2285,8.1489,7.9973,7.7207,7.5577,7.4667,7.3568,7.209,0.0,0.0,0.0,0.0,0.0,0.0,0.0,0.0,0.0,0.0,0.0,0.0,0.0,0.0,0.0,0.0,0.0,0.0,0.0,0.0,0.0,0.0,0.0,0.0,0.0,0.0,0.0,0.0,0.0,0.0,0.0,0.0,0.0,0.0,0.0,0.0,0.0,7.1107,7.1489,0.0,7.2367,7.2673,7.3093,7.3628,7.424,7.4584,7.4584,7.508,7.5501,7.5806,7.6341,7.68,7.7105,7.7105,7.7526,7.8366,7.8366,7.8787,7.9627,7.9627,7.9627,7.9627,7.9627,7.9436,7.9092,7.8175,7.657,7.4584,7.4584,7.4584,7.4545,7.3972,7.3781,7.3705,0.0,0.0,0.0,0.0,6.3172,6.466,6.565,6.6797,6.8158,6.9896,7.1421,7.2832,7.4107,7.5836,7.723,7.7962,7.9451,8.0015,7.9314,8.019,8.0227,7.9028,7.8812,7.8892,7.9295,7.9411,7.9898,8.0731,8.2399,8.3233,8.3271,8.437,8.4597,8.4029,8.3726,8.3309,8.2627,7.9822,7.8306,7.7699,7.66,7.5311,7.3871,0.0,0.0,0.0,0.0,0.0,0.0,0.0,0.0,0.0,0.0,0.0,0.0,0.0,0.0,0.0,0.0,0.0,0.0,0.0,0.0,0.0,0.0,0.0,0.0,0.0,0.0,0.0,0.0,0.0,0.0,0.0,0.0,0.0,0.0,6.9578,7.0877,7.1985,7.3132,7.4049,7.4584,7.4889,7.5271,7.5844,7.6456,7.6779,7.6779,7.7526,7.8137,7.8404,7.8978,7.9398,7.9665,7.9704,7.9971,8.0563,8.0563,8.0812,8.1347,8.1347,8.1347,8.1347,8.1347,8.1347,8.1347,8.1347,8.0009,7.7946,7.7411,7.6838,7.6303,7.6036,7.573,7.5348,0.0,0.0,0.0,6.2573,6.4244,6.5742,6.6734,6.8354,6.9957,7.1367,7.2499,7.4057,7.6328,7.6863,7.7774,7.9462,8.0623,8.1605,8.2453,8.3564,8.4173,8.4134,8.3516,8.3428,8.3956,8.3677,8.3953,8.4787,8.4787,8.4825,8.4825,8.4863,8.4863,8.4863,8.4029,8.3688,8.3574,8.1944,8.1224,8.1073,7.9329,7.8154,7.7169,0.0,0.0,0.0,0.0,0.0,0.0,0.0,0.0,0.0,0.0,0.0,0.0,0.0,0.0,0.0,0.0,0.0,0.0,0.0,0.0,0.0,0.0,0.0,0.0,0.0,0.0,0.0,0.0,0.0,0.0,0.0,0.0,0.0,6.9578,7.1489,7.3055,7.3093,7.4545,7.5556,7.5633,7.6303,7.68,7.6876,7.8404,7.9378,7.9416,8.0162,8.0964,8.1805,8.1843,8.2225,8.3028,8.3028,8.3066,8.3104,8.3104,8.3104,8.3142,8.3142,8.3142,8.3142,8.3142,8.3142,8.3142,8.3142,8.3142,8.2951,8.1232,7.9589,7.8252,7.9054,7.8825,7.7946,0.0,0.0,0.0,6.3664,6.6279,6.8498,6.8911,6.9862,7.117,7.2827,7.4288,7.6094,7.8403,7.9998,8.1331,8.2371,8.3505,8.4248,8.448,8.5384,8.5537,8.471,8.3553,8.2988,8.3138,8.2233,8.1906,8.2134,8.2134,8.2475,8.3081,8.3688,8.4294,8.4939,8.528,8.5431,8.5393,8.4939,8.4408,8.3612,8.0694,7.9026,7.8192,0.0,0.0,0.0,0.0,0.0,0.0,0.0,0.0,0.0,0.0,0.0,0.0,0.0,0.0,0.0,0.0,0.0,0.0,0.0,0.0,0.0,0.0,0.0,0.0,0.0,0.0,0.0,0.0,0.0,0.0,0.0,7.4049,7.4049,7.2979,7.3437,7.4316,7.5539,7.6074,7.6876,7.8155,7.8461,7.9092,8.0315,8.085,8.1385,8.1977,8.2187,8.2416,8.2646,8.2684,8.3066,8.3945,8.3945,8.4556,8.5779,8.5779,8.6084,8.6696,8.6696,8.6696,8.6696,8.6696,8.6696,8.6696,8.6696,8.6314,8.555,8.3219,8.2034,8.1576,8.1232,8.0544,7.978,0.0,0.0,0.0,6.5249,6.7731,6.9841,7.0308,7.0883,7.2059,7.4333,7.5864,7.778,8.0446,8.2169,8.3456,8.4228,8.5266,8.5991,8.6377,8.7055,8.6593,8.46,8.4098,8.3458,8.2665,8.1979,8.1641,8.1641,8.1641,8.2058,8.2892,8.3385,8.4067,8.4939,8.5393,8.5621,8.5621,8.5621,8.5128,8.4181,8.221,8.0731,7.9594,7.9253,7.8116,7.6562,7.569,7.4629,7.3606,7.3646,0.0,0.0,0.0,0.0,0.0,0.0,0.0,0.0,0.0,0.0,0.0,0.0,0.0,0.0,0.0,0.0,0.0,0.0,0.0,0.0,0.0,0.0,0.0,0.0,7.6227,7.6609,7.68,7.6227,7.615,7.7144,7.787,7.8672,7.9704,8.0124,8.0888,8.2187,8.2951,8.3715,8.4556,8.4938,8.5129,8.5129,8.5129,8.5358,8.5893,8.5893,8.639,8.7345,8.7345,8.7613,8.811,8.811,8.788,8.7575,8.7575,8.7575,8.7575,8.7575,8.746,8.7192,0.0,0.0,0.0,0.0,8.3028,8.2607,6.1969,6.4038,6.6201,6.6871,6.8751,7.0448,7.1162,7.1463,7.2686,7.571,7.7094,7.901,8.2227,8.3564,8.4559,8.5372,8.6145,8.6906,8.7652,8.802,8.6921,8.4131,8.4698,8.4284,8.2573,8.2535,8.2535,8.2535,8.2437,8.2816,8.3574,8.3574,8.4067,8.4901,8.509,8.509,8.4939,8.5204,8.4711,8.3764,8.3862,8.2839,8.1148,8.0428,7.9177,7.7699,7.6848,7.5521,7.4195,7.4313,0.0,0.0,0.0,0.0,0.0,0.0,0.0,0.0,0.0,0.0,0.0,0.0,0.0,0.0,0.0,0.0,0.0,0.0,0.0,0.0,0.0,0.0,0.0,0.0,7.8366,7.9016,8.0697,7.9474,7.8443,7.8443,7.9742,8.0659,8.0659,8.1538,8.2416,8.3219,8.4747,8.6046,8.6925,8.7689,0.0,0.0,0.0,8.8262,8.8377,8.8453,8.8568,8.8644,8.8568,8.853,8.8492,8.8415,8.7957,8.7231,8.7231,8.7231,8.7231,8.7231,8.7689,8.8339,8.8148,8.7154,8.5779,8.5779,8.5779,8.5779,6.3383,6.5354,6.736,6.7445,6.9645,7.1427,7.1575,7.1583,7.2777,7.6119,7.7271,7.9327,8.3321,8.4533,8.541,8.6261,8.6494,8.6581,8.6508,8.5563,8.4709,8.4131,8.3992,8.374,8.3407,8.3347,8.3347,8.3347,8.2702,8.2816,8.3574,8.3574,8.4067,8.4976,8.6303,8.6189,8.5052,8.7061,8.6644,8.4711,8.547,8.4309,8.2134,8.1982,8.1262,8.0298,7.9512,7.8642,7.7807,7.789,7.7359,7.6826,7.7493,7.717,0.0,0.0,0.0,0.0,0.0,0.0,0.0,0.0,0.0,0.0,0.0,0.0,0.0,0.0,0.0,0.0,0.0,0.0,0.0,8.0086,8.0621,8.1652,8.3333,8.2111,8.1079,8.1079,8.1347,8.1538,8.1538,8.2913,8.4136,8.4976,8.597,8.6925,8.7804,8.7995,8.811,8.811,8.8721,8.9409,9.0096,9.0746,9.1434,9.2121,9.1434,0.0,9.1052,9.0402,9.002,8.9867,8.9867,8.9867,8.9867,8.9867,8.9982,8.9982,8.8644,8.788,8.7613,8.7613,8.7613,8.7613,6.5809,6.7196,6.8585,6.8854,7.0477,7.1758,7.1725,7.1718,7.2896,7.6259,7.7416,7.9369,8.3084,8.4273,8.5242,8.6494,8.6901,8.6932,8.6615,8.5418,8.4088,8.2644,8.2852,8.2589,8.1755,8.2134,8.2323,8.2323,8.2361,8.2816,8.3574,8.3574,8.4074,8.4992,8.5827,8.5774,8.5196,8.7285,8.7209,8.5788,8.6631,8.5985,8.4383,8.3525,8.2385,8.1267,8.0874,7.9923,7.8917,7.8979,7.8446,7.7818,7.8313,7.7912,7.722,0.0,0.0,0.0,0.0,0.0,0.0,0.0,0.0,0.0,0.0,0.0,0.0,0.0,0.0,8.1574,8.0873,0.0,8.192,8.234,8.276,8.3639,8.532,8.4441,8.3486,8.3104,8.2684,8.2378,8.2378,8.3563,8.4632,8.5435,8.6696,8.7995,8.9294,8.9714,9.0135,9.0593,9.0975,9.1625,9.2504,9.2465,9.2886,9.3688,9.2427,9.1816,9.1778,9.0975,9.0364,8.9944,8.9944,8.9944,8.9982,9.044,9.0593,9.0517,8.9676,8.937,8.937,8.937,8.937,8.937,6.8037,6.8816,6.949,7.0166,7.1135,7.1761,7.1745,7.1788,7.2906,7.6069,7.7423,7.9273,8.2365,8.3613,8.4809,8.6262,8.6583,8.6682,8.654,8.5283,8.3548,8.1274,8.1821,8.1556,8.0228,8.0987,8.1404,8.1404,8.2276,8.2997,8.3642,8.3832,8.4316,8.5051,8.5393,8.5323,8.5105,8.7084,8.722,8.6116,8.709,8.7014,8.6138,8.4788,8.3434,8.2195,8.2063,8.1149,7.995,7.9705,7.9171,7.8636,7.8782,7.8338,7.7735,7.7603,7.8153,0.0,0.0,0.0,0.0,0.0,0.0,0.0,0.0,8.1545,8.2308,8.1881,8.2562,8.3161,8.289,8.2812,8.3219,8.4556,8.4632,8.5129,8.681,8.6161,8.5435,8.5282,8.4212,8.3563,8.3715,8.4824,8.5855,8.6658,8.8033,8.9409,9.0784,9.1319,9.1969,9.2809,9.3,9.3535,9.4414,9.3688,9.3688,9.4277,9.2618,9.1816,9.1778,9.0975,9.0211,8.9561,8.9561,8.9561,8.96,9.0326,9.0593,9.0593,9.0593,9.0593,9.0593,9.0593,9.0593,9.0593,6.8816,6.925,6.9557,7.0403,7.1266,7.1817,7.1811,7.1811,7.2723,7.5291,7.7073,7.9065,8.164,8.3378,8.4697,8.5545,8.4579,8.4218,8.4899,8.299,8.1679,8.1372,8.1448,8.141,8.122,8.2095,8.2513,8.2513,8.3312,8.3768,8.3883,8.4643,8.5062,8.5236,8.672,8.6171,8.4344,8.7503,8.7084,8.442,8.6049,8.6244,8.5502,8.5393,8.5082,8.4686,8.4029,8.3689,8.3308,8.1939,8.1442,8.1403,8.164,8.166,8.1839,8.3026,8.397,8.4175,8.2022,8.1467,8.1801,8.3102,8.3463,8.3543,0.0,8.3512,8.361,8.4767,8.4557,8.4346,8.4997,8.5722,8.6314,8.6505,8.5893,8.597,8.7689,8.6543,8.6314,8.8492,8.6658,8.5511,8.6314,8.853,9.0249,9.1013,9.1281,9.1472,9.1663,9.109,9.1128,9.193,9.2695,9.3535,9.4414,9.4299,9.4299,9.4376,9.2618,9.1816,9.1778,9.0975,9.0555,9.044,9.044,9.044,9.0478,9.0555,9.0593,9.0593,9.0593,9.0593,9.0593,9.0593,9.0593,9.0593,6.831,6.8933,6.9562,7.0453,7.1271,7.1817,7.1817,7.1817,7.2546,7.458,7.5943,7.7662,8.0145,8.2805,8.4699,8.5473,8.4906,8.4853,8.5685,8.3817,8.2676,8.2676,8.2676,8.2676,8.2676,8.3504,8.386,8.3697,8.4665,8.5226,8.5431,8.5413,8.5662,8.6049,8.6773,8.6528,8.5751,8.7659,8.768,8.6441,8.6796,8.6756,8.6409,8.6132,8.5989,8.5774,8.4816,8.4455,0.0,8.3324,8.3033,8.3025,8.3157,8.3561,8.3914,8.3638,8.4855,8.6059,8.4922,8.4167,8.382,8.4456,8.4835,8.5152,8.5459,8.5588,8.5706,8.6163,8.639,8.6508,8.6524,8.6445,8.6844,8.8507,8.747,8.7323,8.9739,8.9315,8.915,9.0148,8.9783,8.9363,8.9047,8.9982,9.0746,9.109,9.109,9.1319,9.1778,9.1472,9.193,9.3268,9.3688,9.472,9.6554,9.5598,9.5598,9.6554,9.4338,9.3306,9.3268,9.2427,9.2045,9.2045,9.2045,9.2045,9.2045,9.2045,9.2045,9.2045,9.2045,9.2045,9.193,9.0975,9.0593,9.0593,6.7837,6.8504,6.9284,7.0414,7.1076,7.1544,7.1778,7.1817,7.2323,7.3843,7.4817,7.6319,7.8837,8.1687,8.3735,8.4533,8.4598,8.5029,8.6129,8.4611,8.3768,8.4,8.3821,8.3666,8.3666,8.4232,8.4464,8.4253,8.5259,8.5906,8.6107,8.6171,8.6457,8.693,8.7389,8.7389,8.7118,8.823,8.8268,8.7596,8.7435,8.7202,8.6948,8.6528,8.6261,8.6003,8.566,8.5545,8.5437,8.4803,8.4766,8.4907,8.4749,8.5277,8.5801,8.4796,8.5482,8.6699,8.7198,8.6463,8.5667,8.617,8.6553,8.6879,8.7058,8.7179,8.7235,8.7384,8.7485,8.7656,8.804,8.7394,8.7627,9.014,8.9338,8.9031,9.0875,9.1176,9.1187,9.1132,9.2096,9.255,9.1932,9.1541,9.1395,9.1625,9.1434,9.1663,9.2465,9.2274,9.2847,9.4376,9.4414,9.5369,9.7394,9.5981,9.5866,9.705,9.5025,9.4032,9.4032,9.3382,9.3115,9.3115,9.3115,9.3115,9.3115,9.3115,9.3115,9.3115,9.3115,9.2962,9.258,9.1395,9.0937,9.0899,6.7837,6.8032,6.8582,7.0297,7.0609,7.0881,7.1661,7.1817,7.2128,7.3025,7.3882,7.5441,7.8045,7.9877,8.1247,8.2022,8.2707,8.3726,8.5336,8.4481,8.425,8.5024,8.4302,8.3889,8.3889,8.3927,8.3915,8.3915,8.4714,8.5127,8.5191,8.6828,8.7654,8.7757,8.9381,8.9188,8.7795,8.9444,8.8696,8.6505,8.7356,8.7176,8.6416,8.6416,8.5875,8.5359,8.6996,8.7615,8.7461,8.6623,8.6907,8.7462,8.6892,8.7312,8.805,8.825,8.7241,8.6579,8.9026,8.8248,8.7127,8.8846,8.9096,8.8905,8.8919,8.8097,8.7594,8.872,8.7395,8.6884,8.961,8.9381,8.9381,9.1174,9.1406,9.1111,9.0337,9.0956,9.1484,9.1508,9.2939,9.4293,9.5075,9.387,9.3382,9.4223,9.3497,9.3421,9.4261,9.3535,9.3459,9.4376,9.4414,9.4796,9.5675,9.4872,9.4452,9.449,9.3573,9.3153,9.3153,9.3115,9.3115,9.3115,9.3115,9.3115,9.3115,9.3115,9.3115,9.3115,9.3115,9.258,9.1816,9.1778,9.1739,9.1663,6.7954,6.8465,6.905,6.964,7.0224,7.0881,7.1661,7.1817,7.1895,7.2206,7.3492,0.0,0.0,0.0,0.0,0.0,8.1927,8.2871,8.4015,8.4302,8.4557,8.4829,8.514,8.5296,8.5296,8.581,8.602,8.5829,8.6282,8.6591,8.6842,8.703,8.7599,8.8505,8.8544,8.8505,8.8505,8.853,8.8027,8.7242,8.7146,8.6943,8.6616,8.6253,8.5948,8.5832,0.0,8.6885,8.6316,8.6767,8.7513,8.83,8.8679,8.9006,8.9247,8.9338,8.8144,8.7071,8.8326,8.7778,8.7059,8.8235,8.8333,8.8494,8.9791,8.9617,8.9513,9.0464,9.0122,9.0151,9.1873,9.1494,9.1501,9.3445,9.2643,9.1939,9.2434,9.307,9.3473,9.35,9.4974,9.5804,9.5342,9.5164,9.531,9.5795,9.4673,9.4161,9.4637,9.3667,9.3497,9.4376,9.4414,9.5064,9.6439,9.5637,9.5484,9.6057,9.5178,9.4758,9.4758,9.4758,9.4452,9.3955,9.3955,9.365,9.3115,9.3115,9.3115,9.3115,9.3115,9.2924,9.258,9.2007,9.1816,9.1663,6.7525,6.7998,6.8465,6.8777,6.9284,0.0,0.0,0.0,0.0,0.0,0.0,0.0,0.0,0.0,0.0,0.0,0.0,8.1675,8.2844,8.3468,8.4052,8.4676,8.5221,8.5377,8.5066,8.5884,8.6069,8.5568,8.6381,8.6872,8.711,8.7302,8.772,8.8274,8.808,8.7924,8.7808,8.7304,8.7071,8.7043,8.634,8.6238,8.648,8.6122,8.5806,0.0,8.6468,8.6093,8.5516,8.7486,8.8728,8.9547,9.0092,9.0248,9.0131,8.9508,8.8534,8.7734,8.8131,8.7833,8.7638,8.8494,8.8828,8.9221,9.048,9.0774,9.101,9.1676,9.1461,9.1641,9.3124,9.2656,9.2615,9.4208,9.3631,9.3121,9.3631,9.4254,9.464,9.4631,9.5875,9.6408,9.5682,9.6106,9.6344,9.6164,9.5259,9.4868,9.5249,9.4579,9.4356,9.4796,9.4834,9.5369,9.6401,9.5866,9.5866,9.6439,9.556,9.5178,9.5178,9.4834,9.4414,9.3955,9.3955,9.3612,9.3115,9.3115,9.3115,9.3115,9.3115,9.2924,9.258,9.2007,9.1625,9.1319,6.679,6.679,6.7019,0.0,0.0,0.0,0.0,0.0,0.0,0.0,0.0,0.0,0.0,0.0,0.0,0.0,0.0,0.0,8.1792,8.1987,8.2766,8.4442,8.4598,8.4247,8.3429,8.4247,8.4286,8.3468,8.5104,8.5923,8.5962,8.7559,8.7871,8.7092,8.7871,8.7365,8.5845,8.5806,8.5806,8.5728,8.4949,8.5143,8.5884,8.5884,8.5377,8.4793,8.565,8.5384,8.5189,8.8495,9.0209,9.0989,9.0989,9.0989,9.0638,8.9001,8.8456,8.8456,8.8495,8.8456,8.8651,8.9508,9.0365,9.0989,9.1028,9.1447,9.1948,9.2277,9.1439,9.1335,9.3383,9.3093,9.282,9.3755,9.4496,9.469,9.395,9.4496,9.4963,9.4963,9.5743,9.6249,9.6249,9.6721,9.6586,9.5476,9.5381,9.5579,9.6109,9.615,9.5982,9.5664,9.5643,9.5621,9.5598,9.5598,9.5598,9.5598,9.4796,9.4414,9.4376,9.3497,9.3077,9.3038,9.3038,9.3,9.2962,9.2962,9.2962,9.2962,9.2962,9.2465,9.1739,9.1739,9.1281,9.0593,0.0,0.0,0.0,0.0,0.0,0.0,0.0,0.0,0.0,0.0,0.0,0.0,0.0,0.0,0.0,0.0,0.0,0.0,7.9259,8.0428,8.1325,8.1753,8.3039,8.3624,8.339,8.4247,8.4598,8.4364,8.4793,8.5027,8.5027,8.5455,8.5533,8.5299,8.4871,8.4442,8.4013,8.3351,8.3078,8.3117,8.3546,8.3858,8.4052,8.4052,8.4325,8.4721,8.4935,8.4908,8.4941,8.6475,8.7949,8.9157,8.9157,8.9157,8.9086,8.8683,8.8104,8.7754,8.8416,8.8104,8.7786,8.8618,8.9001,8.9313,8.9975,9.0719,9.1327,9.141,9.1693,9.2495,9.4255,9.4418,9.4768,9.6288,9.6171,9.5782,9.5587,9.5743,9.5859,9.5859,9.6639,9.7184,9.7184,9.7302,9.726,9.6982,9.6527,9.643,9.676,9.659,9.6304,9.6002,9.5982,9.5823,9.5598,9.5598,9.5598,9.5598,9.4796,9.4414,9.4376,9.3497,9.2733,9.2121,9.2121,9.1778,9.1243,9.1243,9.1243,9.1243,9.1243,9.109,9.0899,9.0899,9.0784,9.0593,0.0,0.0,0.0,0.0,0.0,0.0,0.0,0.0,0.0,0.0,0.0,0.0,0.0,0.0,0.0,0.0,0.0,0.0,0.0,7.9181,7.9844,8.0188,8.1519,8.2065,8.1714,8.2922,8.3195,8.2416,8.3585,8.3935,8.3585,8.4325,8.4481,8.4091,8.3624,8.3195,8.2805,8.2299,8.2299,0.0,0.0,8.3039,8.339,8.339,8.3935,8.4682,8.4713,8.4685,8.4763,8.5303,8.7079,8.8923,8.8183,8.8183,8.8306,8.7208,8.6791,8.6752,8.6869,8.6791,8.6824,8.7293,8.7949,8.8845,9.0092,9.0755,9.13,9.2061,9.232,9.2898,9.4634,9.4938,9.5353,9.6717,9.6522,9.621,9.621,9.621,9.6327,9.6717,9.7184,9.7496,9.7496,9.7496,9.7496,9.7496,9.7188,9.7009,9.7005,9.6875,9.6648,9.6321,9.6304,9.6168,9.5821,9.5821,9.5776,9.5598,9.4414,9.3841,9.3803,9.258,9.1739,9.1281,9.1281,9.1013,9.0593,9.0593,9.0593,9.0593,9.0593,9.0593,9.0593,9.0593,9.0593,9.0593,0.0,0.0,0.0,0.0,0.0,0.0,0.0,0.0,0.0,7.1817,7.1817,7.2128,0.0,0.0,0.0,0.0,0.0,0.0,0.0,0.0,7.8597,7.9298,8.0149,8.0266,7.9532,8.1091,8.1208,7.9688,8.2065,8.2844,8.2143,8.3663,8.3897,8.3039,8.2929,8.2461,8.1766,8.1649,8.2116,8.2818,8.22,8.2389,8.3091,0.0,8.3831,8.4728,8.4836,8.4886,8.4852,8.4805,8.6802,8.9047,8.7644,8.7644,8.7728,8.5537,8.5315,8.5666,8.493,8.5354,8.6005,8.6014,8.717,8.8767,9.0365,9.0833,9.1385,9.3016,9.2847,9.2912,9.4543,9.4874,9.5204,9.6062,9.6295,9.6366,9.6366,9.6366,9.6639,9.7418,9.7496,9.7496,9.7496,9.7496,9.7496,9.7496,9.7496,9.7355,9.7059,9.7048,9.6936,9.6662,9.6604,9.6452,9.6186,9.6186,9.6021,9.567,9.3965,9.3141,9.3038,9.1357,9.0593,9.0593,9.0593,9.0593,9.0593,9.0593,9.0593,9.0593,9.0593,9.0593,9.0593,9.0593,9.0593,9.0593,0.0,0.0,0.0,0.0,0.0,0.0,0.0,0.0,0.0,0.0,7.1817,7.2128,0.0,0.0,0.0,0.0,0.0,0.0,0.0,0.0,0.0,7.8519,7.9298,7.9649,7.9493,8.0506,8.0896,8.0578,8.1753,8.226,8.2104,8.2416,8.2104,8.1208,8.0569,8.0196,8.0007,7.9247,7.9447,8.031,8.0895,8.1207,8.1402,8.2138,8.3371,0.0,8.5531,8.5776,8.5659,8.5023,8.5624,8.6746,8.7136,8.6902,8.6362,8.5882,8.5425,8.4961,8.4824,8.5361,8.5999,8.6011,8.6722,8.7676,8.8728,8.9508,9.0326,9.1346,9.199,9.2711,9.3731,9.4504,9.5284,9.6142,9.6855,9.7262,9.7262,9.7262,9.734,9.7496,9.7496,9.7496,9.7496,9.7496,9.7496,9.7496,9.7496,9.7489,9.7418,9.7418,9.7255,9.6947,9.6718,9.656,9.6499,9.6499,9.6338,9.6002,9.4311,9.337,9.3038,9.1357,9.0593,9.0593,9.0593,0.0,9.0593,9.0593,9.0593,9.0593,9.0593,9.0593,9.0593,9.0593,9.0593,9.0593,0.0,0.0,0.0,0.0,0.0,0.0,0.0,7.1544,7.1817,7.1817,7.1817,7.1973,7.2362,7.3609,7.4583,0.0,0.0,0.0,0.0,0.0,0.0,7.7623,7.8441,7.887,7.887,7.9688,7.9922,7.9493,0.0,8.0545,8.0117,8.0602,8.0569,8.0179,7.9778,7.9832,8.0261,7.9847,8.0163,8.0982,8.1412,8.1568,8.1607,8.2036,8.3245,0.0,8.5756,8.6033,8.5921,8.5083,8.5344,8.6054,8.5999,8.5677,8.5242,8.4815,8.4113,8.3445,8.3471,8.4395,8.538,8.5315,8.6611,8.8229,8.9528,9.0197,9.0872,9.2228,9.2468,9.2708,9.3582,9.4429,9.527,9.6148,9.6993,9.7557,9.7503,9.7496,9.7496,9.7496,9.7496,9.7496,9.7496,9.7496,9.7496,9.7496,9.7496,9.7496,9.7496,9.7496,9.7418,9.7255,9.7157,9.6998,9.6825,9.6825,9.6444,9.5682,9.4425,9.3478,9.2826,9.1433,9.08,9.08,9.0638,9.0593,9.0593,9.0593,9.0593,9.0593,9.0593,9.0593,9.0593,9.0593,9.0593,9.0593,0.0,0.0,0.0,0.0,0.0,0.0,7.17,7.1817,7.1817,7.1817,7.1973,7.2089,7.2089,7.3453,7.4466,0.0,0.0,0.0,0.0,0.0,0.0,0.0,7.7662,7.8012,7.8012,0.0,0.0,7.8285,7.9104,0.0,0.0,0.0,0.0,0.0,7.9413,7.9817,8.0636,8.064,8.1152,0.0,0.0,8.2205,8.2244,0.0,0.0,0.0,0.0,8.6129,8.5699,8.5019,8.5247,8.5734,8.5257,8.5039,8.4868,8.4247,8.3307,8.2439,8.2265,8.3346,8.461,8.4902,8.6623,8.8748,9.069,9.1125,9.1565,9.3174,9.2979,9.27,9.3383,9.4344,9.526,9.5939,9.6934,9.75,9.7277,9.7387,9.7418,9.7223,9.7387,9.7511,9.7511,9.7518,9.7518,9.7511,9.7503,9.7496,9.7496,9.7496,9.7496,9.7496,9.7496,9.7355,9.7118,9.7118,9.6532,9.5399,9.4522,9.359,9.2668,9.1599,9.1121,9.1104,9.0895,9.0779,9.0719,9.0719,9.0697,9.0614,9.0614,9.0614,9.0593,9.0593,9.0593,9.0614,0.0,0.0,0.0,0.0,0.0,0.0,7.1778,7.1817,7.1817,7.1817,7.2479,7.2986,7.2986,7.3843,7.4739,0.0,0.0,0.0,0.0,0.0,0.0,0.0,0.0,0.0,0.0,0.0,0.0,7.8285,7.9104,0.0,0.0,0.0,0.0,0.0,0.0,7.8983,7.9803,7.9821,0.0,0.0,0.0,0.0,0.0,0.0,0.0,0.0,0.0,8.6246,8.4923,8.4824,8.4856,8.504,8.5758,8.5984,8.5968,8.5895,8.4685,8.3206,8.2482,8.294,8.4017,8.5574,8.6707,8.8077,9.0607,9.1136,9.1403,9.2412,9.2554,9.2529,9.2607,9.3973,9.5139,9.5212,9.6536,9.7318,9.6532,9.705,9.7223,9.6405,9.7057,9.7584,9.7584,9.7577,9.7583,9.7584,9.7518,9.7496,9.7496,9.7496,9.7496,9.7496,9.7496,9.7489,9.7434,9.7434,9.6836,9.565,9.4846,9.3825,9.2668,9.1828,9.1441,9.1427,9.1451,9.13,0.0,9.1125,9.0951,9.0699,9.0699,9.0638,9.0593,9.0593,9.0656,9.0699,0.0,0.0,0.0,0.0,0.0,0.0,7.1817,7.1817,7.1817,7.1817,7.2557,7.3297,7.3843,7.4661,7.5324,7.5674,0.0,0.0,0.0,0.0,0.0,0.0,0.0,0.0,0.0,0.0,7.7506,7.7506,7.7857,0.0,0.0,0.0,0.0,0.0,0.0,7.8107,7.8927,7.8933,0.0,0.0,0.0,0.0,0.0,0.0,0.0,0.0,0.0,0.0,8.4782,8.4789,8.4434,8.4352,8.6272,8.6506,8.6109,8.6109,8.4853,8.3327,8.2521,8.3256,8.4568,8.5816,8.7507,8.9281,9.0833,9.1569,9.2037,9.2416,9.2507,9.251,9.251,9.3916,9.5083,9.5104,9.6529,9.7483,9.7115,9.7357,9.7422,9.709,9.7363,9.7597,9.7616,9.7595,9.7595,9.7583,9.7571,9.7565,9.7565,9.7525,9.7496,9.7496,9.7496,9.7496,9.7496,9.6989,9.6499,9.607,9.5213,9.4262,9.3276,9.2801,9.231,9.1795,9.1643,9.1527,0.0,9.1445,9.1344,9.1159,9.1031,9.0985,9.0971,9.0819,9.0818,9.0799,0.0,0.0,0.0,0.0,0.0,7.1817,7.1817,7.1817,7.1817,7.1817,7.2791,7.3726,7.4311,7.5402,7.6064,7.6064,7.6649,0.0,0.0,0.0,0.0,0.0,0.0,0.0,0.0,0.0,7.6999,7.6999,7.6999,7.6999,0.0,0.0,7.7004,7.7008,0.0,0.0,0.0,0.0,0.0,0.0,0.0,0.0,0.0,0.0,0.0,0.0,0.0,0.0,0.0,0.0,0.0,8.3855,8.5963,8.6549,8.6588,8.7095,8.5644,8.3838,8.35,8.3923,8.481,8.6449,8.8188,8.9896,9.1288,9.2069,9.2498,9.2518,9.2482,9.2482,9.2482,9.3927,9.5094,9.5118,9.6514,9.7515,9.7265,9.7433,9.7499,9.7249,9.7427,9.7616,9.7611,9.7611,9.7611,9.7611,9.7606,9.76,9.76,9.7558,9.7532,9.7532,9.7518,9.7518,9.7532,9.6674,9.6259,9.6278,9.542,9.4691,9.4089,9.3879,9.3477,9.2846,9.2404,9.2198,0.0,9.1872,9.1688,9.1554,9.1406,9.1329,9.1315,9.1056,9.1026,9.1044,0.0,0.0,0.0,0.0,0.0,0.0,7.1817,7.1817,7.1817,7.1817,7.3297,7.4388,7.4388,7.5947,7.6999,7.6999,7.6999,0.0,0.0,0.0,0.0,0.0,0.0,0.0,0.0,0.0,7.6999,7.6999,7.6999,7.6999,7.6999,7.698,7.7004,7.7008,0.0,0.0,0.0,0.0,0.0,0.0,0.0,0.0,8.2489,0.0,0.0,0.0,0.0,0.0,0.0,0.0,0.0,0.0,0.0,8.6002,8.772,8.9437,8.7486,8.4987,8.5846,8.4792,8.4323,8.7798,8.8642,8.9294,9.1893,9.2507,9.2498,9.2518,9.2482,9.2482,9.2482,9.3927,9.5098,9.5098,9.6523,9.7329,9.6509,9.7109,9.7288,9.643,9.7054,9.7611,9.7597,9.7602,9.7602,9.7602,9.7616,9.76,9.76,9.76,9.76,9.76,9.761,9.7604,9.76,9.6742,9.6313,9.6274,9.5416,9.4987,9.4992,9.4992,9.4987,9.4909,9.405,9.3569,0.0,9.2526,9.1995,9.1711,9.17,9.1665,9.154,9.1314,9.1292,9.1346,0.0,0.0,0.0,0.0,0.0,0.0,7.1817,7.1817,7.1817,7.1817,7.3336,7.4388,7.4388,7.5947,7.6999,7.6999,7.6999,0.0,0.0,0.0,0.0,0.0,0.0,0.0,0.0,7.6999,7.6999,7.6999,7.6999,7.6688,7.6103,7.6102,7.582,7.5287,7.5319,7.5336,0.0,0.0,0.0,0.0,0.0,8.0263,8.0771,0.0,0.0,0.0,0.0,0.0,0.0,0.0,0.0,0.0,0.0,0.0,0.0,8.932,8.8383,8.6627,8.69,8.6588,8.6588,8.8266,8.959,9.068,9.1507,9.2128,9.2514,9.2482,9.2482,9.2482,9.2482,9.3927,9.5098,9.5098,9.6539,9.7585,9.7316,9.6982,9.6895,9.7225,9.7498,9.7659,9.7663,9.7663,9.7663,9.7663,9.7659,9.7655,9.7655,9.7636,9.7583,9.76,9.7589,9.7589,9.76,9.6742,9.6597,9.7158,9.6339,9.5958,9.5976,9.5976,9.5625,9.504,9.4766,9.4636,9.45,9.3642,9.3215,9.3075,9.2331,9.2031,9.1967,9.1777,9.1706,9.1718,0.0,0.0,0.0,0.0,0.0,0.0,7.1817,7.1817,7.1817,7.1817,7.3336,7.4388,7.4388,7.5947,7.6999,7.6999,7.6999,0.0,0.0,0.0,0.0,0.0,0.0,0.0,7.6999,7.6999,7.6999,7.6999,7.6688,7.622,7.5674,7.5406,7.4962,7.4507,7.4499,7.4672,0.0,0.0,0.0,0.0,7.8975,7.9405,7.9951,0.0,0.0,0.0,0.0,0.0,0.0,0.0,0.0,0.0,0.0,0.0,0.0,0.0,8.8969,8.8813,8.8461,8.7915,8.7681,8.8891,9.0257,9.1389,9.1663,9.2131,9.2482,9.2482,9.2482,9.2482,9.2482,9.3927,9.5098,9.5098,9.6542,9.7597,9.7245,9.6726,9.6601,9.7155,9.7515,9.7671,9.7663,9.7671,9.7714,9.7714,9.7714,9.7714,9.7714,9.7663,9.7646,9.7632,9.7622,9.7622,9.7632,9.6773,9.6783,9.7616,9.6796,9.657,9.6894,9.6894,9.6582,9.6074,9.5723,9.5606,0.0,9.4669,9.4271,9.4216,9.3543,9.308,9.2776,9.2563,9.2306,9.1986,0.0,0.0,0.0,0.0,0.0,0.0,0.0,7.1817,7.1817,7.1817,7.3336,7.4388,7.4388,7.5947,7.6999,7.6999,0.0,0.0,0.0,0.0,0.0,0.0,0.0,0.0,7.6921,7.6921,7.6882,7.6804,7.5986,7.5596,7.5524,7.4758,7.4351,7.4316,7.4392,7.4915,0.0,0.0,0.0,0.0,7.8311,7.8819,0.0,0.0,0.0,0.0,0.0,0.0,0.0,0.0,0.0,0.0,0.0,0.0,0.0,0.0,0.0,0.0,0.0,8.8852,8.8071,8.9672,9.0726,9.1585,9.2326,9.2482,0.0,9.2482,9.2482,9.2482,9.2482,9.3927,9.5098,9.5098,9.6542,9.7401,9.6503,9.6386,9.6418,9.6397,9.7155,9.7667,9.7607,9.7663,9.7714,9.7714,9.7714,9.7714,9.7714,9.7714,9.7714,9.7714,9.7655,9.7655,9.7714,9.6894,9.6894,9.7675,9.6894,9.6933,9.7714,9.7714,9.7714,0.0,9.6855,9.6503,9.6425,9.5567,9.5176,9.5176,9.5137,9.4591,9.3877,9.3665,9.3114,9.2391,0.0,0.0,0.0,0.0,0.0,0.0,0.0,0.0,0.0,0.0,7.3336,7.4388,7.4388,7.5947,7.6999,0.0,0.0,0.0,0.0,0.0,0.0,0.0,0.0,0.0,7.6025,7.6025,7.5686,7.5006,7.4828,7.4371,7.3783,7.3583,7.3133,7.2544,7.3215,7.4357,0.0,0.0,0.0,0.0,7.7414,7.7921,0.0,0.0,0.0,0.0,8.3972,8.4792,0.0,0.0,0.0,0.0,0.0,0.0,0.0,0.0,8.8305,8.9398,8.9867,0.0,9.0492,9.0882,9.1624,9.2287,0.0,9.2482,9.2482,9.2482,9.2482,9.2482,9.2482,9.3927,9.5098,9.5098,9.6542,9.7401,9.6503,9.6386,9.6383,9.6418,9.7163,9.7675,9.7667,9.7671,9.7714,9.7714,9.7714,9.7714,9.7714,9.7714,9.7714,9.7714,9.7671,9.7671,9.7714,9.7518,9.7518,9.7714,9.7479,9.7518,9.7714,9.7714,9.7714,9.7675,9.7479,9.7401,9.7323,9.6464,9.6074,9.6035,9.5371,9.4981,9.4786,9.4727,9.4602,9.4402,0.0,0.0,0.0,0.0,0.0,0.0,0.0,0.0,0.0,0.0,7.357,7.4544,7.4934,7.622,0.0,0.0,0.0,0.0,0.0,0.0,0.0,0.0,0.0,7.6187,7.5691,7.5302,7.4889,7.4446,7.4041,7.3622,7.3176,7.2786,7.2569,7.2548,7.3846,7.4909,0.0,0.0,0.0,7.7101,7.7101,0.0,0.0,0.0,0.0,0.0,8.2567,8.3308,0.0,8.3113,8.3269,8.3504,0.0,0.0,0.0,0.0,8.8305,8.9477,9.0374,9.0648,9.0687,9.0687,9.1311,9.2053,9.2404,9.2482,9.2482,9.2482,9.2482,9.26,9.3029,9.3888,9.4786,9.5567,9.6152,9.6347,9.5879,9.6152,9.6386,9.6386,9.7167,9.7714,9.7714,9.7714,9.7714,9.7714,9.7714,9.7714,9.7714,9.7714,9.7714,9.7714,9.7714,9.7714,9.7714,9.7714,9.7714,9.7714,9.7714,9.7714,9.7714,9.7714,9.7714,9.7714,9.7714,9.7714,9.7675,9.7206,9.7011,9.6933,9.6464,9.6035,9.5684,9.5684,9.5449,9.5098,0.0,0.0,0.0,0.0,0.0,0.0,0.0,0.0,0.0,0.0,0.0,0.0,0.0,0.0,0.0,0.0,0.0,0.0,0.0,0.0,0.0,0.0,7.6304,7.5847,7.5713,7.4977,7.4567,7.4511,7.3766,7.3415,7.3384,7.2658,7.2746,7.3647,7.5143,7.5855,7.6047,0.0,7.7101,7.7101,7.7101,0.0,0.0,0.0,0.0,0.0,0.0,0.0,0.0,8.2098,8.2176,8.2293,8.2293,0.0,0.0,0.0,0.0,0.0,9.0843,9.057,9.0062,9.0335,9.0843,9.1546,9.2482,9.26,9.2482,9.2482,9.2482,9.2717,9.3458,9.381,9.4473,9.5957,9.5567,9.5098,9.5098,9.5723,9.6269,9.6386,9.7167,9.7714,9.7714,9.7714,9.7714,9.7714,9.7714,9.7714,9.7714,9.7714,9.7714,9.7714,9.7714,9.7714,9.7714,9.7714,9.7714,9.7714,9.7714,9.7714,9.7714,9.7714,9.7714,9.7714,9.7714,0.0,9.7714,9.7714,9.7714,9.7714,9.7714,9.7245,9.6582,9.6582,9.6113,9.5488,0.0,0.0,0.0,0.0,0.0,0.0,0.0,0.0,0.0,0.0,0.0,0.0,0.0,0.0,0.0,0.0,0.0,0.0,0.0,0.0,0.0,7.6999,7.6866,7.6453,7.5718,7.5625,7.5218,7.4496,7.4359,7.4293,7.4282,7.4155,7.4587,7.542,7.5696,7.6203,7.6906,7.7023,7.7101,7.7101,7.7101,0.0,0.0,0.0,0.0,0.0,0.0,0.0,0.0,8.12,8.1708,8.2293,8.2293,0.0,0.0,0.0,0.0,0.0,8.975,9.0101,9.0335,9.1741,9.1702,9.1702,9.3263,9.3029,9.2482,9.2482,9.2482,9.2522,9.2678,9.3927,9.4981,9.5254,9.5176,9.5098,9.5098,9.5215,9.5567,9.6308,9.7167,9.7714,9.7714,9.7714,9.7714,9.7714,9.7714,9.7714,9.7714,9.7714,9.7714,9.7714,9.7714,9.7714,9.7714,9.7714,9.7714,9.7714,9.7714,9.7714,9.7714,9.7714,9.7714,9.7714,0.0,9.7714,9.7714,9.7714,9.7714,9.7714,9.7714,9.7636,9.7518,9.7518,9.7401,9.7284,0.0,0.0,0.0,0.0,0.0,0.0,0.0,0.0,0.0,0.0,0.0,0.0,0.0,0.0,0.0,0.0,0.0,0.0,0.0,0.0,7.6994,7.7009,7.7034,7.6648,7.5776,7.5335,7.4889,7.4516,7.4506,7.4509,7.4525,7.4987,7.5417,7.5816,7.6281,7.6711,7.7101,7.7101,7.7101,7.7101,0.0,0.0,0.0,0.0,0.0,0.0,0.0,0.0,0.0,0.0,8.0966,8.1044,8.202,0.0,0.0,0.0,0.0,0.0,8.9398,8.9672,8.9711,9.1428,9.1233,9.1038,9.2717,9.2443,9.1975,9.2404,9.2482,9.2639,9.3107,9.3849,9.4239,9.3771,9.4473,9.5098,9.5098,9.5527,9.6113,9.7011,9.744,9.7714,9.7714,9.7714,9.7714,9.7714,9.7714,9.7714,9.7714,9.7714,9.7714,9.7714,9.7714,9.7714,9.7714,9.7714,9.7714,9.7714,9.7714,9.7714,9.7714,9.7714,9.7714,9.7714,9.7714,9.7714,9.7714,9.7714,9.7714,9.7714,9.7714,9.7714,9.7714,9.7714,9.7714,9.7714,0.0,0.0,0.0,0.0,0.0,0.0,0.0,0.0,0.0,0.0,0.0,0.0,0.0,0.0,0.0,0.0,0.0,0.0,0.0,7.7009,7.6985,7.7004,7.7063,7.6794,7.6115,7.5432,7.5098,7.511,7.511,7.511,7.511,7.5774,7.6086,7.6125,7.6789,7.7101,7.7101,7.7101,7.7101,7.7101,0.0,0.0,0.0,0.0,0.0,0.0,0.0,0.0,0.0,0.0,0.0,0.0,0.0,0.0,0.0,8.5416,8.6236,8.69,8.9086,8.9359,8.932,9.0648,9.0492,9.0374,9.1897,9.1741,9.1467,9.2092,9.2209,9.2522,9.3615,9.3966,9.3888,9.3224,9.4044,9.4786,9.4786,9.5567,9.6425,9.7284,9.7597,9.7714,9.7714,9.7714,9.7714,9.7714,9.7714,9.7714,9.7714,9.7714,9.7714,9.7714,9.7714,9.7714,9.7714,9.7714,9.7714,9.7714,9.7714,9.7714,9.7714,9.7714,9.7714,9.7714,9.7714,9.7714,9.7714,9.7714,9.7714,9.7714,9.7714,9.7714,9.7714,9.7714,9.7714,9.7714,0.0,0.0,0.0,0.0,0.0,0.0,0.0,0.0,0.0,0.0,0.0,0.0,0.0,0.0,0.0,0.0,0.0,0.0,7.7004,7.699,7.7004,7.7004,7.7063,7.7071,7.6993,7.6936,7.6906,7.6906,7.6906,7.6906,7.6906,7.6984,7.7023,7.7023,7.7062,7.7101,7.7101,7.7101,7.7101,7.7101,7.7101,0.0,0.0,0.0,0.0,0.0,0.0,0.0,0.0,0.0,0.0,0.0,0.0,0.0,8.3777,8.5573,8.6666,8.7525,8.854,8.932,8.9945,9.0062,9.0062,9.0257,9.1155,9.135,9.1311,9.1389,9.1389,9.1897,9.3497,9.4473,9.4981,9.4903,9.4356,9.3888,9.3888,9.463,9.5527,9.6386,9.7206,9.7714,9.7714,9.7714,9.7714,9.7714,9.7714,9.7714,9.7714,9.7714,9.7714,9.7714,9.7714,9.7714,9.7714,9.7714,9.7714,9.7714,9.7714,9.7714,9.7714,9.7714,9.7714,9.7714,9.7714,9.7714,9.7714,9.7714,9.7714,9.7714,9.7714,9.7714,9.7714,9.7714,9.7714,9.7714,0.0,0.0,0.0,0.0,0.0,0.0,0.0,0.0,0.0,0.0,0.0,0.0,0.0,0.0,0.0,0.0,0.0,0.0,7.7051,7.7059,7.7067,7.7043,7.7596,7.7639,7.7092,7.7098,7.7375,7.7921,7.7375,7.7101,7.7101,7.7101,7.7101,7.7101,7.7101,7.7101,7.7101,7.7101,7.7101,7.7101,7.7101,7.6906,0.0,0.0,0.0,0.0,0.0,0.0,0.0,0.0,8.0771,8.0732,8.1903,8.2528,8.3074,8.4792,8.5534,8.608,8.7525,8.8149,8.8657,8.9711,8.9984,9.0218,9.1116,9.0882,9.0804,9.1819,9.1663,9.1975,9.42,9.4005,9.3654,9.42,9.3576,9.338,9.4473,9.4903,9.5606,9.705,9.7518,9.7714,9.7714,9.7714,9.7714,9.7714,9.7714,9.7714,9.7714,9.7714,9.7714,9.7714,9.7714,9.7714,9.7714,9.7714,9.7714,9.7714,9.7714,9.7714,9.7714,9.7714,9.7714,9.7714,9.7714,9.7714,9.7714,9.7714,9.7714,9.7714,9.7714,9.7714,9.7714,9.7714,9.7714,9.7714,0.0,0.0,0.0,0.0,0.0,0.0,0.0,0.0,0.0,0.0,0.0,0.0,0.0,0.0,0.0,0.0,0.0,0.0,7.7114,7.7117,7.7089,7.7101,7.7687,7.7843,7.7531,7.7257,7.7375,7.7999,7.7375,7.7101,7.7101,7.7101,7.7101,7.7101,7.7101,7.7101,7.7101,7.7101,7.7101,7.7101,7.7101,7.6945,0.0,0.0,0.0,0.0,0.0,0.0,0.0,0.0,8.1864,8.1552,8.2411,8.2684,8.2957,8.4362,8.4987,8.5456,8.6666,8.7603,8.8383,8.9008,8.9789,9.0413,9.0452,9.0452,9.0648,9.1546,9.2131,9.2951,9.4434,9.3927,9.3537,9.4122,9.3497,9.3537,9.5254,9.5527,9.6074,9.7518,9.7714,9.7714,9.7714,9.7714,9.7714,9.7714,9.7714,9.7714,9.7714,9.7714,9.7714,9.7714,9.7714,9.7714,9.7714,9.7714,9.7714,9.7714,9.7714,9.7714,9.7714,9.7714,9.7714,9.7714,9.7714,9.7714,9.7714,9.7714,9.7714,9.7714,9.7714,9.7714,9.7714,9.7714,9.7714,9.7714,0.0,0.0,0.0,0.0,0.0,0.0,0.0,0.0,0.0,0.0,0.0,0.0,0.0,0.0,0.0,0.0,0.0,0.0,7.7114,7.7092,7.7101,7.7101,7.7101,7.7492,7.835,7.7531,7.7101,7.7101,7.7101,7.7101,7.7101,7.7101,7.7101,7.7101,7.7101,7.7101,7.7101,7.7101,7.7101,7.7101,7.7101,7.6594,7.6011,0.0,0.0,0.0,0.0,0.0,0.0,0.0,8.3699,8.245,8.323,8.3504,8.366,8.4558,8.5416,8.608,8.6119,8.7993,8.9555,8.7837,8.9359,9.0804,8.9086,9.0062,9.1077,9.0179,9.2717,9.4825,9.3966,9.4512,9.5098,9.5098,9.4356,9.4395,9.6152,9.6386,9.6738,9.7597,9.7714,9.7714,9.7714,9.7714,9.7714,9.7714,9.7714,9.7714,9.7714,9.7714,9.7714,9.7714,9.7714,9.7714,9.7714,9.7714,9.7714,9.7714,9.7714,9.7714,9.7714,9.7714,9.7714,9.7714,9.7714,9.7714,9.7714,9.7714,9.7714,9.7714,9.7714,9.7714,9.7714,9.7714,9.7714,9.7714,0.0,0.0,0.0,0.0,0.0,0.0,0.0,0.0,0.0,0.0,0.0,0.0,0.0,0.0,0.0,0.0,0.0,0.0,7.7095,7.7098,7.7101,7.7101,7.7687,7.7843,7.7492,7.7218,7.7101,7.7101,7.7101,7.7101,7.7101,7.7101,7.7101,7.7101,7.7101,7.7101,7.7101,7.7101,7.7101,7.7101,7.7101,7.6945,7.6906,0.0,0.0,0.0,0.0,0.0,0.0,0.0,0.0,0.0,8.3426,8.3113,8.2957,8.4362,8.4987,8.5456,8.6666,8.7564,8.8188,8.8305,8.8891,8.9359,8.8813,9.0062,9.1389,9.1702,9.3068,9.4278,9.4669,9.3927,9.3888,9.5723,9.4786,9.4395,9.6152,9.6386,9.6738,9.7597,9.7714,9.7714,9.7714,9.7714,9.7714,9.7714,9.7714,9.7714,9.7714,9.7714,9.7714,9.7714,9.7714,9.7714,9.7714,9.7714,9.7714,9.7714,9.7714,9.7714,9.7714,9.7714,9.7714,9.7714,9.7714,9.7714,9.7714,9.7714,9.7714,9.7714,9.7714,9.7714,9.7714,9.7714,9.7714,9.7714,0.0,0.0,0.0,0.0,0.0,0.0,0.0,0.0,0.0,0.0,7.7032,7.7075,0.0,0.0,0.0,0.0,0.0,0.0,7.7101,7.7101,7.7101,7.7101,7.7921,7.8155,7.7648,7.7296,7.7101,7.7101,7.7101,7.7101,7.7101,7.7101,7.7101,7.7101,7.7101,7.7101,7.7101,7.7101,7.7101,7.7101,7.7101,7.7296,7.7726,0.0,0.0,0.0,0.0,0.0,0.0,0.0,0.0,0.0,8.4011,8.323,8.2645,8.4323,8.4792,8.5026,8.608,8.7134,8.7798,8.729,8.7915,8.8969,8.9984,9.0765,9.1624,9.2795,9.4005,9.4903,9.5059,9.4512,9.4552,9.6152,9.5527,9.5332,9.6738,9.6933,9.7128,9.7636,9.7714,9.7714,9.7714,9.7714,9.7714,9.7714,9.7714,9.7714,9.7714,9.7714,9.7714,9.7714,9.7714,9.7714,9.7714,9.7714,9.7714,9.7714,9.7714,9.7714,9.7714,9.7714,9.7714,9.7714,9.7714,9.7714,9.7714,9.7714,9.7714,9.7714,9.7714,9.7714,9.7714,9.7714,9.7714,9.7714,0.0,0.0,7.7019,0.0,0.0,0.0,0.0,0.0,0.0,7.7101,7.7101,7.7101,0.0,0.0,0.0,7.7101,7.7101,7.7101,7.7101,7.7101,7.7101,7.7101,7.7921,7.839,7.839,7.7609,7.7179,7.7101,7.7101,7.7101,7.7101,7.7101,7.7101,7.7101,7.7101,7.7101,7.7101,7.7101,7.714,7.7218,7.7218,7.7726,7.8546,7.8702,0.0,0.0,0.0,0.0,0.0,0.0,0.0,0.0,8.4831,8.3699,8.2723,8.4323,8.4792,8.4831,8.4987,8.6783,8.8032,8.5729,8.7017,8.9477,9.1936,9.2014,9.2014,9.3693,9.5215,9.6074,9.5332,9.5801,9.6347,9.6503,9.6464,9.6699,9.7597,9.7714,9.7714,9.7714,9.7714,9.7714,9.7714,9.7714,9.7714,9.7714,9.7714,9.7714,9.7714,9.7714,9.7714,9.7714,9.7714,9.7714,9.7714,9.7714,9.7714,9.7714,9.7714,9.7714,9.7714,9.7714,9.7714,9.7714,9.7714,9.7714,9.7714,9.7714,9.7714,9.7714,9.7714,9.7714,9.7714,9.7714,9.7714,9.7714,0.0,0.0,7.6851,7.6127,0.0,0.0,0.0,0.0,7.7101,7.7101,7.7101,7.7101,7.7101,7.7101,0.0,7.7101,7.7101,7.7101,7.7101,7.7101,7.7101,7.7101,7.7921,7.839,7.839,7.8233,7.7804,7.7101,7.7101,7.7101,7.7101,7.7101,7.7101,7.7101,7.7101,7.7101,7.7101,7.7101,7.7492,7.8116,7.8116,7.8624,7.9561,8.0927,8.2215,0.0,0.0,0.0,0.0,0.0,0.0,0.0,8.5026,8.4089,8.3465,8.448,8.4792,8.5104,8.6471,8.7251,8.772,8.7837,8.8813,9.0218,9.2092,9.2912,9.3732,9.5488,9.5606,9.5527,9.6035,9.5723,9.584,9.7206,9.6855,9.6699,9.7597,9.7714,9.7714,9.7714,9.7714,9.7714,9.7714,9.7714,9.7714,9.7714,9.7714,9.7714,9.7714,9.7714,9.7714,9.7714,9.7714,9.7714,9.7714,9.7714,9.7714,9.7714,9.7714,9.7714,9.7714,9.7714,9.7714,9.7714,9.7714,9.7714,9.7714,9.7714,9.7714,9.7714,9.7714,9.7714,9.7714,9.7714,9.7714,9.7714,0.0,0.0,0.0,0.0,0.0,0.0,0.0,0.0,7.757,7.714,7.7101,7.7101,7.7101,7.7101,0.0,0.0,7.7057,7.7057,7.7057,7.7057,7.744,7.8311,7.839,7.878,7.9639,7.8819,7.8194,7.7726,7.7296,7.7101,7.7101,7.7101,7.7101,7.7101,7.7101,7.7101,7.714,7.7531,7.8233,7.9053,7.9483,8.0381,8.1591,8.2098,8.3074,8.4245,8.5143,0.0,0.0,0.0,0.0,0.0,0.0,0.0,8.3074,8.3933,8.448,8.4987,8.5924,8.6471,8.6978,8.7876,8.9359,9.1077,9.2756,9.381,9.4903,9.666,9.666,9.6464,9.6933,9.666,9.6621,9.7558,9.7323,9.7167,9.7636,9.7714,9.7714,9.7714,9.7714,9.7714,9.7714,9.7714,9.7714,9.7714,9.7714,9.7714,9.7714,9.7714,9.7714,9.7714,9.7714,9.7714,9.7714,9.7714,9.7714,9.7714,9.7714,9.7714,9.7714,9.7714,9.7714,9.7714,9.7714,9.7714,9.7714,9.7714,9.7714,9.7714,9.7714,9.7714,9.7714,9.7714,9.7714,9.7714,0.0,0.0,0.0,0.0,0.0,0.0,0.0,0.0,0.0,7.7179,7.7071,7.7073,7.7101,7.7071,7.7054,0.0,0.0,0.0,7.699,7.7148,7.7964,7.9642,7.9131,7.9444,8.0732,7.9366,7.8468,7.8194,7.7453,7.7101,7.7101,7.7101,7.7101,7.7101,7.7101,7.7101,7.7179,7.8038,7.8897,7.9795,8.0654,8.1903,8.323,8.2723,8.3386,8.4597,8.4753,8.526,8.6002,8.6705,0.0,0.0,0.0,0.0,8.2684,8.3465,8.4245,8.487,8.5182,8.5885,8.6705,8.7446,8.9359,9.1507,9.3185,9.4239,9.5371,9.7128,9.7597,9.7714,9.7714,9.7714,9.7714,9.7714,9.7714,9.7714,9.7714,9.7714,9.7714,9.7714,9.7714,9.7714,9.7714,9.7714,9.7714,9.7714,9.7714,9.7714,9.7714,9.7714,9.7714,9.7714,9.7714,9.7714,9.7714,9.7714,9.7714,9.7714,9.7714,9.7714,9.7714,9.7714,9.7714,9.7714,9.7714,9.7714,9.7714,9.7714,9.7714,9.7714,9.7714,9.7714,9.7714,9.7714,9.7714,9.7714,0.0,0.0,0.0,0.0,0.0,0.0,0.0,0.0,0.0,0.0,7.7058,7.7026,7.7107,7.706,7.6992,7.6992,7.694,7.6917,7.6917,0.0,0.0,7.9642,8.0302,8.042,7.9873,7.9639,7.878,7.7257,7.7179,7.7101,7.7101,7.7101,7.7101,7.7101,7.7101,7.7101,7.7179,7.8038,7.8897,7.9795,8.0654,8.1591,8.2528,8.3113,8.3465,8.3777,8.4519,8.487,8.4987,8.5104,8.4987,0.0,0.0,0.0,8.3504,8.4362,8.4714,8.5143,8.6627,8.7681,8.8383,8.8501,8.9359,9.0609,9.2287,9.3341,9.4473,9.623,9.7167,9.7714,9.7714,9.7714,9.7714,9.7714,9.7714,9.7714,9.7714,9.7714,9.7714,9.7714,9.7714,9.7714,9.7714,9.7714,9.7714,9.7714,9.7714,9.7714,9.7714,9.7714,9.7714,9.7714,9.7714,9.7714,9.7714,9.7714,9.7714,9.7714,9.7714,9.7714,9.7714,9.7714,9.7714,9.7714,9.7714,9.7714,9.7714,9.7714,9.7714,9.7714,9.7714,9.7714,9.7714,9.7714,9.7714,9.7714,0.0,0.0,0.0,0.0,0.0,0.0,0.0,0.0,0.0,0.0,0.0,7.7571,7.7031,7.6992,7.6987,7.69,7.686,7.686,7.6903,7.7767,7.8706,7.9642,8.0537,8.1044,8.1161,8.0185,7.9326,7.8546,7.8077,7.757,7.7101,7.8069,7.7989,7.7101,7.7101,7.7101,7.7179,7.8546,7.9639,8.0537,8.1864,8.323,8.4362,8.3738,8.4128,8.487,8.4284,8.4401,8.4792,8.4792,8.448,8.4011,8.3621,0.0,0.0,0.0,8.405,8.5065,8.6314,8.7642,8.8579,8.811,8.9008,9.0452,9.2131,9.2795,9.3693,9.5957,9.6699,9.7128,9.7597,9.7714,9.7714,9.7714,9.7714,9.7714,9.7714,9.7714,9.7714,9.7714,9.7714,9.7714,9.7714,9.7714,9.7714,9.7714,9.7714,9.7714,9.7714,9.7714,9.7714,9.7714,9.7714,9.7714,9.7714,9.7714,9.7714,9.7714,9.7714,9.7714,9.7714,9.7714,9.7714,9.7714,9.7714,9.7714,9.7714,9.7714,9.7714,9.7714,9.7714,9.7714,9.7714,9.7714,9.7714,9.7714,0.0,0.0,0.0,0.0,0.0,0.0,0.0,0.0,0.0,0.0,0.0,7.835,7.7375,0.0,0.0,0.0,7.6824,7.6969,7.7237,7.8121,7.9058,7.9993,8.0888,8.1513,8.1942,8.0693,7.9912,7.9717,7.9031,7.8374,7.7749,7.8984,7.8906,7.7685,7.7489,7.7372,7.7489,7.9011,8.0144,8.1081,8.2788,8.4268,8.5281,8.4212,8.4636,8.5612,8.4284,8.4245,8.4792,8.4792,8.4206,8.3504,8.3504,8.2957,0.0,0.0,0.0,8.526,8.5924,8.7212,8.8227,8.7564,8.8383,8.9789,9.1467,9.2053,9.2873,9.5254,9.6074,9.6582,9.7245,9.7558,9.7714,9.7714,9.7714,9.7714,9.7714,9.7714,9.7714,9.7714,9.7714,9.7714,9.7714,9.7714,9.7714,9.7714,9.7714,9.7714,9.7714,9.7714,9.7714,9.7714,9.7714,9.7714,9.7714,9.7714,9.7714,9.7714,9.7714,9.7714,9.7714,9.7714,9.7714,9.7714,9.7714,9.7714,9.7714,9.7714,9.7714,9.7714,9.7714,9.7714,9.7714,9.7714,9.7714,9.7714,0.0,0.0,0.0,0.0,0.0,0.0,0.0,0.0,0.0,0.0,0.0,7.9215,7.8406,7.8275,7.789,7.707,7.6931,7.7276,7.8163,7.9062,7.9956,8.0891,8.1786,0.0,8.1083,8.0966,8.0537,7.9717,7.9603,7.9492,7.9453,7.9508,7.9444,7.9329,7.8512,7.8125,7.8203,7.9101,7.9999,8.0978,8.2693,8.3476,8.3632,8.4422,8.4792,8.487,8.4753,8.4753,8.4792,8.4792,8.4206,8.3504,8.3504,8.2957,8.245,0.0,0.0,0.0,8.608,8.6783,8.7446,8.7407,8.7486,8.7993,8.9711,9.0765,9.1858,9.3576,9.5254,9.6425,9.6464,9.7128,9.7714,9.7714,9.7714,9.7714,9.7714,9.7714,9.7714,9.7714,9.7714,9.7714,9.7714,9.7714,9.7714,9.7714,9.7714,9.7714,9.7714,9.7714,9.7714,9.7714,9.7714,9.7714,9.7714,9.7714,9.7714,9.7714,9.7714,9.7714,9.7714,9.7714,9.7714,9.7714,9.7714,9.7714,9.7714,9.7714,9.7714,9.7714,9.7714,9.7714,9.7714,9.7714,9.7714,9.7714,0.0,0.0,0.0,0.0,0.0,0.0,0.0,0.0,0.0,0.0,0.0,0.0,0.0,7.9101,7.8788,7.7836,7.7699,7.7863,7.8281,7.9602,8.0546,8.0972,8.1825,8.2137,8.1825,8.0732,8.0282,8.0463,7.9882,7.9566,7.9584,8.1152,8.1304,8.0212,7.9416,7.9359,7.9945,8.0807,8.1662,8.2528,8.3745,8.457,8.5039,8.4854,8.5143,8.5573,8.4987,8.4792,8.4792,8.4792,8.4597,8.4323,8.4323,8.3738,8.3113,8.3426,8.3933,8.4675,8.5807,8.6314,8.6705,8.7251,8.7404,8.772,8.8891,8.9828,9.0804,9.1975,9.3537,9.4903,9.5449,9.6738,9.7714,9.7714,9.7714,9.7714,9.7714,9.7714,9.7714,9.7714,9.7714,9.7714,9.7714,9.7714,9.7714,9.7714,9.7714,9.7714,9.7714,9.7714,9.7714,9.7714,9.7714,9.7714,9.7714,9.7714,9.7714,9.7714,9.7714,9.7714,9.7714,9.7714,9.7714,9.7714,9.7714,9.7714,9.7714,9.7714,9.7714,9.7714,9.7714,9.7714,9.7714,9.7714,9.7714,9.7714,0.0,0.0,0.0,0.0,0.0,8.28,8.2179,8.2144,8.1875,8.0897,0.0,0.0,0.0,0.0,7.9636,7.8705,7.8612,7.8745,7.9093,8.0168,8.0959,8.1363,8.1909,8.222,8.222,8.1089,8.0781,8.1283,8.0686,8.0504,8.0796,8.2403,8.2723,8.1905,8.1364,8.1438,8.1995,8.2039,8.2858,8.415,8.4789,8.5411,8.5973,8.6009,8.6415,8.69,8.6321,8.6122,8.6041,8.5774,8.5498,8.5221,8.5221,8.4636,8.3894,8.3582,8.3699,8.4206,8.5338,8.608,8.6666,8.7251,8.7603,8.8071,8.893,8.9594,9.0257,9.1116,9.2639,9.3888,9.4161,9.5645,9.7011,9.7597,9.7714,9.7714,9.7714,9.7714,9.7714,9.7714,9.7714,9.7714,9.7714,9.7714,9.7714,9.7714,9.7714,0.0,9.7714,9.7714,9.7714,9.7714,9.7714,9.7714,9.7714,9.7714,9.7714,9.7714,9.7714,9.7714,9.7714,9.7714,9.7714,9.7714,9.7714,9.7714,9.7714,9.7714,9.7714,9.7714,9.7714,9.7714,9.7714,9.7714,9.7714,9.7714,0.0,0.0,0.0,0.0,8.3991,8.459,8.4512,8.4512,8.4203,8.3344,0.0,0.0,0.0,0.0,0.0,7.9672,7.959,7.9942,8.0768,8.0846,8.1197,8.2059,8.2098,8.2098,8.2098,8.2059,8.2095,8.2134,8.2045,8.2409,8.3215,8.3179,8.3602,8.4408,8.4397,8.4407,8.4369,8.2699,8.3485,8.5787,8.5743,8.5855,8.6161,8.7841,8.8551,8.8666,8.8641,8.8639,0.0,8.7665,0.0,0.0,0.0,0.0,8.4675,8.3777,8.4128,8.4792,0.0,0.0,0.0,8.7446,8.8071,8.893,8.975,8.9984,9.0218,9.1038,9.2561,9.3458,9.26,9.3888,9.5606,9.7284,9.7597,9.7675,9.7714,9.7714,9.7714,9.7714,9.7714,9.7714,9.7714,9.7714,9.7714,9.7714,9.7714,9.7714,9.7714,9.7714,9.7714,9.7714,9.7714,9.7714,9.7714,9.7714,9.7714,9.7714,9.7714,9.7714,9.7717,9.7714,9.7714,9.7717,9.7717,9.7717,9.7717,9.7714,9.7714,9.7714,9.7714,9.7714,9.7714,9.7714,9.7714,9.7714,0.0,0.0,0.0,8.4208,8.4423,8.42,8.299,8.2794,8.2485,0.0,0.0,0.0,8.1705,8.1744,8.1897,8.2205,8.168,8.1436,8.174,8.1689,8.1802,8.2095,8.2098,8.2098,8.2098,8.147,8.1719,8.2892,8.2241,8.2661,8.4019,8.458,8.4643,8.4305,8.5563,8.6106,8.6051,8.4954,8.5962,8.8196,8.7072,8.7362,8.8371,8.7729,8.7885,8.8321,8.7693,8.7462,8.7426,0.0,8.7411,8.7732,0.0,0.0,8.5573,8.4714,8.4597,8.4948,8.5573,0.0,0.0,0.0,0.0,0.0,8.9008,8.9555,8.9906,8.9516,9.0804,9.1936,9.1663,9.3029,9.4122,9.3966,9.5527,9.6972,9.7597,9.7714,9.7714,9.7714,9.7714,9.7714,9.7714,9.7714,9.7714,0.0,9.7714,9.7714,9.7714,9.7714,9.7714,9.7714,9.7714,9.7714,9.7714,9.7714,9.7682,9.7692,9.7682,9.7689,9.7711,9.7698,9.7701,9.7711,9.7711,9.7711,9.7709,9.7685,9.7714,9.7714,9.7714,9.7714,9.7714,9.7714,9.7714,9.7717,0.0,0.0,8.5052,8.5052,8.5364,8.5169,8.3804,8.3609,8.3142,0.0,0.0,0.0,8.2017,8.2017,8.2206,8.2674,8.2253,8.2122,8.2479,8.2486,8.2635,8.3025,8.3064,8.3058,8.3007,8.2539,8.272,8.3623,8.3122,8.3514,8.4809,8.5269,8.5413,8.5336,8.632,8.7161,8.7742,8.6853,8.7575,8.9186,8.7932,8.7991,8.884,8.8254,8.8161,8.8277,0.0,0.0,8.8068,8.7268,8.7681,0.0,0.0,0.0,0.0,8.569,8.5065,8.4987,8.5846,8.608,8.6431,8.7798,0.0,0.0,8.8774,8.9359,8.975,8.8891,9.0101,9.1194,9.0804,9.2131,9.3224,9.3068,9.4005,9.5098,9.5957,9.6699,9.7167,9.7167,9.7167,9.7167,9.7167,9.6816,9.6777,9.7128,9.7167,9.7323,9.7675,9.7714,9.7714,9.7714,9.7682,9.7685,9.7685,9.7695,9.7701,9.7709,9.7701,9.7706,9.7719,9.7713,9.7713,9.768,9.768,9.768,9.7719,9.7703,9.7698,9.7698,9.7698,9.7698,9.7698,9.7698,9.7698,9.7698,0.0,0.0,8.5855,8.5855,8.6477,8.671,8.5816,8.57,8.5117,0.0,8.3174,8.2864,8.2242,8.2164,8.2203,8.232,8.232,8.2592,8.3213,8.3136,8.3446,8.4223,8.4253,8.4272,8.4298,8.4288,8.4305,8.4316,8.4355,8.4781,8.5634,8.5623,8.6049,8.6785,8.6919,8.7745,8.901,8.8532,8.8765,8.9344,8.839,8.8196,8.8467,8.8915,8.8756,8.8344,8.9015,8.9345,8.9227,8.7643,8.7651,0.0,0.0,0.0,0.0,0.0,8.5774,8.527,8.6044,8.6236,8.6431,8.7329,8.8696,0.0,8.8891,8.9281,8.9633,8.8852,8.9945,9.0765,8.9984,9.1155,9.2443,9.3107,9.2756,9.2756,9.381,9.5215,9.6113,9.6113,9.6191,9.623,9.6113,9.5488,9.5449,9.6347,9.6503,9.6894,9.7678,9.7717,9.7717,9.7682,9.7695,9.7703,9.7703,9.7715,9.768,9.7682,9.768,9.7682,9.7684,9.7682,9.7682,9.7684,9.7684,9.7684,9.7684,9.7684,9.7682,9.768,9.768,9.768,9.768,9.768,9.768,9.768,8.6399,8.6632,8.6749,8.6749,8.6904,8.671,8.5816,8.57,8.5311,8.4262,8.3524,8.3291,8.3835,8.3913,8.4185,8.4884,8.4962,8.4728,8.4185,8.3485,8.3174,8.333,8.3291,8.361,8.4298,8.4245,8.4571,8.5258,8.52,8.5602,8.6466,8.6404,8.6494,8.6688,8.8106,8.8493,8.8286,9.0168,9.0646,9.0055,8.8597,8.8804,8.9746,8.7936,8.7534,8.7921,8.7367,8.7181,8.7269,8.7737,8.7542,8.7397,0.0,0.0,0.0,8.8024,0.0,8.687,8.7108,8.7134,8.7368,0.0,0.0,0.0,8.8735,8.8813,8.8891,8.8735,8.8969,8.9164,8.9008,8.9789,9.0296,8.9789,9.0726,9.2326,9.4512,9.4552,9.4317,9.4317,9.4942,0.0,9.4395,9.4786,9.5449,9.6347,9.705,9.7526,9.7695,9.7695,9.7701,9.7713,9.7715,9.7715,9.7715,9.7717,9.7684,9.7689,9.7684,9.7688,9.7695,9.7691,9.7692,9.7695,9.7695,9.7695,9.7695,9.7695,9.7691,9.768,9.768,9.768,9.768,9.768,9.768,9.7682,8.6904,8.6982,8.6982,8.6982,8.6982,8.671,8.5816,8.57,8.5389,8.4495,8.4418,8.4573,8.5,8.5428,8.5855,8.6321,8.636,8.635,8.632,8.5892,8.5805,8.62,8.5779,8.5707,8.615,8.5688,8.5652,8.6054,8.6017,8.6236,8.6662,8.7048,8.7035,8.6687,8.8428,8.8969,8.866,9.0323,9.129,9.1522,8.9435,8.9087,8.9627,8.7926,8.7565,8.7925,8.7886,8.7886,8.8055,8.9041,8.9352,0.0,0.0,8.895,8.8904,0.0,8.7609,8.6746,0.0,0.0,0.0,8.7843,0.0,0.0,0.0,8.8383,8.8579,8.8149,8.8383,8.8696,8.8696,8.9398,8.9867,8.9437,8.9711,9.0609,9.2326,9.2912,0.0,0.0,0.0,0.0,9.3146,9.3185,9.3891,9.5619,9.6947,9.7695,9.7711,9.7711,9.7713,9.7719,9.7684,9.7687,9.7687,9.769,9.7692,9.7694,9.7692,9.7694,9.7695,9.7695,9.7695,9.7695,9.7695,9.7695,9.7695,9.7695,9.7695,9.7691,9.7691,9.7691,9.7691,9.7691,9.7691,9.7691,8.702,8.6982,8.6982,8.6982,8.6982,8.6749,8.6049,8.5933,8.5816,8.5428,8.569,8.6029,8.6379,8.6728,8.6951,8.6951,8.6951,8.7241,8.7886,8.7924,8.8212,8.8786,8.8348,8.804,8.7991,8.7474,8.7126,8.7112,8.7267,8.7345,8.7345,8.8234,8.8273,8.7654,8.8892,8.9627,8.9975,9.0439,9.1561,9.2799,9.0594,8.9859,9.0014,8.8853,8.8505,8.8698,8.9047,8.9201,8.9333,9.0247,9.1022,9.1304,8.9605,8.9721,0.0,0.0,0.0,0.0,0.0,0.0,0.0,0.0,0.0,8.8246,0.0,0.0,0.0,0.0,0.0,0.0,0.0,0.0,0.0,0.0,0.0,0.0,0.0,0.0,0.0,0.0,0.0,0.0,9.1975,9.1858,9.2645,9.4694,9.6607,9.7706,9.7682,9.7682,9.7684,9.7685,9.769,9.7692,9.7692,9.7695,9.7695,9.7695,9.7695,9.7695,9.7695,9.7695,9.7695,9.7695,9.7695,9.7695,9.7695,9.7695,9.7695,9.7695,9.7695,9.7695,9.7695,9.7695,9.7695,9.7695,8.7137,8.6982,8.6982,8.6982,8.6982,8.6982,8.6865,8.6865,8.7331,8.873,8.7679,8.7336,8.8811,8.7669,8.682,8.682,8.682,8.6859,8.6925,8.6964,8.7003,8.708,8.7679,8.7991,8.7991,8.8584,8.8905,8.8892,8.9627,8.9975,8.9975,9.0865,9.1213,9.1097,9.0516,9.1135,9.2528,9.1832,9.2102,9.2915,9.1832,9.2296,9.3379,9.1019,9.0594,9.1097,8.9704,8.9201,8.9331,0.0,9.0507,9.0831,0.0,9.1145,8.9693,9.1236,0.0,0.0,0.0,0.0,0.0,0.0,8.7294,0.0,0.0,0.0,8.729,8.6431,0.0,0.0,0.0,0.0,0.0,0.0,0.0,0.0,0.0,0.0,0.0,0.0,0.0,0.0,0.0,9.2248,9.3622,9.3913,9.6295,9.7711,9.7689,9.769,9.7692,9.7695,9.7695,9.7695,9.7695,9.7695,9.7695,9.7695,9.7695,9.7695,9.7695,9.7695,9.7695,9.7695,9.7695,9.7695,9.7695,9.7695,9.7695,9.7695,9.7695,9.7695,9.7695,9.7695,9.7695,9.7695,8.7448,8.6982,8.6982,8.6982,8.6982,8.7176,8.7681,8.8543,8.956,9.0718,9.0695,9.0838,9.1536,9.1357,9.1229,9.1229,9.0802,9.07,9.1128,9.0236,9.0108,9.1037,8.9991,8.9861,9.0867,9.0221,9.013,9.0633,9.0981,9.1135,9.1174,9.1522,9.1445,9.0942,9.1097,9.129,9.1522,9.218,9.2915,9.3727,9.3843,9.4617,0.0,9.1251,9.0207,9.0903,9.071,9.0633,9.071,0.0,9.1793,0.0,0.0,0.0,0.0,9.1361,0.0,0.0,0.0,0.0,0.0,0.0,0.0,0.0,8.7206,0.0,8.7182,0.0,0.0,0.0,0.0,0.0,0.0,0.0,0.0,0.0,0.0,0.0,0.0,0.0,0.0,0.0,0.0,0.0,0.0,0.0,9.5765,9.7179,9.7655,9.7694,9.7695,9.7695,9.7695,9.7695,9.7695,9.7695,9.7695,9.7695,9.7695,9.7695,9.7695,9.7695,9.7695,9.7695,9.7695,9.7695,9.7695,9.7695,9.7695,9.7695,9.7695,9.7695,9.7695,9.7695,9.7695,9.7695,8.8924,8.838,8.8302,8.8069,8.802,8.831,8.9144,9.0275,9.1575,9.3077,9.322,9.3439,9.4137,9.3891,9.3659,9.3659,9.2729,9.2432,9.3192,9.234,9.2197,9.3108,9.2064,9.1716,9.2257,9.1716,9.1638,9.2064,9.2528,9.2721,9.276,9.2992,9.2528,9.1484,9.2102,9.1909,9.1213,9.2451,9.3456,9.4269,9.4888,9.5236,9.5042,9.1793,9.0633,9.0826,9.1484,9.1716,9.1754,9.1986,9.2876,0.0,9.1948,0.0,9.32,0.0,0.0,0.0,9.0591,0.0,0.0,0.0,0.0,0.0,0.0,0.0,0.0,0.0,0.0,0.0,0.0,0.0,0.0,0.0,0.0,0.0,0.0,0.0,0.0,0.0,0.0,0.0,0.0,0.0,0.0,0.0,0.0,9.6677,9.7344,9.7578,9.7695,9.7695,9.7695,9.7695,9.7695,9.7695,9.7695,9.7695,9.7695,9.7695,9.7695,9.7695,9.7695,9.7695,9.7695,9.7695,9.7695,9.7695,9.7695,9.7695,9.7695,9.7695,9.7695,9.7695,9.7695,9.7695,9.211,9.1954,9.1682,9.0828,9.063,9.0846,9.1655,9.1837,9.3077,9.6411,9.4653,9.4032,9.6511,9.377,9.1793,9.1793,9.0298,8.9679,9.0478,9.1251,9.1367,9.0555,9.2799,9.2953,9.0555,9.2837,9.3688,9.2953,9.4578,9.539,9.539,9.6241,9.57,9.4075,9.4114,9.365,9.2915,9.2992,9.3456,9.4191,9.423,9.3302,9.2025,0.0,9.3031,9.1677,9.1677,0.0,0.0,9.2683,9.2992,0.0,0.0,0.0,0.0,0.0,0.0,0.0,0.0,0.0,0.0,8.9371,0.0,0.0,0.0,0.0,8.7819,0.0,0.0,0.0,0.0,0.0,0.0,0.0,0.0,0.0,0.0,0.0,0.0,0.0,0.0,0.0,0.0,0.0,0.0,0.0,0.0,0.0,9.6523,9.7265,9.7695,9.7695,9.7695,9.7695,9.7695,9.7695,9.7695,9.7695,9.7695,9.7695,9.7695,9.7695,9.7695,9.7695,9.7695,9.7695,9.7695,9.7695,9.7695,9.7695,9.7695,9.7695,9.7695,9.7695,9.7695,9.7695,9.6326,9.6742,9.612,9.3015,9.2387,9.2818,9.4136,9.4834,9.5401,9.5941,9.5254,9.4815,9.5086,9.4051,9.334,9.334,9.2335,9.2064,9.2876,9.3186,9.3224,9.2915,9.4269,9.4926,9.4655,9.4926,9.5197,9.5506,9.6087,9.6087,9.5468,9.5197,9.5081,9.5042,9.4462,9.3766,9.3108,9.481,9.5004,9.4191,9.4191,9.4539,9.4849,0.0,9.1329,9.0826,9.0826,9.16,0.0,9.2915,9.334,9.3766,9.3495,9.3379,9.3186,9.2373,9.2141,9.1986,0.0,0.0,9.0364,9.0133,0.0,0.0,0.0,0.0,0.0,0.0,0.0,0.0,0.0,0.0,0.0,0.0,0.0,0.0,0.0,0.0,0.0,0.0,0.0,0.0,0.0,0.0,0.0,0.0,0.0,0.0,0.0,9.6758,9.7148,9.7695,9.7695,9.7695,9.7695,9.7695,9.7695,9.7695,9.7695,9.7695,9.7695,9.7695,9.7695,9.7695,9.7695,9.7695,9.7695,9.7695,9.7695,9.7695,9.7695,9.7695,9.7695,9.7695,9.7695,9.7695,9.875,9.8983,9.8285,9.5544,9.4757,9.495,9.6275,9.6701,9.688,9.686,9.6319,9.5739,9.5197,9.4578,9.4075,9.3804,9.3031,9.2992,9.4114,9.3921,0.0,9.3766,9.4578,9.4888,0.0,9.5468,9.6087,9.6358,9.6976,9.7131,9.6822,9.5971,9.5893,9.6396,9.5855,9.4965,9.3998,9.5623,9.57,9.4617,9.4307,9.4501,0.0,0.0,9.1406,9.2141,0.0,9.187,9.2528,9.2528,9.3108,9.3688,9.3147,9.3379,9.3572,9.2489,9.2335,9.2412,9.187,9.129,0.0,9.0919,9.0892,0.0,8.9862,0.0,0.0,0.0,0.0,0.0,0.0,0.0,0.0,0.0,0.0,0.0,0.0,0.0,0.0,0.0,0.0,0.0,0.0,0.0,0.0,0.0,0.0,0.0,0.0,0.0,9.6875,9.7656,9.7695,9.7695,9.7695,9.7652,9.7649,9.7649,9.7596,9.7547,9.7547,9.7547,9.7547,9.7547,9.7547,9.7547,9.755,9.7606,9.7649,9.761,9.7695,9.7695,9.7695,9.7695,9.7695,9.7695,9.9396,9.8915,9.8384,9.8452,9.7714,9.7335,9.8113,9.7441,9.7402,9.8911,9.7634,9.659,9.6551,9.5081,9.3766,9.2992,9.2218,9.2451,9.4037,9.3534,0.0,0.0,9.3882,9.3147,9.0633,0.0,0.0,9.5506,9.7286,9.8524,9.922,9.8446,9.8098,9.8098,9.8098,9.7131,9.5506,9.5584,9.5545,9.5352,9.4539,9.3263,9.187,9.1832,9.3379,9.5352,9.3611,9.2528,9.1909,9.1909,9.2451,9.3108,9.3108,9.3108,9.307,9.307,9.2489,9.1832,9.1832,9.1793,9.1754,9.1754,9.1754,0.0,0.0,0.0,9.0221,0.0,0.0,0.0,0.0,0.0,0.0,0.0,0.0,0.0,0.0,0.0,0.0,0.0,0.0,0.0,0.0,0.0,0.0,0.0,0.0,0.0,0.0,0.0,9.6797,9.7617,9.7695,9.7695,9.7695,9.755,9.7518,9.7472,9.737,9.7301,9.7301,9.7301,9.7301,9.7301,9.7301,9.7301,9.7316,9.7436,9.7472,9.7479,9.7649,9.7695,9.7695,9.7695,9.7695,9.7695,10.0412,10.0703,10.1007,10.0983,10.0194,9.9715,9.9916,9.8717,9.7479,9.659,9.5004,9.3727,9.307,9.2605,9.2257,9.2064,9.2412,9.2837,0.0,0.0,0.0,9.3959,9.5313,9.5236,9.3263,9.5584,0.0,9.5506,9.7866,9.8794,9.8408,9.8214,9.8098,9.8098,9.8098,9.7131,9.5584,9.686,9.6319,9.4501,9.4269,9.4307,9.4462,0.0,9.4772,9.6164,9.3843,9.365,9.4501,9.4501,9.4655,9.4849,9.4849,9.4423,9.3882,9.3882,9.3727,9.3572,9.3572,9.3108,9.2683,9.2683,9.2683,9.2451,0.0,0.0,0.0,0.0,0.0,0.0,0.0,0.0,0.0,0.0,0.0,0.0,0.0,0.0,0.0,0.0,0.0,0.0,0.0,0.0,0.0,0.0,0.0,0.0,0.0,0.0,0.0,9.6797,9.7383,9.7652,9.7544,9.7529,9.7446,9.7357,9.7323,9.7301,9.7301,9.7301,9.7301,9.7301,9.7301,9.7301,9.7301,9.7344,9.7357,9.7363,9.7394,9.7455,9.755,9.7654,9.7695,9.7695,10.1191,10.1301,10.1502,10.1812,10.0883,9.9994,9.9994,9.9568,9.8717,9.7325,9.6358,9.5274,9.4075,9.3263,9.2489,9.1754,9.2141,9.276,9.3495,0.0,0.0,9.423,9.512,9.4849,9.3147,9.5545,0.0,9.5506,9.7711,9.8717,9.864,9.8253,9.8292,9.864,9.864,9.8098,9.7209,9.7827,9.6822,9.4733,9.4346,9.4269,0.0,9.423,9.5042,9.6087,9.5042,9.4772,9.4926,9.4926,9.5158,9.5506,9.5506,9.5158,9.4772,9.4772,9.4501,9.4191,9.4191,9.3882,9.3534,9.3534,9.3534,9.3302,9.2451,9.2257,9.2025,0.0,9.0323,0.0,0.0,0.0,0.0,0.0,0.0,0.0,0.0,0.0,0.0,0.0,0.0,0.0,0.0,0.0,0.0,0.0,0.0,0.0,0.0,0.0,0.0,9.6356,9.7176,9.7544,9.7416,9.7324,9.7247,9.7186,9.71,9.7087,9.7087,9.7087,9.7087,9.7087,9.7087,9.7087,9.7098,9.7149,9.7186,9.7195,9.7271,9.735,9.7427,9.7518,9.7602,9.7695,10.1812,10.1386,10.1193,10.2082,10.0806,9.9645,9.9645,9.9916,9.9839,9.9065,9.8756,9.8098,9.6628,9.512,9.3611,9.2141,9.2141,9.2837,9.4269,9.3727,9.365,9.4346,9.4269,9.3418,9.1754,9.4926,0.0,0.0,0.0,9.8717,9.9645,9.8949,9.8911,9.9491,9.9491,9.9336,9.9104,9.8408,9.7092,9.5429,9.4655,9.3882,9.3263,9.4075,9.4849,9.5623,9.6474,9.5816,9.4539,9.4539,9.5042,9.5661,9.5661,9.5661,9.5661,9.5661,9.512,9.4539,9.4539,9.4462,9.4346,9.4346,9.4269,9.3998,9.334,9.3147,9.2915,9.2064,9.1251,9.071,0.0,0.0,0.0,0.0,0.0,0.0,0.0,0.0,0.0,0.0,0.0,0.0,0.0,0.0,0.0,0.0,0.0,0.0,0.0,0.0,0.0,9.5992,9.6843,9.7299,9.7271,0.0,9.6993,9.6959,9.6873,9.6783,9.6783,9.6783,9.6783,9.6783,9.6783,9.6783,9.6798,9.694,9.6959,9.6982,9.7168,9.7246,9.7271,9.7271,9.7432,9.7652,10.1889,10.2392,10.3011,10.3784,10.2585,10.1386,10.1386,9.9181,9.7402,9.7247,9.5971,9.4965,9.4694,9.4385,9.4075,9.3804,9.4423,9.4965,0.0,0.0,0.0,9.5274,9.4578,9.3418,9.1754,9.4346,9.5661,0.0,0.0,9.9916,10.1386,10.1309,10.0883,10.038,10.038,9.9607,9.8292,9.8176,9.7092,9.5468,9.5313,9.4772,9.4075,9.4926,9.5352,9.5623,9.6474,9.659,9.6358,9.6358,9.6435,9.6551,9.6551,9.6551,9.6551,9.6551,9.6474,9.6358,9.6358,9.5816,9.5274,9.5274,9.4733,9.4153,9.3998,9.3998,9.3766,9.2953,9.2644,9.2335,9.16,0.0,0.0,0.0,0.0,0.0,0.0,0.0,0.0,0.0,0.0,0.0,0.0,0.0,0.0,0.0,0.0,0.0,0.0,0.0,0.0,0.0,9.5878,0.0,0.0,0.0,9.6939,9.6831,9.6812,9.6783,9.6783,9.6783,9.6783,9.6783,9.6783,9.6783,9.6783,9.6841,9.6831,9.6831,9.6887,9.6965,9.7069,9.7069,9.7182,9.7394,10.3204,10.3514,10.3784,10.3784,10.2392,10.1077,10.0613,9.8408,9.7092,9.7982,9.7363,9.6706,9.628,9.5429,9.4694,9.423,9.4578,9.481,9.481,9.5236,9.5506,9.5506,9.5545,9.4733,9.3031,9.4655,9.5506,9.5506,0.0,9.8872,10.0613,10.0613,10.0303,9.9916,9.9916,9.9723,9.9336,9.8485,9.7363,9.6125,9.5661,9.5236,9.4926,9.5352,9.5777,9.6241,9.6667,9.6783,9.6783,9.6783,9.6783,9.6783,9.6783,9.6783,9.6783,9.6783,9.6783,9.6783,9.6783,9.6474,9.6164,9.6164,9.5855,9.5429,9.4965,9.4849,9.4617,9.3804,9.3611,9.3379,9.2528,9.2373,0.0,0.0,0.0,0.0,0.0,0.0,0.0,0.0,0.0,0.0,0.0,0.0,0.0,0.0,0.0,0.0,0.0,0.0,0.0,0.0,0.0,0.0,0.0,0.0,0.0,9.6783,9.6783,9.6783,9.6783,9.6783,9.6783,9.6783,9.6783,9.6783,9.6783,9.6783,9.6783,9.6783,9.6783,9.6831,9.6876,9.6876,9.7009,9.7165,10.4287,10.4287,10.4094,10.3088,10.1502,10.0187,9.9645,9.7982,9.7286,9.8601,9.8756,9.8524,9.7905,9.659,9.5506,9.481,9.4733,9.4733,9.4733,9.5236,9.5506,9.5506,9.6164,9.5777,9.423,9.5042,9.5584,0.0,0.0,9.7827,9.9297,9.9684,9.9762,9.9568,9.9762,9.9994,10.0187,9.9104,9.8021,9.7015,9.6319,9.5932,9.5777,9.5777,9.6203,9.6783,9.6783,9.6783,9.6783,9.6783,9.6783,9.6783,9.6783,9.6783,9.6783,9.6783,9.6783,9.6783,9.6783,9.6783,9.6783,9.6783,9.6783,9.6628,9.5932,9.5777,9.5545,9.4655,9.4307,9.3959,9.3147,9.2992,0.0,0.0,0.0,0.0,0.0,0.0,0.0,0.0,0.0,0.0,0.0,0.0,0.0,0.0,0.0,0.0,0.0,0.0,0.0,0.0,0.0,9.5972,9.7054,0.0,9.6783,9.6783,9.6783,9.6783,9.6783,9.6783,9.6783,9.6783,9.6783,9.6783,9.6783,9.6783,9.6783,9.6783,9.6783,9.6783,9.6783,9.6783,9.6862,9.6993,10.3784,10.3901,10.3901,10.2315,10.0613,9.9645,10.038,9.8369,9.686,9.7015,9.7015,9.7015,9.6938,9.6783,9.6667,9.6551,9.6551,9.6551,9.6551,9.5893,9.5506,9.5506,9.5584,9.5158,9.423,9.5042,9.5893,0.0,0.0,9.8446,9.9336,10.0883,10.1193,10.0496,10.1309,10.0806,9.9452,10.011,9.9452,9.7982,9.7905,9.7363,9.6667,9.6667,9.6744,9.6783,9.6783,9.6783,9.6783,9.6783,9.6783,9.6783,9.6783,9.6783,9.6783,9.6783,9.6783,9.6783,9.6783,9.6783,9.6783,9.6783,9.6783,9.6783,9.6706,9.6667,9.6435,9.5545,9.4733,9.3959,9.3147,9.2992,9.2721,0.0,0.0,0.0,0.0,0.0,0.0,0.0,0.0,0.0,0.0,0.0,0.0,0.0,9.2774,0.0,0.0,0.0,0.0,9.5545,0.0,9.5497,9.7943,9.7209,9.6783,9.6783,9.6783,9.6783,9.6783,9.6783,9.6783,9.6783,9.6783,9.6783,9.6783,9.6783,9.6783,9.6783,9.6783,9.6783,9.6783,9.6783,9.6798,9.6831,10.4094,10.421,10.3901,10.2199,10.0883,9.9878,9.9181,9.7789,9.6783,9.6783,9.6783,9.6783,9.6783,9.6783,9.6783,9.6783,9.6783,9.6783,9.6783,9.6474,9.628,9.628,9.5777,9.5352,9.5004,9.481,9.539,0.0,0.0,0.0,10.0883,10.158,10.1193,9.9839,10.0187,9.9955,9.9297,9.9143,9.8717,9.806,9.7518,9.7092,9.6783,9.6783,9.6783,9.686,9.7402,9.7595,9.7595,9.7595,9.7247,9.6783,9.6783,9.6783,9.6783,9.6783,9.6783,9.6783,9.6783,9.6783,9.6783,9.6783,9.6783,9.6783,9.6783,9.6783,9.6706,9.6358,9.5584,9.4888,9.4578,9.4075,9.3456,9.2605,0.0,0.0,0.0,0.0,0.0,0.0,0.0,0.0,0.0,0.0,0.0,0.0,0.0,0.0,0.0,0.0,0.0,9.4783,0.0,9.5197,9.7286,9.6976,9.6783,9.6783,9.6783,9.6783,9.6783,9.6783,9.6783,9.6783,9.6783,9.6783,9.6783,9.6783,9.6783,9.6783,9.6783,9.6783,9.6783,9.6783,9.6783,9.6798,10.421,10.4017,10.3398,10.1502,10.0613,9.9723,9.833,9.7595,9.7078,9.6792,9.6792,9.6792,9.6783,9.6783,9.6783,9.6783,9.6783,9.6783,9.6783,9.6985,9.7125,9.7125,9.6761,0.0,9.6197,9.5593,9.5786,9.6783,9.8253,0.0,10.038,10.069,10.011,9.8949,9.9181,9.9181,9.8949,9.8601,9.833,9.806,9.7441,9.7015,9.6783,9.6783,9.6976,9.7247,9.7866,9.8098,9.8098,9.8098,9.7518,9.6783,9.6783,9.6783,9.6783,9.6783,9.6783,9.6783,9.6783,9.6783,9.6783,9.6783,9.6783,9.6783,9.6783,9.6783,9.6783,9.6783,9.6319,9.5816,9.5545,9.5004,9.4307,9.3495,0.0,0.0,0.0,0.0,0.0,0.0,0.0,0.0,0.0,0.0,0.0,0.0,0.0,0.0,0.0,0.0,0.0,0.0,0.0,0.0,0.0,9.6938,9.6783,9.6783,9.6783,9.6783,9.6783,9.6783,9.6783,9.6783,9.6783,9.6783,9.6783,9.6783,9.6783,9.6783,9.6783,9.6783,9.6783,9.6783,9.6783,9.6783,10.3707,10.3204,10.2392,9.98,9.9336,9.9027,9.8214,9.8098,9.7759,9.6831,9.6715,9.6731,9.6768,9.6783,9.6783,9.6783,9.6783,9.6783,9.6783,9.748,9.7881,0.0,0.0,9.8687,9.7881,9.7842,9.7503,9.6783,0.0,0.0,9.686,9.775,9.8137,9.8137,9.8949,9.8872,9.8176,9.8949,9.8833,9.8098,9.8098,9.7557,9.6783,9.6783,9.7325,9.8098,9.8098,9.8098,9.8098,9.8098,9.7518,9.6783,9.6783,9.6783,9.6783,9.6783,9.6783,9.6783,9.6783,9.6783,9.6783,9.6783,9.6783,9.6783,9.6783,9.6783,9.6783,9.6783,9.6783,9.6512,9.5661,9.5468,9.5197,9.4307,0.0,0.0,0.0,0.0,0.0,0.0,0.0,0.0,0.0,0.0,0.0,0.0,0.0,0.0,0.0,0.0,0.0,9.5468,9.5468,0.0,9.806,9.7247,9.6783,9.6783,9.6783,9.6783,9.6783,9.6783,9.6783,9.6783,9.6783,9.6783,9.6783,9.6783,9.6783,9.6783,9.6783,9.6783,9.6783,9.6783,9.6783,9.6783,10.2508,10.2315,10.2082,10.1193,10.0488,9.9977,9.98,9.8692,9.7794,9.7507,9.6928,9.658,9.6574,9.6613,9.6613,9.6613,9.6613,9.6613,9.6613,9.7352,9.7838,9.7838,9.7512,9.7512,9.7799,9.6718,9.6272,9.6613,0.0,9.8733,9.8524,9.8794,9.833,9.7247,9.8098,9.833,9.8137,9.8369,9.833,9.806,9.7441,9.7054,9.686,9.7479,9.7866,9.8253,9.9375,9.98,9.9723,9.9104,9.8717,9.8292,9.717,9.6783,9.6783,9.6783,9.6783,9.6783,9.6783,9.6783,9.6783,9.6783,9.6783,9.6783,9.6783,9.6783,9.6783,9.6783,9.6783,9.6706,9.6435,9.5893,9.539,9.512,9.4385,0.0,0.0,0.0,0.0,0.0,0.0,0.0,0.0,9.2335,0.0,0.0,0.0,0.0,0.0,0.0,0.0,0.0,9.5197,0.0,9.7209,9.6938,9.6783,9.6783,9.6783,9.6783,9.6783,9.6783,9.6783,9.6783,9.6783,9.6783,9.6783,9.6783,9.6783,9.6783,9.6783,9.6783,9.6783,9.6783,9.6783,9.6783,10.1793,10.1793,10.1793,10.1793,10.128,10.0783,10.0513,9.9459,9.8597,9.8254,9.7753,9.7389,9.7354,9.7354,9.7256,9.7016,9.6994,9.7148,9.7457,9.8233,9.8717,9.8717,9.8142,9.7988,9.8216,9.6905,9.6304,9.6492,9.7623,9.8229,9.8238,9.8238,9.7697,9.6692,9.7272,9.7503,9.7503,9.7503,9.7503,9.7465,9.6955,9.6723,9.6769,9.7689,9.8246,9.871,9.9993,10.0488,10.0496,9.9576,9.9073,9.8601,9.7247,9.6783,9.6783,9.6783,9.6783,9.6783,9.6783,9.6783,9.6783,9.6783,9.6783,9.6783,9.6783,9.6783,9.6783,9.6783,9.6783,9.6783,9.6783,9.6358,9.5893,9.5545,9.5042,9.4578,9.423,0.0,0.0,0.0,0.0,0.0,0.0,9.2644,0.0,0.0,0.0,0.0,0.0,0.0,0.0,9.4191,9.5042,0.0,9.6319,9.6628,9.6783,9.6783,9.6783,9.6783,9.6783,9.6783,9.6783,9.6783,9.6783,9.6783,9.6783,9.6783,9.6783,9.6783,9.6783,9.6783,9.6783,9.6783,9.6783,9.6783,10.1585,10.1585,10.1585,10.1585,10.1624,10.1297,10.0487,10.0294,9.9951,9.9091,9.8918,9.8882,9.8807,9.8788,9.8555,9.8001,9.7903,9.8211,9.9022,9.9782,10.019,10.0113,10.0,9.9634,9.8803,9.7994,9.7238,9.6476,9.6476,9.6476,9.6492,9.6492,9.6492,9.6492,9.6492,9.6492,9.6492,9.6492,9.6492,9.6492,9.6629,9.6613,9.6608,9.7617,9.8499,9.931,10.0115,10.0491,10.0504,9.9536,9.8756,9.8006,9.7078,9.6768,9.6807,9.686,9.6899,9.6899,9.6899,9.6899,9.686,9.6822,9.6783,9.6783,9.6783,9.6783,9.6783,9.6783,9.6783,9.6783,9.6783,9.6783,9.6512,9.57,9.5584,9.5313,9.4501,0.0,0.0,0.0,0.0,0.0,0.0,9.4191,9.3572,0.0,0.0,0.0,0.0,0.0,9.512,9.4307,9.512,9.5584,9.5584,9.6396,9.6783,9.6783,9.6783,9.6783,9.6783,9.6783,9.6783,9.6783,9.6783,9.6783,9.6783,9.6783,9.6783,9.6783,9.6783,9.6783,9.6783,9.6783,9.6783,9.6783,10.1585,10.1585,10.1585,10.1585,10.1609,10.1516,10.1208,10.0613,10.0095,9.9827,9.9249,9.8807,9.8788,9.8788,9.9,9.9518,9.894,9.8632,9.8863,9.9653,9.9827,9.9172,9.9115,9.873,9.7864,9.7056,9.6553,9.6429,9.6429,9.6463,9.6492,9.6492,9.6492,9.6492,9.6492,9.6492,9.6492,9.6492,9.6492,9.6492,9.6509,9.6509,9.6685,9.8207,9.8957,9.9304,10.0775,10.1311,10.1114,9.9613,9.9012,9.8604,9.706,9.6558,9.6729,9.7565,9.7789,9.7789,9.7789,9.7789,9.7634,9.6976,9.6783,9.6783,9.6783,9.6783,9.6783,9.6783,9.6783,9.6783,9.6783,9.6783,9.6744,9.6512,9.6474,9.6435,9.6203,9.5623,0.0,0.0,9.4888,9.4423,9.423,9.4191,9.4307,0.0,0.0,0.0,9.5855,9.5661,9.539,9.5197,9.6048,9.6474,9.6474,9.6706,9.6783,9.6783,9.6783,9.6783,9.6783,9.6783,9.6783,9.6783,9.6783,9.6783,9.6783,9.6783,9.6783,9.6783,9.6783,9.6783,9.6783,9.6783,9.6783,9.6783,10.1093,10.1289,10.1404,10.1095,10.1289,10.1404,10.1404,10.102,10.0596,10.0596,10.0212,9.9942,9.9942,9.9942,10.0096,10.0596,9.9865,9.9558,9.9904,10.0404,10.0404,9.9942,9.9211,9.8596,9.8096,9.6903,9.6306,9.6361,9.6361,9.6358,9.6394,9.6394,9.6394,9.6394,9.6394,9.6394,9.6394,9.6394,9.6394,9.6411,9.6446,9.6446,9.6604,9.8335,9.9008,9.9201,10.0881,10.1514,10.1315,9.9604,9.9043,9.8807,9.7032,9.6492,9.6779,9.8151,9.8276,9.8076,9.8501,9.8377,9.7905,9.7015,9.6783,9.6783,9.6783,9.6783,9.6783,9.6783,9.6783,9.6783,9.6783,9.6783,9.6783,9.6783,9.6783,9.6783,9.6783,9.6396,9.6087,9.6087,9.5661,9.5236,9.481,9.4772,9.481,9.4888,9.5274,0.0,9.6164,9.6125,9.5893,9.5506,9.5971,9.6203,9.6203,9.659,9.6783,9.6783,9.6783,9.6783,9.6783,9.6783,9.6783,9.6783,9.6783,9.6783,9.6783,9.6783,9.6783,9.6783,9.6783,9.6783,9.6783,9.6783,9.6783,9.6783,10.0395,10.0716,10.0906,10.0389,10.0782,10.119,10.119,10.1211,10.1289,10.1289,10.1289,10.1289,10.1289,10.1289,10.1289,10.1289,10.0712,10.0596,10.1289,10.1289,10.1212,10.1096,9.9635,9.875,9.8596,9.7096,9.6288,9.6288,9.6288,9.6288,9.6288,9.6288,9.6288,9.6288,9.6288,9.6288,9.6288,9.6288,9.6288,9.6288,9.634,9.6361,9.648,9.8227,9.888,9.9111,10.0693,10.1404,10.13,9.963,9.9088,9.8773,9.7153,9.6557,9.6789,9.8541,9.8554,9.8251,9.9117,9.8701,9.7875,9.6985,9.6753,9.6753,9.6768,9.6768,9.6807,9.6783,9.6783,9.6783,9.6783,9.6783,9.6822,9.6976,9.6899,9.686,9.6976,9.686,9.6783,9.6783,9.6783,9.6512,9.5777,9.57,9.539,9.4655,9.5274,9.57,9.57,9.6396,9.6474,9.57,9.57,9.57,9.57,9.6435,9.6783,9.6783,9.6783,9.6783,9.6783,9.6783,9.6783,9.6783,9.6783,9.6783,9.6783,9.6783,9.6783,9.6783,9.6783,9.6783,9.6783,9.6783,9.6783,9.6783,9.9741,9.982,9.9846,9.9767,10.0198,10.0604,10.0604,10.1008,10.1289,10.1289,10.1289,10.1289,10.1289,10.1289,10.1289,10.1289,10.1212,10.1212,10.1289,10.1289,10.1019,10.0289,9.9327,9.8442,9.7711,9.6788,9.6288,9.6288,9.6288,9.6288,9.6288,9.6288,9.6288,9.6288,9.6288,9.6288,9.6288,9.6288,9.6288,9.6288,9.6306,9.6306,9.648,9.8153,9.8807,9.9038,10.0712,10.1308,10.1212,10.0211,9.9442,9.8691,9.7633,9.6863,9.6671,9.8344,9.8803,9.8969,9.9887,9.8995,9.7645,9.6757,9.6525,9.6597,9.6715,9.6731,9.6746,9.6768,9.6783,9.6783,9.6783,9.6783,9.7054,9.7789,9.7286,9.7054,9.7789,9.7247,9.6783,9.6783,9.6783,9.6744,9.659,9.659,9.6551,9.6396,9.6512,9.659,9.659,9.6744,9.6744,9.659,9.659,9.659,9.659,9.6744,9.6783,9.6783,9.6783,9.6783,9.6783,9.6783,9.6783,9.6783,9.6783,9.6783,9.6783,9.6783,9.6783,9.6783,9.6783,9.6783,9.6783,9.6783,9.6783,9.6783,9.9129,9.9386,9.9607,9.9607,10.0113,10.0581,10.0923,10.1111,10.1289,10.1289,10.1289,10.1289,10.1289,10.1289,10.1289,10.1289,10.1289,10.1289,10.1289,10.1289,10.1096,10.0789,9.9481,9.8173,9.6865,9.648,9.6288,9.6288,9.6288,9.6288,9.6288,9.6288,9.6288,9.6288,9.6288,9.6288,9.6288,9.6288,9.6288,9.6288,9.6288,9.6288,9.648,9.8173,9.8788,9.9019,10.0712,10.1289,10.1212,10.0404,9.9519,9.8634,9.7788,9.725,9.7211,9.8442,9.9518,10.0303,10.0277,9.9424,9.8306,9.7418,9.684,9.6509,9.658,9.6597,9.6613,9.6707,9.6761,9.6777,9.6783,9.6783,9.6938,9.7325,9.7054,9.6938,9.7325,9.7054,9.6783,9.6783,9.6783,9.6783,9.6783,9.6783,9.6783,9.6783,9.6783,9.6783,9.6783,9.6783,9.6783,9.6783,9.6783,9.6783,9.6783,9.6783,9.6783,9.6783,9.6783,9.6783,9.6783,9.6783,9.6783,9.6783,9.6783,9.6783,9.6783,9.6783,9.6783,9.6783,9.6783,9.6783,9.6783,9.6783,9.6783,9.6783,9.8236,9.875,9.9245,9.9386,9.9898,10.0489,10.099,10.1191,10.1289,10.1289,10.1289,10.1289,10.1289,10.1289,10.1289,10.1289,10.1289,10.1212,10.1019,10.1019,10.1019,10.1019,9.9404,9.7827,9.6326,9.6288,9.6288,9.6288,9.6288,9.6288,9.6288,9.6288,9.6288,9.6288,9.6288,9.6288,9.6288,9.6288,9.6288,9.6288,9.6288,9.6288,9.648,9.8173,9.8788,9.9019,10.0712,10.1289,10.1212,10.0596,9.9673,9.8673,9.8019,9.7519,9.7442,9.8481,10.0115,10.1307,10.0494,9.9663,9.8815,9.7928,9.708,9.6463,9.6459,9.6497,9.6531,9.6613,9.6629,9.6661,9.6723,9.6738,9.683,9.7024,9.6923,9.686,9.7054,9.6938,9.6783,9.6783,9.6783,9.6783,9.6783,9.6783,9.6783,9.6783,9.6783,9.6783,9.6783,9.6783,9.6783,9.6783,9.6783,9.6783,9.6783,9.6783,9.6783,9.6783,9.6783,9.6783,9.6783,9.6783,9.6783,9.6783,9.6783,9.6783,9.6783,9.6783,9.6783,9.6783,9.6783,9.6783,9.6783,9.6783,9.6783,9.6783,9.6734,9.7434,9.8192,9.8686,9.9273,9.9872,10.0527,10.0987,10.1289,10.1289,10.1289,10.1289,10.1289,10.1289,10.1289,10.1289,10.1289,10.1019,10.0212,10.0173,10.0173,10.0173,9.8519,9.7211,9.6326,9.6288,9.6288,9.6288,9.6288,9.6288,9.6288,9.6288,9.6288,9.6288,9.6288,9.6288,9.6288,9.6288,9.6288,9.6288,9.6288,9.6288,9.648,9.8173,9.8788,9.9019,10.0712,10.1289,10.1289,10.1212,10.0096,9.8788,9.8711,9.7634,9.6711,9.8327,9.9981,10.1096,10.0308,9.9461,9.8615,9.773,9.6922,9.6325,9.6394,9.6411,9.6429,9.6476,9.6509,9.6509,9.6509,9.6613,9.6947,9.772,9.7241,9.7092,9.7905,9.7325,9.6783,9.6783,9.6783,9.6783,9.6783,9.6783,9.6783,9.6783,9.6783,9.6783,9.6783,9.6783,9.6783,9.6783,9.6783,9.6783,9.6783,9.6783,9.6783,9.6783,9.6783,9.6783,9.6783,9.6783,9.6783,9.6783,9.6783,9.6783,9.6783,9.6783,9.6783,9.6783,9.6783,9.6783,9.6783,9.6783,9.6783,9.6783,9.6517,9.6889,9.7558,9.8987,9.947,9.9923,10.0902,10.119,10.1289,10.1289,10.1289,10.1289,10.1289,10.0904,10.0789,10.1289,10.0289,9.9865,10.0096,9.9096,9.8481,9.8481,9.7865,9.7134,9.6326,9.6288,9.6288,9.6288,9.6288,9.6288,9.6288,9.6288,9.6288,9.6288,9.6288,9.6288,9.6288,9.6288,9.6288,9.6288,9.6288,9.6288,9.6442,9.7557,9.8327,9.8942,10.0096,10.0904,10.1289,10.1289,10.0212,9.8788,9.8788,9.798,9.7365,9.9096,10.0404,10.1212,10.0904,9.9827,9.8711,9.8404,9.7288,9.6288,9.6343,9.6343,9.6379,9.6429,9.6446,9.6463,9.6476,9.6564,9.6696,9.6966,9.6892,9.6862,9.7171,9.6985,9.6783,9.6783,9.6783,9.6783,9.6783,9.6783,9.6783,9.6783,9.6783,9.6783,9.6783,9.6783,9.6783,9.6783,9.6783,9.6783,9.6783,9.6783,9.6783,9.6783,9.6783,9.6783,9.6783,9.6783,9.6783,9.6783,9.6783,9.6783,9.6783,9.6783,9.6783,9.6783,9.6783,9.6783,9.6783,9.6783,9.6783,9.6783,9.5737,9.6257,9.7171,9.8922,9.919,9.967,10.1111,10.1096,10.0904,10.0904,10.0904,10.0904,10.0904,10.0212,9.9981,10.0904,9.9635,9.8942,9.925,9.7942,9.7134,9.7134,9.7134,9.6865,9.6326,9.6288,9.6288,9.6288,9.6288,9.6288,9.6288,9.6288,9.6288,9.6288,9.6288,9.6288,9.6288,9.6288,9.6288,9.6288,9.6288,9.6288,9.6403,9.7211,9.8057,9.8904,9.9788,10.0596,10.1289,10.1289,10.0212,9.8788,9.8788,9.8404,9.8134,9.9327,10.0481,10.1289,10.1289,10.0096,9.8788,9.8788,9.7557,9.6288,9.6288,9.6288,9.6306,9.6379,9.6358,9.6376,9.6429,9.6463,9.648,9.648,9.6564,9.6629,9.6699,9.6761,9.6792,9.6783,9.6783,9.6783,9.6783,9.6783,9.6783,9.6783,9.6783,9.6783,9.6783,9.6783,9.6783,9.6783,9.6783,9.6783,9.6783,9.6783,9.6783,9.6783,9.6783,9.6783,9.6783,9.6783,9.6783,9.6783,9.6783,9.6783,9.6783,9.6783,9.6783,9.6783,9.6783,9.6783,9.6783,9.6783,9.6783,9.6783,9.4214,9.5477,9.6985,9.8166,9.8356,9.8985,10.0996,10.0596,10.0096,10.0096,10.0096,10.0096,10.0096,9.9288,9.9135,9.9981,9.9288,9.8404,9.7557,9.6749,9.6288,9.6288,9.6288,9.6288,9.6288,9.6288,9.6288,9.6288,9.6288,9.6288,9.6288,9.6288,9.6288,9.6288,9.6288,9.6288,9.6288,9.6288,9.6288,9.6288,9.6288,9.6288,9.6403,9.7211,9.8019,9.8904,9.9788,10.0596,10.1289,10.1289,10.0212,9.8788,9.8788,9.8788,9.8788,9.8788,9.9981,10.1289,10.1289,10.0096,9.8788,9.8788,9.7557,9.6288,9.6288,9.6288,9.6288,9.6288,9.6288,9.6288,9.6288,9.6361,9.6394,9.6394,9.6463,9.6564,9.6699,9.6699,9.6731,9.6768,9.6783,9.6783,9.6783,9.6783,9.6783,9.6783,9.6783,9.6783,9.6783,9.6783,9.6783,9.6783,9.6783,9.6783,9.6783,9.6783,9.6783,9.6783,9.6783,9.6783,9.6783,9.6783,9.6783,9.6783,9.6783,9.6783,9.6783,9.6783,9.6783,9.6783,9.6783,9.6783,9.6783,9.6783,9.6783,9.6783,9.4102,9.5031,9.6001,9.6793,9.7705,9.844,9.8905,9.9112,9.9173,9.9173,9.9173,9.9173,9.9173,9.8404,9.825,9.9096,9.7865,9.6942,9.6673,9.6442,9.6288,9.6288,9.6288,9.6288,9.6288,9.6288,9.6288,9.6288,9.6288,9.6288,9.6288,9.6288,9.6288,9.6288,9.6288,9.6288,9.6288,9.6288,9.6288,9.6288,9.6288,9.6288,9.6326,9.6557,9.7173,9.8019,9.8865,9.975,10.0481,10.0481,9.9712,9.8596,9.7403,9.7442,9.8019,9.8634,9.9596,10.0596,10.1096,10.0096,9.8788,9.8788,9.7557,9.6288,9.6288,9.6288,9.6288,9.6288,9.6288,9.6288,9.6288,9.6306,9.6325,9.6325,9.6376,9.6463,9.6564,9.6629,9.6731,9.6768,9.6783,9.6783,9.6783,9.6783,9.6783,9.6783,9.6783,9.6783,9.6783,9.6783,9.6783,9.6783,9.6783,9.6783,9.6783,9.6783,9.6783,9.6783,9.6783,9.6783,9.6783,9.6783,9.6783,9.6783,9.6783,9.6783,9.6783,9.6783,9.6783,9.6783,9.6783,9.6783,9.6783,9.6783,9.6783,9.6783,9.3619,9.4362,9.5115,9.5698,9.6487,9.7215,9.7876,9.8002,9.8037,9.8269,9.8288,9.8288,9.8288,9.7519,9.7365,9.8211,9.7057,9.6288,9.6288,9.6288,9.6288,9.6288,9.6288,9.6288,9.6288,9.6288,9.6288,9.6288,9.6288,9.6288,9.6288,9.6288,9.6288,9.6288,9.6288,9.6288,9.6288,9.6288,9.6288,9.6288,9.6288,9.6288,9.6288,9.6288,9.6788,9.7596,9.8481,9.9365,10.0096,10.0096,9.9288,9.8057,9.6711,9.6865,9.7673,9.8519,9.9404,10.0289,10.1096,10.0289,9.9211,9.8904,9.7557,9.6288,9.6288,9.6288,9.6288,9.6288,9.6288,9.6288,9.6288,9.6288,9.6288,9.6288,9.6343,9.6376,9.6463,9.6531,9.6597,9.6676,9.6723,9.6777,9.6777,9.6768,9.6783,9.6783,9.6783,9.6783,9.6783,9.6783,9.6783,9.6783,9.6783,9.6783,9.6783,9.6783,9.6783,9.6783,9.6783,9.6783,9.6783,9.6783,9.6783,9.6783,9.6783,9.6783,9.6783,9.6783,9.6783,9.6783,9.6783,9.6783,9.6783,9.6783,9.6783,9.6783,9.2988,9.3657,9.4338,9.4812,9.497,9.5602,9.7367,9.6982,9.6702,9.725,9.7308,9.7327,9.7403,9.6749,9.6596,9.7326,9.6711,9.6288,9.6288,9.6288,9.6288,9.6288,9.6288,9.6288,9.6288,9.6288,9.6288,9.6288,9.6288,9.6288,9.6288,9.6288,9.6288,9.6288,9.6288,9.6288,9.6288,9.6288,9.6288,9.6288,9.6288,9.6288,9.6288,9.6288,9.6749,9.7519,9.8365,9.925,9.9981,9.9981,9.8865,9.7365,9.6557,9.6788,9.7596,9.8519,9.9365,10.0212,10.1096,10.0712,9.9865,9.9019,9.7596,9.6403,9.6326,9.6288,9.6288,9.6288,9.6288,9.6288,9.6288,9.6288,9.6288,9.6288,9.6288,9.6325,9.6394,9.6394,9.6429,9.6476,9.6613,9.6699,9.6699,9.6777,9.6783,9.6783,9.6783,9.6783,9.6783,9.6783,9.6783,9.6783,9.6783,9.6783,9.6783,9.6783,9.6783,9.6783,9.6783,9.6783,9.6783,9.6783,9.6783,9.6783,9.6783,9.6783,9.6783,9.6783,9.6783,9.6783,9.6783,9.6783,9.6783,9.6783,9.6783,9.6783,9.2988,9.3657,9.4057,9.3551,9.4329,9.4938,9.4735,9.4916,9.5243,9.5801,9.5866,9.603,9.652,9.6403,9.6365,9.6557,9.6403,9.6288,9.6288,9.6288,9.6288,9.6288,9.6288,9.6288,9.6288,9.6288,9.6288,9.6288,9.6288,9.6288,9.6288,9.6288,9.6288,9.6288,9.6288,9.6288,9.6288,9.6288,9.6288,9.6288,9.6288,9.6288,9.6288,9.6288,9.6403,9.6673,9.748,9.8327,9.9058,9.9058,9.8365,9.7365,9.6557,9.6442,9.6865,9.8365,9.8942,9.9404,10.0904,10.0712,9.9865,9.9019,9.8019,9.7057,9.6442,9.6288,9.6288,9.6288,9.6288,9.6288,9.6288,9.6288,9.6288,9.6288,9.6288,9.6325,9.6394,9.6394,9.6429,9.6476,9.6613,9.6699,9.6699,9.6777,9.6783,9.6783,9.6783,9.6783,9.6783,9.6783,9.6783,9.6783,9.6783,9.6783,9.6783,9.6783,9.6783,9.6783,9.6783,9.6783,9.6783,9.6783,9.6783,9.6783,9.6783,9.6783,9.6783,9.6783,9.6783,9.6783,9.6783,9.6783,9.6783,9.6783,9.6783,9.6783,9.2988,9.3322,9.3471,9.3062,9.3578,9.3999,9.3814,9.402,9.4394,9.4953,9.5025,9.525,9.5821,9.5882,9.6,9.6269,9.6288,9.6288,9.6288,9.6288,9.6288,9.6288,9.6288,9.6288,9.6288,9.6288,9.6288,9.6288,9.6288,9.6288,9.6288,9.6288,9.6288,9.6288,9.6288,9.6288,9.6288,9.6288,9.6288,9.6288,9.6288,9.6288,9.6288,9.6288,9.6288,9.6403,9.7211,9.7788,9.825,9.8673,9.798,9.6865,9.6442,9.6288,9.6557,9.7827,9.8481,9.9058,10.0404,10.0712,10.0404,9.9096,9.8442,9.7788,9.6596,9.6288,9.6288,9.6288,9.6288,9.6288,9.6288,9.6288,9.6288,9.6288,9.6288,9.6306,9.6361,9.6361,9.6379,9.6394,9.648,9.658,9.6699,9.6746,9.6777,9.6783,9.6783,9.6783,9.6783,9.6783,9.6783,9.6783,9.6783,9.6783,9.6783,9.6783,9.6783,9.6783,9.6783,9.6783,9.6783,9.6783,9.6783,9.6783,9.6783,9.6783,9.6783,9.6783,9.6783,9.6783,9.6783,9.6783,9.6783,9.6783,9.6783,9.6783,9.2988,9.2988,9.2988,9.2988,9.2988,9.3146,9.3597,9.3687,9.3856,9.4394,9.4447,9.468,9.5189,9.5363,9.5619,9.6251,9.6288,9.6288,9.6288,9.6288,9.6288,9.6288,9.6288,9.6288,9.6288,9.6288,9.6288,9.6288,9.6288,9.6288,9.6288,9.6288,9.6288,9.6288,9.6288,9.6288,9.6288,9.6288,9.6288,9.6288,9.6288,9.6288,9.6288,9.6288,9.6288,9.6403,9.7057,9.7365,9.7634,9.8519,9.7788,9.648,9.6326,9.6288,9.648,9.725,9.8134,9.8981,9.9865,10.0712,10.0904,9.9211,9.8788,9.8365,9.6673,9.6288,9.6288,9.6288,9.6288,9.6288,9.6288,9.6288,9.6288,9.6288,9.6288,9.6288,9.6288,9.6288,9.6288,9.6288,9.6379,9.6463,9.6668,9.6699,9.6731,9.6792,9.6783,9.6783,9.6783,9.6783,9.6783,9.6783,9.6783,9.6783,9.6783,9.6783,9.6783,9.6783,9.6783,9.6783,9.6783,9.6783,9.6783,9.6783,9.6783,9.6783,9.6783,9.6783,9.6783,9.6783,9.6783,9.6783,9.6783,9.6783,9.6783,9.6783,9.2988,9.2988,9.2988,9.2988,9.2988,9.3021,9.3082,9.3082,9.3301,9.3856,9.3914,9.4104,9.4655,9.5119,9.5619,9.6251,9.6288,9.6288,9.6288,9.6288,9.6288,9.6288,9.6288,9.6288,9.6288,9.6288,9.6288,9.6288,9.6288,9.6288,9.6288,9.6288,9.6288,9.6288,9.6288,9.6288,9.6288,9.6288,9.6288,9.6288,9.6288,9.6288,9.6288,9.6288,9.6288,9.6326,9.6442,9.6903,9.7634,9.8519,9.8134,9.7211,9.6519,9.6288,9.648,9.725,9.8134,9.8981,9.9865,10.0712,10.0904,9.9211,9.8788,9.8365,9.6673,9.6288,9.6288,9.6288,9.6288,9.6288,9.6288,9.6288,9.6288,9.6288,9.6288,9.6288,9.6288,9.6288,9.6288,9.6288,9.6379,9.6446,9.6531,9.6629,9.6715,9.6715,9.6792,9.6783,9.6783,9.6783,9.6783,9.6783,9.6783,9.6783,9.6783,9.6783,9.6783,9.6783,9.6783,9.6783,9.6783,9.6783,9.6783,9.6783,9.6783,9.6783,9.6783,9.6783,9.6783,9.6783,9.6783,9.6783,9.6783,9.6783,9.6783,9.6783,9.2988,9.2988,9.2988,9.2988,9.2988,9.2988,9.2988,9.2988,9.3082,9.3332,9.3326,9.3536,9.4104,9.4629,9.5204,9.5741,9.5783,9.5922,9.6269,9.6288,9.6288,9.6288,9.6288,9.6288,9.6288,9.6288,9.6288,9.6288,9.6288,9.6288,9.6288,9.6288,9.6288,9.6288,9.6288,9.6288,9.6288,9.6288,9.6288,9.6288,9.6288,9.6288,9.6288,9.6288,9.6288,9.6365,9.6826,9.6903,9.698,9.7788,9.7519,9.6788,9.6403,9.6288,9.6365,9.6749,9.7788,9.8865,9.925,10.0289,10.1019,9.9827,9.9173,9.8481,9.725,9.6634,9.6288,9.6288,9.6288,9.6288,9.6288,9.6288,9.6288,9.6288,9.6288,9.6288,9.6288,9.6288,9.6288,9.6288,9.6325,9.6358,9.6446,9.6497,9.6564,9.6699,9.6746,9.6777,9.6783,9.6783,9.6783,9.6783,9.6783,9.6783,9.6783,9.6783,9.6783,9.6783,9.6783,9.6783,9.6783,9.6783,9.6783,9.6783,9.6783,9.6783,9.6783,9.6783,9.6783,9.6783,9.6783,9.6783,9.6783,9.6783,9.6783,9.6783]}]]